     2              OBSERVATION DATA    GPS                 RINEX VERSION / TYPE
teqc 1997Jul24 19970814                                     PGM / RUN BY / DATE
                                                            COMMENT
Original Marker Name: 0807                                  COMMENT
Campaign Name: HPGN 1991                                    COMMENT
4-Character Station Name: 0807                              COMMENT
6-Character Antenna Code: TRMSST                            COMMENT
Vertical Measurement Point: BPA                             COMMENT
Vertical Offset to Rinex Ref. Point: 0.0000                 COMMENT
Radial Measurement Point: RRP                               COMMENT
Radial Offset to Rinex Ref. Point: 0.0000                   COMMENT
Antenna Height from Field Measurement: 2.2200 m             COMMENT
Original XYZ: -2333610.0569 -4696769.5680 3618644.7809      COMMENT
New XYZ position is based on association with SCEC monument COMMENT
E1F2T3H9+0011. Position of that monument is believed to be  COMMENT
valid to within 1 m horizontally; vertical accuracy         COMMENT
should be no worse than 3-times this value.                 COMMENT
                                                            COMMENT
Revised Rinex header created by UCSD GPS archive for        COMMENT
GSAC on 19-Apr-1999 (1999:109) 04:33:52 GMT                 COMMENT
For assistance contact dagnew@ucsd.edu or hjohnson@ucsd.edu COMMENT
                                                            COMMENT
HECTOR 2 1966                                               MARKER NAME
unknown NATIONAL GEODETIC SURVEY                            OBSERVER / AGENCY
485 TRIMBLE 4000 SST NP 4.30 / SP 4.20                      REC # / TYPE / VERS
16 TR 4000SST L1/L2 GEO                                     ANT # / TYPE
 -2333615.0000 -4696774.0000  3618642.0000                  APPROX POSITION XYZ
        2.2200        0.0000        0.0000                  ANTENNA: DELTA H/E/N
     1     1     0                                          WAVELENGTH FACT L1/2
     3    C1    L1    L2                                    # / TYPES OF OBSERV
     0                                                      INTERVAL
  1991     4    22    20     5   15.000000                  TIME OF FIRST OBS
  1991     4    23     2     2   15.000000                  TIME OF LAST OBS
     0                                                      # OF SATELLITES
                                                            END OF HEADER
 91  4 22 20  5 15.0000000  0  4G18G 2G19G11
  20776056.813          -0.41317
  23773120.086          -0.89715
  20927332.828          -0.90417
  23528851.9454         -0.35756
 91  4 22 20  5 30.0000000  0  4G18G 2G19G11
  20778013.539       10282.671 7        -0.23333
  23762480.438      -55919.235 6
  20924762.1174     -13517.19647        -0.31872
  23521414.766      -39085.875 6
 91  4 22 20  5 45.0000000  0  4G18G 2G19G11
  20779988.273       20658.041 7      8084.42523
  23751843.6954    -111810.25946        -0.49671
  20922193.9844     -27011.03747    -10514.99262
  23513994.266      -78085.703 6        -0.19331
 91  4 22 20  6  0.0000000  0  4G18G 2G19G11
  20781979.922       31124.553 7     16240.10323
  23741213.1334    -167675.22346    -43531.45661
  20919630.8524     -40483.72847    -21013.18562
  23506588.719     -117000.742 6    -30323.49421
 91  4 22 20  6 15.0000000  0  4G18G 2G19G11
  20783988.078       41676.195 7     24462.11723
  23730587.227     -223520.035 6    -87046.67521
  20917068.0004     -53941.34447    -31499.63562
  23499197.938     -155836.921 6    -60585.34921
 91  4 22 20  6 30.0000000  0  4G18G 2G19G11
  20786012.109       52315.593 7     32752.51123
  23719963.500     -279341.604 6   -130543.80021
  20914508.3134     -67380.87747    -41971.98662
  23491823.6254    -194590.89146    -90783.14661
 91  4 22 20  6 45.0000000  0  4G18G 2G19G11
  20788055.078       63046.922 7     41114.54223
  23709346.9224    -335135.47146   -174019.35161
  20911958.5084     -80798.09446    -52426.95662
  23484464.594     -233258.186 6   -120913.40121
 91  4 22 20  7  0.0000000  0  4G18G 2G19G11
  20790113.563       73865.941 7     49544.90123
  23698733.8674    -390905.98746   -217476.69461
  20909409.1484     -94197.15747    -62867.77662
  23477123.031     -271842.605 6   -150979.07321
 91  4 22 20  7 15.0000000  0  4G18G 2G19G11
  20792189.023       84773.041 7     58043.89223
  23688127.4774    -446652.21646   -260915.11361
  20906862.6094    -107577.49847    -73294.01062
  23469796.438     -310343.169 6   -180979.40921
 91  4 22 20  7 30.0000000  0  4G18G 2G19G11
  20794281.875       95771.974 7     66614.44523
  23677522.7504    -502370.05046   -304331.40461
  20904319.0084    -120935.42347    -83702.77162
  23462486.602     -348755.824 6   -210911.24321
 91  4 22 20  7 45.0000000  0  4G18G 2G19G11
  20796391.938      106857.639 7     75252.57923
  23666923.4454    -558064.59546   -347729.57461
  20901781.7664    -134276.16647    -94098.14962
  23455192.9774    -387085.45746   -240778.39461
 91  4 22 20  8  0.0000000  0  4G18G 2G19G11
  20798517.844      118029.000 7     83957.49123
  23656329.1254    -613736.97146   -391110.42061
  20899244.5784    -147600.78247   -104480.95962
  23447915.578     -425332.794 6   -270581.40021
 91  4 22 20  8 15.0000000  0  4G18G 2G19G11
  20800660.133      129290.984 7     92733.02023
  23645741.4064    -669381.50946   -434469.62961
  20896714.8284    -160903.76747   -114846.91262
  23440652.8444    -463492.04846   -300315.78161
 91  4 22 20  8 30.0000000  0  4G18G 2G19G11
  20802820.500      140643.062 7    101578.75023
  23635157.1484    -724998.98646   -477807.71661
  20894185.9064    -174185.93047   -125196.63962
  23433407.820     -501563.718 6   -329981.90921
 91  4 22 20  8 45.0000000  0  4G18G 2G19G11
  20804998.688      152085.607 7    110494.97223
  23624577.453     -780588.739 6   -521124.21721
  20891663.9224    -187446.90246   -135529.86162
  23426179.070     -539547.102 6   -359579.24321
 91  4 22 20  9  0.0000000  0  4G18G 2G19G11
  20807192.836      163617.931 7    119481.14923
  23614006.320     -836151.160 6   -564419.42121
  20889143.9144    -200687.27046   -145847.02562
  23418967.813     -577442.420 6   -389107.96221
 91  4 22 20  9 15.0000000  0  4G18G 2G19G11
  20809405.938      175244.184 7    128540.52323
  23603436.3834    -891681.86446   -607689.90261
  20886629.8134    -213902.60047   -156144.68162
  23411776.195     -615244.963 6   -418564.38121
 91  4 22 20  9 30.0000000  0  4G18G 2G19G11
  20811634.086      186954.098 7    137665.08023
  23592875.2584    -947190.93546   -650943.54061
  20884115.9224    -227103.22747   -166430.88162
  23404596.3674    -652964.76146   -447956.33161
 91  4 22 20  9 45.0000000  0  4G18G 2G19G11
  20813879.484      198753.417 7    146859.30923
  23582316.3834   -1002672.38146   -694175.62361
  20881609.5394    -240283.25246   -176701.02162
  23397436.4304    -690595.44646   -477278.84161
 91  4 22 20 10  0.0000000  0  4G18G 2G19G11
  20816141.922      210645.811 7    156126.06123
  23571763.9614   -1058122.27746   -737383.15761
  20879106.0004    -253438.92447   -186952.18862
  23390294.2504    -728132.98246   -506528.78561
 91  4 22 20 10 15.0000000  0  4G18G 2G19G11
  20818422.688      222630.207 7    165464.50623
  23561218.8754   -1113541.56346   -780566.79561
  20876607.7424    -266571.27446   -197185.18262
  23383167.344     -765578.046 6   -535706.64321
 91  4 22 20 10 30.0000000  0  4G18G 2G19G11
  20820719.914      234702.940 7    174871.77523
  23550677.1094   -1168933.76446   -823729.39161
  20874109.4224    -279684.02447   -207402.91062
  23376059.422     -802934.164 6   -564815.20321
 91  4 22 20 10 45.0000000  0  4G18G 2G19G11
  20823034.422      246864.656 7    184348.39023
  23540142.148    -1224297.778 6   -866869.97121
  20871620.0944    -292776.33846   -217604.71362
  23368967.5394    -840200.30546   -593853.66061
 91  4 22 20 11  0.0000000  0  4G18G 2G19G11
  20825367.359      259122.979 7    193900.28423
  23529612.5864   -1279625.99246   -909982.68161
  20869131.2584    -305840.56947   -227784.62562
  23361894.4064    -877368.31746   -622815.64861
 91  4 22 20 11 15.0000000  0  4G18G 2G19G11
  20827722.453      271499.982 7    203544.65223
  23519094.8444   -1334895.93246   -953049.98961
  20866657.5394    -318854.35046   -237925.23762
  23354844.1954    -914415.49346   -651683.49361
 91  4 22 20 11 30.0000000  0  4G18G 2G19G11
  20830094.422      283965.419 7    213257.92923
  23508583.9534   -1390137.62646   -996095.26961
  20864182.4144    -331847.88747   -248050.06862
  23347812.3204    -951371.83246   -680480.53861
 91  4 22 20 11 45.0000000  0  4G18G 2G19G11
  20832484.422      296520.580 7    223041.11923
  23498076.1884   -1445349.80246  -1039117.58561
  20861716.5394    -344820.09246   -258158.27862
  23340796.4454    -988235.92046   -709205.70561
 91  4 22 20 12  0.0000000  0  4G18G 2G19G11
  20834889.859      309163.111 7    232892.39023
  23487575.930    -1500534.485 6  -1082118.41621
  20859249.3834    -357772.97647   -268251.43362
  23333798.4774   -1025009.42846   -737860.29161
 91  4 22 20 12 15.0000000  0  4G18G 2G19G11
  20837313.625      321899.996 7    242817.18823
  23477080.3524   -1555684.34646  -1125092.16961
  20856790.6804    -370699.60346   -278324.12862
  23326819.422    -1061684.992 6   -766438.55121
 91  4 22 20 12 30.0000000  0  4G18G 2G19G11
  20839756.102      334733.530 7    252817.29023
  23466592.656    -1610796.825 6  -1168036.76721
  20854336.0944    -383597.32347   -288374.29662
  23319858.8984   -1098259.78446   -794938.29661
 91  4 22 20 12 45.0000000  0  4G18G 2G19G11
  20842215.680      347659.789 7    262889.65123
  23456111.6024   -1665875.70646  -1210955.20261
  20851888.1024    -396470.14146   -298405.06362
  23312917.508    -1134737.567 6   -823362.46221
 91  4 22 20 13  0.0000000  0  4G18G 2G19G11
  20844692.914      360678.264 7    273033.86523
  23445637.000    -1720921.415 6  -1253847.78321
  20849441.6414    -409318.69046   -308416.91962
  23305995.7034   -1171118.51346   -851711.16261
 91  4 22 20 13 15.0000000  0  4G18G 2G19G11
  20847187.227      373784.885 7    283246.76523
  23435168.4454   -1775937.44746  -1296717.23061
  20847002.4694    -422146.71146   -318412.77962
  23299089.7734   -1207406.10446   -879987.11761
 91  4 22 20 13 30.0000000  0  4G18G 2G19G11
  20849698.852      386984.219 7    293531.91123
  23424704.531    -1830919.135 6  -1339559.91621
  20844564.3914    -434949.43046   -328388.92462
  23292203.2584   -1243595.44246   -908186.51161
 91  4 22 20 13 45.0000000  0  4G18G 2G19G11
  20852228.859      400276.646 7    303889.59723
  23414248.1804   -1885865.81746  -1382375.35661
  20842134.5634    -447726.41146   -338345.01162
  23285334.313    -1279685.550 6   -936308.59321
 91  4 22 20 14  0.0000000  0  4G18G 2G19G11
  20854774.859      413658.540 7    314316.99323
  23403797.6804   -1940781.26446  -1425166.40361
  20839706.1644    -460481.43046   -348283.99062
  23278485.008    -1315679.882 6   -964356.03621
 91  4 22 20 14 15.0000000  0  4G18G 2G19G11
  20857337.961      427130.060 7    324814.23423
  23393354.055    -1995664.814 6  -1467932.64821
  20837283.6414    -473214.10446   -358205.55362
  23271654.6094   -1351577.88546   -992328.42561
 91  4 22 20 14 30.0000000  0  4G18G 2G19G11
  20859920.719      440696.924 8    335385.76823
  23382918.500    -2050510.679 6  -1510669.48821
  20834866.4224    -485918.66246   -368105.20962
  23264842.391    -1387373.409 6  -1020220.94621
 91  4 22 20 14 45.0000000  0  4G18G 2G19G11
  20862519.672      454356.541 7    346029.57923
  23372487.3674   -2105321.02646  -1553378.68261
  20832454.1414    -498597.41446   -377984.75662
  23258050.070    -1423068.515 6  -1048035.23821
 91  4 22 20 15  0.0000000  0  4G18G 2G19G11
  20865137.414      468109.755 8    356746.31723
  23362062.9844   -2160095.12046  -1596059.60961
  20830046.1724    -511249.62346   -387843.62362
  23251277.922    -1458662.263 6  -1075770.55921
 91  4 22 20 15 15.0000000  0  4G18G 2G19G11
  20867770.719      481951.754 7    367532.23723
  23351647.617    -2214837.250 6  -1638715.63621
  20827642.3364    -523879.95046   -397685.44062
  23244521.352    -1494158.883 6  -1103430.18421
 91  4 22 20 15 30.0000000  0  4G18G 2G19G11
  20870422.102      495885.409 7    378389.57923
  23341235.7114   -2269544.16046  -1681344.21561
  20825242.6094    -536485.06347   -407507.60762
  23237785.6804   -1529554.90346  -1131011.42561
 91  4 22 20 15 45.0000000  0  4G18G 2G19G11
  20873091.414      509912.931 7    389320.06823
  23330832.3524   -2324213.33746  -1723943.39961
  20822851.6094    -549062.50646   -417308.21362
  23231069.5314   -1564847.62746  -1158512.18061
 91  4 22 20 16  0.0000000  0  4G18G 2G19G11
  20875780.555      524038.766 8    400327.16023
  23320436.7114   -2378840.64746  -1766509.94361
  20820460.7974    -561608.22547   -427084.09962
  23224375.063    -1600032.550 6  -1185928.93121
 91  4 22 20 16 15.0000000  0  4G18G 2G19G11
  20878486.500      538258.318 8    411407.28023
  23310048.430    -2433430.574 6  -1809047.37321
  20818081.2504    -574126.95846   -436838.96062
  23217698.484    -1635114.081 6  -1213265.12221
 91  4 22 20 16 30.0000000  0  4G18G 2G19G11
  20881210.523      552572.690 8    422561.28723
  23299668.8984   -2487981.41046  -1851554.34061
  20815704.6334    -586617.16746   -446571.59162
  23211042.102    -1670090.390 6  -1240519.31121
 91  4 22 20 16 45.0000000  0  4G18G 2G19G11
  20883952.492      566984.035 7    433790.85723
  23289295.3364   -2542490.72646  -1894028.94461
  20813332.9144    -599076.60246   -456280.24462
  23204406.4224   -1704958.98146  -1267689.57761
 91  4 22 20 17  0.0000000  0  4G18G 2G19G11
  20886713.445      581492.716 7    445096.27323
  23278929.484    -2596957.933 6  -1936470.75121
  20810965.7664    -611504.86347   -465964.60662
  23197792.8134   -1739719.19846  -1294775.39761
 91  4 22 20 17 15.0000000  0  4G18G 2G19G11
  20889492.055      596096.560 7    456475.84123
  23268572.5704   -2651384.87146  -1978881.16261
  20808609.2504    -623903.67046   -475626.01762
  23191198.9144   -1774372.56246  -1321777.95361
 91  4 22 20 17 30.0000000  0  4G18G 2G19G11
  20892289.773      610793.615 7    467928.03723
  23258222.586    -2705773.300 6  -2021261.58221
  20806252.7734    -636275.02447   -485266.03762
  23184624.3364   -1808920.78646  -1348698.58161
 91  4 22 20 17 45.0000000  0  4G18G 2G19G11
  20895104.383      625585.398 7    479454.05123
  23247881.1724   -2760121.53846  -2063610.67561
  20803905.6484    -648617.30946   -494883.40562
  23178070.1174   -1843361.96046  -1375535.80661
 91  4 22 20 18  0.0000000  0  4G18G 2G19G11
  20897936.750      640473.364 7    491055.00823
  23237546.4924   -2814428.01346  -2105927.24361
  20801564.1724    -660929.12046   -504477.03262
  23171536.4844   -1877694.29746  -1402288.21361
 91  4 22 20 18 15.0000000  0  4G18G 2G19G11
  20900788.711      655456.328 7    502729.99523
  23227218.6884   -2868693.59146  -2148211.92561
  20799226.2274    -673211.52046   -514047.73162
  23165024.0864   -1911918.58546  -1428956.42261
 91  4 22 20 18 30.0000000  0  4G18G 2G19G11
  20903657.594      670533.127 7    514478.09723
  23216900.281    -2922919.194 6  -2190465.46921
  20796894.8204    -685465.34746   -523596.17362
  23158532.602    -1946035.588 6  -1455541.04221
 91  4 22 20 18 45.0000000  0  5G18G 2G19G11G16
  20906544.555      685704.913 7    526300.21123
  23206589.9774   -2977103.44846  -2232686.78461
  20794567.8524    -697689.26946   -533121.31262
  23152060.5164   -1980043.58046  -1482040.72361
  24240204.3364     -34926.34545
 91  4 22 20 19  0.0000000  0  5G18G 2G19G11G16
  20909449.813      700972.280 7    538196.80823
  23196286.8054   -3031245.51146  -2274875.22261
  20792244.8914    -709882.61747   -542622.62762
  23145609.5004   -2013941.63646  -1508454.72861
  24233575.266      -69744.682 5        -0.20031
 91  4 22 20 19 15.0000000  0  5G18G 2G19G11G16
  20912371.531      716332.423 7    550165.70123
  23185992.3754   -3085347.85346  -2317032.71761
  20789933.5234    -722048.07546   -552102.20762
  23139178.9454   -2047732.12546  -1534784.91961
  24226970.2034    -104457.43145    -27049.14961
 91  4 22 20 19 30.0000000  0  5G18G 2G19G11G16
  20915315.203      731794.520 7    562214.03023
  23175705.828    -3139401.057 6  -2359151.91521
  20787624.9614    -734176.41446   -561552.86862
  23132771.5314   -2081405.43246  -1561023.80061
  24220388.8444    -139055.26145    -54008.46561
 91  4 22 20 19 45.0000000  0  5G18G 2G19G11G16
  20918276.4224     747351.55247    574336.33763
  23165425.891    -3193412.131 6  -2401238.30121
  20785323.5004    -746274.70346   -570980.10862
  23126385.2344   -2114968.50646  -1587176.78461
  24213823.109     -173545.120 5    -80883.69921
 91  4 22 20 20  0.0000000  0  5G18G 2G19G11G16
  20921254.711      763003.269 7    586532.42823
  23155159.406    -3247380.746 6  -2443291.58921
  20783024.7584    -758342.67447   -580383.72662
  23120018.2424   -2148420.88946  -1613243.51161
  24207282.3284    -207926.48345   -107674.31761
 91  4 22 20 20 15.0000000  0  5G18G 2G19G11G16
  20924250.820      778752.511 7    598804.51023
  23144896.2734   -3301304.07046  -2485309.58261
  20780735.9304    -770377.52746   -589761.53462
  23113673.7344   -2181759.49746  -1639221.58761
  24200759.383     -242196.555 5   -134378.26221
 91  4 22 20 20 30.0000000  0  5G18G 2G19G11G16
  20927266.266      794597.931 7    611151.53723
  23134641.898    -3355183.216 6  -2527293.17021
  20778450.6644    -782380.53047   -599114.52662
  23107352.3594   -2214985.21046  -1665111.68461
  24194259.516     -276356.637 5   -160996.54821
 91  4 22 20 20 45.0000000  0  5G18G 2G19G11G16
  20930299.914      810540.067 7    623573.92723
  23124398.781    -3409017.450 6  -2569241.75721
  20776174.1094    -794350.97746   -608442.15062
  23101050.8054   -2248097.18346  -1690913.15761
  24187780.203     -310405.918 5   -187528.39921
 91  4 22 20 21  0.0000000  0  5G18G 2G19G11G16
  20933352.828      826577.020 7    636070.20123
  23114163.1644   -3462808.56046  -2611156.72761
  20773900.9144    -806290.76647   -617745.88762
  23094772.4924   -2281097.17446  -1716627.36961
  24181320.656     -344346.078 5   -213975.30521
 91  4 22 20 21 15.0000000  0  5G18G 2G19G11G16
  20936421.664      842705.738 7    648637.98023
  23103932.4304   -3516559.12346  -2653040.14161
  20771634.8674    -818202.51046   -627027.76562
  23088512.3914   -2313987.55546  -1742256.17261
  24174880.9144    -378179.78245   -240339.21161
 91  4 22 20 21 30.0000000  0  5G18G 2G19G11G16
  20939508.719      858927.047 7    661277.90923
  23093714.8134   -3570268.08746  -2694891.09761
  20769374.2114    -830085.27646   -636287.06862
  23082275.3834   -2346766.98646  -1767798.51861
  24168463.8914    -411905.64445   -266619.09961
 91  4 22 20 21 45.0000000  0  5G18G 2G19G11G16
  20942612.563      875239.038 7    673988.49923
  23083500.4614   -3623936.83846  -2736710.74761
  20767118.7034    -841940.72646   -645525.08362
  23076058.1024   -2379436.84946  -1793255.49361
  24162071.0784    -445525.16545   -292816.07761
 91  4 22 20 22  0.0000000  0  5G18G 2G19G11G16
  20945734.719      891645.722 7    686772.87323
  23073295.969    -3677561.292 6  -2778495.87321
  20764865.4534    -853765.09346   -654738.87862
  23069861.2344   -2411993.03546  -1818623.88261
  24155693.1954    -479034.51545   -318927.26361
 91  4 22 20 22 15.0000000  0  5G18G 2G19G11G16
  20948874.055      908147.987 7    699631.72723
  23063100.5234   -3731140.58446  -2820245.81161
  20762624.5474    -865557.29746   -663927.61062
  23063689.9844   -2444434.34846  -1843902.76061
  24149334.3594    -512432.65645   -344951.79161
 91  4 22 20 22 30.0000000  0  5G18G 2G19G11G16
  20952033.234      924745.751 7    712564.99223
  23052912.344    -3784674.392 6  -2861960.30621
  20760384.4924    -877317.13746   -673091.12662
  23057538.8754   -2476760.19946  -1869091.67061
  24143001.4384    -545719.15945   -370889.28661
 91  4 22 20 22 45.0000000  0  5G18G 2G19G11G16
  20955209.766      941439.393 7    725572.97623
  23042734.555    -3838162.213 6  -2903638.97221
  20758155.5554    -889044.26246   -682229.14862
  23051408.6414   -2508970.14846  -1894190.25861
  24136690.6954    -578893.66745   -396739.57461
 91  4 22 20 23  0.0000000  0  5G18G 2G19G11G16
  20958404.875      958228.504 7    738655.34723
  23032564.3674   -3891603.91346  -2945281.69961
  20755927.0554    -900738.56547   -691341.59362
  23045301.3134   -2541063.84946  -1919198.27661
  24130398.602     -611955.923 5   -422502.33521
 91  4 22 20 23 15.0000000  0  5G18G 2G19G11G16
  20961617.766      975112.055 7    751811.30623
  23022403.8134   -3945000.58346  -2986889.34161
  20753710.4384    -912401.16046   -700429.33462
  23039215.672    -2573042.163 6  -1944116.37321
  24124125.703     -644907.137 5   -448178.64321
 91  4 22 20 23 30.0000000  0  5G18G 2G19G11G16
  20964848.7814     992089.39347    765040.34463
  23012250.0474   -3998352.49146  -3028462.10361
  20751492.2664    -924032.48747   -709492.71062
  23033153.4454   -2604905.28546  -1968944.71361
  24117877.5394    -677747.41745   -473768.44861
 91  4 22 20 23 45.0000000  0  5G18G 2G19G11G16
  20968097.3134    1009156.33547    778339.20263
  23002104.8364   -4051663.56846  -3070003.06061
  20749288.9304    -935636.74746   -718534.99362
  23027110.2504   -2636657.02946  -1993686.26461
  24111646.9694    -710480.69045   -499274.89361
 91  4 22 20 24  0.0000000  0  5G18G 2G19G11G16
  20971362.664     1026321.822 7    791714.85323
  22991969.5164   -4104924.61546  -3111505.01461
  20747084.8134    -947204.69847   -727548.98162
  23021090.656    -2668288.117 6  -2018333.79321
  24105442.3364    -743097.67445   -524690.71361
 91  4 22 20 24 15.0000000  0  5G18G 2G19G11G16
  20974646.719     1043580.478 7    805163.10123
  22981843.2194   -4158140.81446  -3152972.03261
  20744891.1334    -958741.50246   -736538.70262
  23015095.1024   -2699803.48146  -2042891.14061
  24099256.828     -775603.675 5   -550020.06521
 91  4 22 20 24 30.0000000  0  5G18G 2G19G11G16
  20977949.469     1060935.885 7    818686.73823
  22971726.8834   -4211308.18146  -3194401.00161
  20742700.7814    -970243.40147   -745501.21862
  23009119.992    -2731198.948 6  -2067355.06421
  24093087.8594    -807994.58745   -575259.73161
 91  4 22 20 24 45.0000000  0  5G18G 2G19G11G16
  20981270.0864    1078385.66747    832283.91463
  22961617.2894   -4264429.18246  -3235793.83661
  20740519.9384    -981712.90246   -754438.49462
  23003167.180    -2762476.936 6  -2091727.44421
  24086950.703     -840272.835 5   -600411.60321
 91  4 22 20 25  0.0000000  0  5G18G 2G19G11G16
  20984610.1484    1095932.39547    845956.63163
  22951518.906    -4317500.808 6  -3277148.21321
  20738342.1724    -993147.29946   -763348.42062
  22997237.8444   -2793634.27646  -2116005.83261
  24080829.203     -872435.554 5   -625473.45621
 91  4 22 20 25 15.0000000  0  5G18G 2G19G11G16
  20987967.5314    1113574.48147    859703.65063
  22941427.3364   -4370524.12646  -3318464.92761
  20736175.5084   -1004547.70146   -772231.85262
  22991332.7664   -2824672.14846  -2140191.11761
  24074729.9694    -904484.26345   -650446.48661
 91  4 22 20 25 30.0000000  0  5G18G 2G19G11G16
  20991342.344     1131312.035 7    873525.06423
  22931346.891    -4423498.856 6  -3359743.79821
  20734010.1484   -1015913.84647   -781088.59462
  22985448.055    -2855589.923 6  -2164282.81621
  24068656.0234    -936418.17245   -675330.01661
 91  4 22 20 25 45.0000000  0  5G18G 2G19G11G16
  20994736.3834    1149147.88347    887423.06763
  22921277.508    -4476422.226 6  -3400982.64521
  20731856.3524   -1027242.86046   -789916.39862
  22979588.477    -2886384.647 6  -2188278.63621
  24062597.0704    -968234.15544   -700121.74461
 91  4 22 20 26  0.0000000  0  5G18G 2G19G11G16
  20998148.3444    1167075.05947    901392.23463
  22911214.2814   -4529300.90946  -3442186.66361
  20729704.6254   -1038541.57846   -798720.59562
  22973750.063    -2917062.809 6  -2212183.63421
  24056566.445     -999939.109 5   -724826.86021
 91  4 22 20 26 15.0000000  0  5G18G 2G19G11G16
  21001577.4614    1185096.96047    915435.21063
  22901159.336    -4582131.229 6  -3483353.01221
  20727562.3834   -1049806.44646   -807498.41462
  22967935.773    -2947620.767 6  -2235994.95821
  24050557.9144   -1031529.60245   -749442.84061
 91  4 22 20 26 30.0000000  0  5G18G 2G19G11G16
  21005023.8984    1203210.35447    929549.48063
  22891115.3524   -4634916.06746  -3524483.90761
  20725422.9774   -1061040.28546   -816252.06362
  22962142.9924   -2978061.08046  -2259714.61961
  24044565.938    -1063008.288 5   -773971.66821
 91  4 22 20 26 45.0000000  0  5G18G 2G19G11G16
  21008488.6644    1221417.63847    943736.91063
  22881079.547    -4687652.964 6  -3565577.45021
  20723294.6564   -1072240.79546   -824979.73762
  22956373.9384   -3008381.11546  -2283340.54561
  24038595.4844   -1094372.90644   -798411.66261
 91  4 22 20 27  0.0000000  0  5G18G 2G19G11G16
  21011972.2584    1239720.27347    957998.64163
  22871053.844    -4740340.079 6  -3606632.21421
  20721168.3524   -1083406.25546   -833680.09762
  22950626.5394   -3038579.11746  -2306871.38661
  24032651.219    -1125621.433 5   -822761.15621
 91  4 22 20 27 15.0000000  0  5G18G 2G19G11G16
  21015472.2584    1258119.69147    972335.78563
  22861038.516    -4792975.645 6  -3647646.78921
  20719051.8134   -1094535.08746   -842351.91662
  22944904.0164   -3068653.23146  -2330305.69461
  24026729.2344   -1156752.20545   -847018.86261
 91  4 22 20 27 30.0000000  0  5G18G 2G19G11G16
  21018993.0704    1276615.00047    986747.64763
  22851030.742    -4845560.370 6  -3688621.76121
  20716938.9694   -1105628.11346   -850995.83862
  22939203.9144   -3098603.87846  -2353643.79761
  24020821.852    -1187765.916 4   -871185.41121
 91  4 22 20 27 45.0000000  0  5G18G 2G19G11G16
  21022531.1334    1295207.72747   1001235.42063
  22841034.6724   -4898092.45346  -3729555.70861
  20714836.1644   -1116683.48146   -859610.41262
  22933529.5164   -3128429.20646  -2376884.24361
  24014946.836    -1218660.780 5   -895259.32621
 91  4 22 20 28  0.0000000  0  5G18G 2G19G11G16
  21026087.9774    1313898.86947   1015799.87863
  22831047.672    -4950570.495 6  -3770447.55221
  20712738.1724   -1127700.03046   -868194.73862
  22927877.1174   -3158127.76846  -2400025.91361
  24009086.570    -1249435.447 5   -919239.58821
 91  4 22 20 28 15.0000000  0  5G18G 2G19G11G16
  21029662.6334    1332685.74047   1030438.92863
  22821071.602    -5002997.187 6  -3811299.38521
  20710650.6174   -1138680.40346   -876750.87862
  22922249.0004   -3187701.99046  -2423070.71161
  24003250.5004   -1280092.56044   -943128.26661
 91  4 22 20 28 30.0000000  0  5G18G 2G19G11G16
  21033255.3524    1351565.75547   1045150.55763
  22811104.352    -5055374.874 6  -3852113.02221
  20708564.6254   -1149626.87646   -885280.60162
  22916644.7664   -3217154.05246  -2446020.31061
  23997443.0394   -1310634.32145   -966927.00861
 91  4 22 20 28 44.9990000  0  5G18G 2G19G11G16
  21036866.9644    1370541.70147   1059936.94363
  22801147.519    -5107695.646 6  -3892882.32621
  20706491.9804   -1160534.44746   -893780.00962
  22911065.284    -3246477.436 6  -2468869.64421
  23991651.6834   -1341054.19744   -990630.84261
 91  4 22 20 28 59.9990000  0  5G18G 2G19G11G16
  21040495.9404    1389615.89747   1074799.88363
  22791199.620    -5159966.410 6  -3933612.65621
  20704423.2144   -1171404.70546   -902250.34762
  22905508.5344   -3275675.96846  -2491621.68861
  23985888.683    -1371356.314 5  -1014242.85221
 91  4 22 20 29 14.9990000  0  5G18G 2G19G11G16
  21044145.1204    1408787.45647   1089738.69263
  22781263.956    -5212182.941 6  -3974300.72021
  20702362.2924   -1182236.27246   -910690.53062
  22899976.6124   -3304746.92246  -2514274.31361
  23980144.9874   -1401538.19445  -1037761.19461
 91  4 22 20 29 29.9990000  0  5G18G 2G19G11G16
  21047811.472     1428055.689 7   1104752.82923
  22771338.112    -5264345.842 6  -4014947.00521
  20700306.5264   -1193029.87346   -919101.13062
  22894467.9724   -3333690.63846  -2536827.80761
  23974424.081    -1431600.258 5  -1061186.18921
 91  4 22 20 29 44.9990000  0  5G18G 2G19G11G16
  21051496.862     1447420.877 7   1119842.51223
  22761421.323    -5316454.466 6  -4055550.99321
  20698261.4954   -1203784.87346   -927481.65462
  22888984.1904   -3362506.45346  -2559281.63161
  23968728.464    -1461542.030 5  -1084517.44221
 91  4 22 20 29 59.9990000  0  5G18G 2G19G11G16
  21055200.019     1466882.117 7   1135007.04323
  22751515.815    -5368509.472 6  -4096113.20121
  20696220.3234   -1214501.92446   -935832.61062
  22883525.6674   -3391194.86846  -2581636.18361
  23963052.3004   -1491363.95345  -1107755.32161
 91  4 22 20 30 14.9990000  0  5G18G 2G19G11G16
  21058920.644     1486435.141 7   1150243.09323
  22741618.9094   -5420514.84346  -4136636.73561
  20694190.0264   -1225185.13346   -944157.18962
  22878089.745    -3419759.752 6  -2603894.47721
  23957396.972    -1521070.306 5  -1130903.13421
 91  4 22 20 30 29.9990000  0  5G18G 2G19G11G16
  21062659.980     1506082.366 7   1165552.54523
  22731733.151    -5472467.784 6  -4177119.40921
  20692163.1514   -1235831.91746   -952453.39162
  22872677.776    -3448198.277 6  -2626054.32421
  23951769.6754   -1550658.18745  -1153958.63761
 91  4 22 20 30 44.9990000  0  5G18G 2G19G11G16
  21066416.339     1525827.073 7   1180937.96123
  22721857.300    -5524365.104 6  -4217558.74621
  20690146.1124   -1246439.13546   -960718.76362
  22867291.065    -3476506.894 6  -2648112.93521
  23946162.487    -1580124.228 5  -1176919.20621
 91  4 22 20 30 59.9990000  0  5G18G 2G19G11G16
  21070192.362     1545665.248 7   1196396.20423
  22711992.7764   -5576210.34646  -4257957.50661
  20688132.8944   -1257010.18046   -968955.94662
  22861928.769    -3504689.098 6  -2670073.03721
  23940572.370    -1609471.766 5  -1199787.43721
 91  4 22 20 31 14.9990000  0  5G18G 2G19G11G16
  21073986.808     1565603.938 7   1211932.77223
  22702137.308    -5627996.344 6  -4298310.10121
  20686129.9874   -1267537.98246   -977159.43262
  22856589.456    -3532737.545 6  -2691928.91921
  23935018.1754   -1638694.05245  -1222558.03161
 91  4 22 20 31 29.9990000  0  5G18G 2G19G11G16
  21077798.917     1585637.366 7   1227543.16223
  22692292.503    -5679728.653 6  -4338620.85821
  20684131.0894   -1278028.35846   -985333.75662
  22851277.284    -3560657.748 6  -2713684.87021
  23929478.9804   -1667796.48645  -1245235.27361
 91  4 22 20 31 44.9990000  0  5G18G 2G19G11G16
  21081629.4014    1605767.83147   1243229.16763
  22682460.019    -5731404.738 6  -4378887.80421
  20682144.4804   -1288478.53046   -993476.74962
  22845990.175    -3588446.898 6  -2735338.70521
  23923964.4174   -1696776.44745  -1267817.07661
 91  4 22 20 31 59.9990000  0  5G18G 2G19G11G16
  21085479.0654    1625995.18347   1258990.67163
  22672635.9804   -5783024.49346  -4419110.86261
  20680164.2614   -1298888.57646  -1001588.47962
  22840726.847    -3616105.050 6  -2756890.46921
  23918470.3314   -1725634.12245  -1290303.56361
 91  4 22 20 32 14.9990000  0  5G18G 2G19G11G16
  21089346.386     1646316.353 7   1274825.27723
  22662823.5894   -5834590.74746  -4459292.22861
  20678190.5194   -1309261.60846  -1009671.36662
  22835486.315    -3643634.834 6  -2778342.20121
  23913000.3704   -1754372.23945  -1312696.92761
 91  4 22 20 32 29.9990000  0  5G18G 2G19G11G16
  21093232.355     1666737.146 7   1290737.50723
  22653021.5654   -5886097.25346  -4499427.04161
  20676222.2614   -1319591.22146  -1017720.42162
  22830273.440    -3671029.970 6  -2799689.01621
  23907563.2304   -1782984.39845  -1334992.11561
 91  4 22 20 32 44.9990000  0  5G18G 2G19G11G16
  21097134.597     1687246.510 7   1306718.75423
  22643229.0734   -5937554.72746  -4539523.64561
  20674264.3004   -1329888.27346  -1025744.10062
  22825083.9174   -3698301.02346  -2820939.14461
  23902136.933    -1811481.533 5  -1357197.71021
 91  4 22 20 32 59.9990000  0  5G18G 2G19G11G16
  21101055.519     1707850.179 7   1322773.48623
  22633447.753    -5988957.237 6  -4579577.41921
  20672311.5504   -1340146.93846  -1033737.87162
  22819919.1674   -3725441.87346  -2842087.82161
  23896736.605    -1839857.554 5  -1379308.90721
 91  4 22 20 33 14.9990000  0  5G18G 2G19G11G16
  21104995.659     1728552.143 7   1338904.81523
  22623676.8394   -6040300.69646  -4619585.17961
  20670368.9644   -1350363.05746  -1041698.49262
  22814780.605    -3752448.241 6  -2863131.70021
  23891357.3784   -1868108.60745  -1401322.71261
 91  4 22 20 33 29.9990000  0  5G18G 2G19G11G16
  21108952.167     1749347.456 7   1355108.88223
  22613917.5114   -6091589.91046  -4659550.67561
  20668428.9724   -1360541.39646  -1049629.66862
  22809666.4954   -3779324.84246  -2884074.46661
  23886003.675    -1896239.076 5  -1423242.55021
 91  4 22 20 33 44.9990000  0  5G18G 2G19G11G16
  21112927.690     1770237.735 7   1371386.94523
  22604168.2614   -6142822.67646  -4699472.17961
  20666502.2064   -1370680.20246  -1057530.04162
  22804576.440    -3806069.462 6  -2904914.38721
  23880675.4954   -1924247.34445  -1445067.19261
 91  4 22 20 33 59.9990000  0  5G18G 2G19G11G16
  21116921.151     1791223.693 7   1387739.56223
  22594430.386    -6193997.929 6  -4739348.87421
  20664580.5424   -1380778.41146  -1065398.78262
  22799512.8624   -3832680.95046  -2925650.57561
  23875368.2304   -1952132.11145  -1466795.59961
 91  4 22 20 34 14.9990000  0  6G18G 2G19G11G16G 6
  21120932.230     1812300.301 7   1404162.81723
  22584702.0584   -6245120.59846  -4779184.59761
  20662666.8234   -1390840.90446  -1073239.69262
  22794473.4094   -3859164.13246  -2946286.79361
  23870087.894    -1979898.472 5  -1488431.73321
  24256198.6904          0.00054
 91  4 22 20 34 29.9990000  0  6G18G 2G19G11G16G 6
  21124961.065     1833468.926 7   1420657.77323
  22574983.073    -6296189.122 6  -4818978.12121
  20660756.4644   -1400866.08146  -1081051.51962
  22789458.9254   -3885517.36946  -2966821.74661
  23864826.558    -2007544.839 5  -1509974.33621
  24247445.9954     -45986.78644
 91  4 22 20 34 44.9990000  0  6G18G 2G19G11G16G 6
  21129007.847     1854737.457 7   1437230.57623
  22565277.2064   -6347195.09746  -4858722.91461
  20658859.2064   -1410845.81946  -1088827.94662
  22784469.5194   -3911732.27246  -2987248.90461
  23859586.534    -2035062.967 5  -1531417.06121
  24238690.6054     -91967.35244
 91  4 22 20 34 59.9990000  0  6G18G 2G19G11G16G 6
  21133072.987     1876099.897 7   1453876.55623
  22555582.8784   -6398144.37846  -4898423.53161
  20656966.6514   -1420786.01846  -1096573.56362
  22779506.3864   -3937814.45146  -3007572.64561
  23854375.839    -2062458.849 5  -1552764.51321
  24229946.8944    -137947.44344
 91  4 22 20 35 14.9990000  0  6G18G 2G19G11G16G 6
  21137156.831     1897555.200 7   1470594.89723
  22545898.183    -6449038.026 6  -4938080.79521
  20655084.3084   -1430687.51946  -1104289.02762
  22774567.8784   -3963764.77046  -3027793.63061
  23849186.5584   -2089733.06045  -1574017.13561
  24221196.4564    -183928.07244
 91  4 22 20 35 29.9990000  0  6G18G 2G19G11G16G 6
  21141257.472     1919110.667 7   1487391.28923
  22536224.1124   -6499868.23246  -4977688.62461
  20653205.8154   -1440542.80746  -1111968.47662
  22769656.4174   -3989575.43046  -3047905.79861
  23844020.636    -2116877.700 5  -1595168.82921
  24212445.2304    -229901.90944        -0.10771
 91  4 22 20 35 44.9990000  0  6G18G 2G19G11G16G 6
  21145377.878     1940759.888 7   1504260.73423
  22526561.5894   -6550641.26046  -5017251.90361
  20651341.3624   -1450357.92246  -1119616.62562
  22764770.0424   -4015252.37046  -3067913.76661
  23838878.7924   -2143899.40845  -1616224.69561
  24203698.6364    -275875.21044    -35823.29361
 91  4 22 20 35 59.9990000  0  6G18G 2G19G11G16G 6
  21149514.948     1962499.521 7   1521200.63223
  22516910.3944   -6601359.80546  -5056772.72761
  20649477.4724   -1460135.86146  -1127235.79962
  22759909.651    -4040798.529 6  -3087819.82121
  23833760.6904   -2170800.98445  -1637186.97661
  24194949.2924    -321850.86343    -71648.32061
 91  4 22 20 36 14.9990000  0  6G18G 2G19G11G16G 6
  21153670.120     1984338.178 7   1538217.69023
  22507270.730    -6652015.321 6  -5096244.44221
  20647628.2694   -1469868.02546  -1134819.30962
  22755074.245    -4066205.182 6  -3107617.17321
  23828664.9484   -2197573.86945  -1658048.96761
  24186200.339     -367820.676 3   -107468.76921
 91  4 22 20 36 29.9990000  0  6G18G 2G19G11G16G 6
  21157844.128     2006271.534 7   1555308.53923
  22497643.2454   -6702612.06546  -5135670.35561
  20645781.9014   -1479558.72646  -1142370.51262
  22750265.370    -4091476.383 6  -3127308.97721
  23823592.8704   -2224222.27545  -1678813.95861
  24177452.0424    -413788.77243   -143287.85861
 91  4 22 20 36 44.9990000  0  6G18G 2G19G11G16G 6
  21162035.440     2028296.567 7   1572470.82523
  22488025.019    -6753152.513 6  -5175052.41021
  20643948.4334   -1489210.68546  -1149891.52462
  22745482.4404   -4116614.61246  -3146897.17261
  23818545.347    -2250748.874 5  -1699484.05021
  24168706.901     -459757.676 4   -179107.63321
 91  4 22 20 36 59.9990000  0  6G18G 2G19G11G16G 6
  21166244.995     2050418.715 7   1589708.78323
  22478418.5654   -6803630.90546  -5214386.10261
  20642117.9874   -1498818.15346  -1157377.86362
  22740724.6054   -4141614.15446  -3166377.28861
  23813524.6054   -2277147.86545  -1720054.67561
  24159961.8864    -505722.16443   -214923.94361
 91  4 22 20 37 14.9990000  0  6G18G 2G19G11G16G 6
  21170471.901     2072630.527 7   1607016.61023
  22468823.823    -6854054.723 6  -5253677.27421
  20640297.6754   -1508388.44746  -1164835.23762
  22735991.9724   -4166482.09846  -3185754.87261
  23808518.3704   -2303426.69945  -1740531.70461
  24151211.097     -551689.543 3   -250742.52821
 91  4 22 20 37 29.9990000  0  6G18G 2G19G11G16G 6
  21174716.464     2094934.579 7   1624396.31523
  22459239.8154   -6904421.02346  -5292923.62061
  20638483.6514   -1517918.87446  -1172261.54762
  22731284.6904   -4191215.48046  -3205027.60461
  23803543.2374   -2329582.49745  -1760912.85261
  24142462.5654    -597656.94043   -286561.07861
 91  4 22 20 37 44.9990000  0  6G18G 2G19G11G16G 6
  21178977.940     2117330.825 7   1641847.85923
  22449665.2924   -6954729.35946  -5332124.80261
  20636678.4484   -1527408.86846  -1179656.35262
  22726605.190    -4215813.807 6  -3224195.09121
  23798591.6754   -2355614.62645  -1781197.64961
  24133717.269     -643624.324 4   -322379.64221
 91  4 22 20 37 59.9990000  0  6G18G 2G19G11G16G 6
  21183256.933     2139815.539 7   1659368.33323
  22440100.448    -7004983.266 6  -5371283.58821
  20634878.0504   -1536862.05646  -1187022.47262
  22721949.3704   -4240280.61046  -3243260.09761
  23793657.230    -2381526.921 5  -1801389.04821
  24124971.5734    -689595.25944   -358200.96861
 91  4 22 20 38 14.9990000  0  6G18G 2G19G11G16G 6
  21187553.620     2162394.202 7   1676962.02123
  22430551.7144   -7055177.05946  -5410395.51661
  20633087.6754   -1546272.82246  -1194355.54362
  22717319.3154   -4264610.13246  -3262218.12461
  23788751.347    -2407313.764 5  -1821482.70121
  24116222.245     -735564.253 3   -394020.81521
 91  4 22 20 38 29.9990000  0  6G18G 2G19G11G16G 6
  21191868.065     2185066.685 7   1694628.81123
  22421010.0814   -7105310.53846  -5449460.44761
  20631304.3084   -1555641.00246  -1201655.42162
  22712715.339    -4288801.929 6  -3281068.83621
  23783869.581    -2432975.146 5  -1841478.58121
  24107472.4644    -781530.99844   -429838.91061
 91  4 22 20 38 44.9990000  0  6G18G 2G19G11G16G 6
  21196199.972     2207830.759 7   1712366.96923
  22411481.448    -7155385.464 6  -5488479.75421
  20629532.8234   -1564968.54646  -1208923.64262
  22708137.8234   -4312857.88046  -3299813.69661
  23779010.753    -2458512.459 5  -1861377.80721
  24098725.2144    -827497.64544   -465656.92561
 91  4 22 20 38 59.9990000  0  6G18G 2G19G11G16G 6
  21200549.847     2230689.231 7   1730178.68623
  22401964.276    -7205399.276 6  -5527451.44521
  20627763.5734   -1574252.80246  -1216158.13162
  22703586.2764   -4336775.10646  -3318450.46161
  23774176.3004   -2483923.32845  -1881178.47061
  24089980.948     -873461.689 4   -501472.87121
 91  4 22 20 39 14.9990000  0  6G18G 2G19G11G16G 6
  21204917.378     2253640.319 7   1748062.56823
  22392459.050    -7255353.309 6  -5566376.55121
  20626005.6674   -1583495.17446  -1223359.98462
  22699060.222    -4360555.027 6  -3336980.22921
  23769361.526    -2509209.104 5  -1900881.70221
  24081232.1754    -919424.52644   -537287.88861
 91  4 22 20 39 29.9990000  0  6G18G 2G19G11G16G 6
  21209303.011     2276683.654 7   1766018.33723
  22382963.4174   -7305247.45346  -5605254.99161
  20624254.8154   -1592695.46346  -1230529.04562
  22694561.7454   -4384197.41746  -3355402.82761
  23764578.573    -2534369.757 5  -1920487.39721
  24072485.565     -965386.350 4   -573102.16021
 91  4 22 20 39 44.9990000  0  6G18G 2G19G11G16G 6
  21213705.206     2299817.635 7   1784044.73523
  22373479.917    -7355083.123 6  -5644087.86721
  20622512.4644   -1601855.24046  -1237666.53662
  22690088.315    -4407703.696 6  -3373719.36721
  23759812.675    -2559406.758 5  -1939996.77621
  24063740.2694   -1011348.59344   -608916.73661
 91  4 22 20 39 59.9990000  0  6G18G 2G19G11G16G 6
  21218124.761     2323044.838 7   1802143.77523
  22364007.605    -7404857.540 6  -5682873.01721
  20620776.3394   -1610971.79147  -1244770.34462
  22685641.8004   -4431070.96446  -3391927.59261
  23755065.8554   -2584317.36045  -1959407.63461
  24054994.769    -1057308.574 4   -644729.55621
 91  4 22 20 40 14.9990000  0  6G18G 2G19G11G16G 6
  21222563.019     2346364.670 7   1820314.99323
  22354548.784    -7454571.024 6  -5721610.67821
  20619050.2064   -1620045.48346  -1251840.75462
  22681221.8624   -4454299.41346  -3410027.63961
  23750353.8394   -2609102.04645  -1978720.37761
  24046247.112    -1103266.879 4   -680541.04821
 91  4 22 20 40 29.9990000  0  6G18G 2G19G11G16G 6
  21227018.089     2369777.627 7   1838558.77323
  22345100.433    -7504222.889 6  -5760300.33621
  20617330.0654   -1629075.58247  -1258877.20162
  22676828.370    -4477388.254 6  -3428018.90621
  23745664.214    -2633760.013 5  -1997934.39221
  24037503.870    -1149222.752 4   -716350.67021
 91  4 22 20 40 44.9990000  0  6G18G 2G19G11G16G 6
  21231490.628     2393280.317 7   1856872.47823
  22335662.870    -7553816.187 6  -5798944.34821
  20615622.8704   -1638065.20346  -1265882.10462
  22672461.245    -4500340.570 6  -3445903.79121
  23740996.5264   -2658294.50645  -2017052.19461
  24028758.8314   -1195179.48144   -752160.95161
 91  4 22 20 40 59.9990000  0  6G18G 2G19G11G16G 6
  21235980.089     2416871.608 7   1875255.21823
  22326235.839    -7603351.846 6  -5837543.45321
  20613916.1514   -1647015.41347  -1272856.29662
  22668118.2304   -4523157.05546  -3463682.84061
  23736349.011    -2682706.391 5  -2036074.45621
  24020012.5114   -1241138.17844   -787972.78861
 91  4 22 20 41 14.9990000  0  6G18G 2G19G11G16G 6
  21240486.448     2440553.188 7   1893708.32423
  22316820.401    -7652827.664 6  -5876095.93221
  20612223.5264   -1655924.03846  -1279798.08562
  22663803.0264   -4545835.51446  -3481354.33261
  23731725.1594   -2706993.49045  -2054999.47861
  24011268.386    -1287096.720 4   -823784.47321
 91  4 22 20 41 29.9990000  0  6G18G 2G19G11G16G 6
  21245009.761     2464324.009 7   1912230.95423
  22307416.550    -7702244.764 6  -5914602.65221
  20610535.6444   -1664792.09146  -1286708.26462
  22659514.4874   -4568376.88546  -3498919.00461
  23727127.9254   -2731156.71145  -2073827.97061
  24002520.9174   -1333056.16944   -859596.89561
 91  4 22 20 41 44.9990000  0  6G18G 2G19G11G16G 6
  21249551.628     2488190.813 7   1930828.38523
  22298024.948    -7751595.632 6  -5953057.76221
  20608857.2844   -1673612.11646  -1293581.01062
  22655251.9174   -4590773.75246  -3516371.07761
  23722552.1904   -2755189.03845  -2092554.46261
  23993777.2924   -1379009.43144   -895404.46161
 91  4 22 20 41 59.9990000  0  6G18G 2G19G11G16G 6
  21254111.026     2512153.710 7   1949500.69223
  22288647.261    -7800880.422 6  -5991461.38522
  20607186.4954   -1682384.44547  -1300416.59862
  22651017.7844   -4613026.15346  -3533710.57561
  23718004.144    -2779090.333 5  -2111178.85821
  23985033.019    -1424956.652 4   -931207.34221
 91  4 22 20 42 14.9990000  0  6G18G 2G19G11G16G 6
  21258687.933     2536206.155 7   1968242.78123
  22279281.4564   -7850105.19446  -6029818.23062
  20605526.7064   -1691115.16946  -1307219.76162
  22646810.0114   -4635140.05146  -3550942.14561
  23713481.0734   -2802866.85245  -2129706.01961
  23976287.886    -1470903.997 4   -967010.32321
 91  4 22 20 42 29.9990000  0  6G18G 2G19G11G16G 6
  21263282.730     2560351.423 7   1987057.19523
  22269924.472    -7899266.279 6  -6068125.45822
  20603871.6674   -1699800.58847  -1313987.62362
  22642628.1984   -4657111.75346  -3568062.91761
  23708982.839    -2826514.928 5  -2148133.10721
  23967545.4404   -1516848.02644  -1002810.71361
 91  4 22 20 42 44.9990000  0  6G18G 2G19G11G16G 6
  21267895.136     2584587.319 7   2005942.23123
  22260581.456    -7948365.753 6  -6106384.68021
  20602229.9564   -1708442.78746  -1320721.81462
  22638474.3084   -4678943.17846  -3585074.38661
  23704503.7304   -2850036.81745  -2166461.86461
  23958800.995    -1562790.876 4  -1038610.13921
 91  4 22 20 42 59.9990000  0  6G18G 2G19G11G16G 6
  21272523.753     2608912.381 7   2024896.74223
  22251249.480    -7997404.520 6  -6144596.59621
  20600593.8084   -1717042.86046  -1327423.17662
  22634345.7374   -4700635.35946  -3601977.35761
  23700054.300    -2873433.723 5  -2184693.22121
  23950058.933    -1608733.808 4  -1074409.68421
 91  4 22 20 43 14.9990000  0  6G18G 2G19G11G16G 6
  21277171.339     2633328.256 7   2043922.02123
  22241929.347    -8046380.938 6  -6182759.92622
  20598964.2844   -1725598.91446  -1334090.23462
  22630244.6834   -4722186.39646  -3618770.34061
  23695628.2764   -2896703.87045  -2202825.81661
  23941317.1754   -1654674.94144  -1110207.84061
 91  4 22 20 43 29.9990000  0  6G18G 2G19G11G16G 6
  21281834.409     2657834.265 7   2063017.53023
  22232620.558    -8095295.365 6  -6220874.95422
  20597344.6284   -1734111.42546  -1340723.36562
  22626170.1364   -4743596.56546  -3635453.55661
  23691226.2924   -2919847.62245  -2220859.93161
  23932573.5504   -1700614.83944  -1146005.02261
 91  4 22 20 43 44.9990000  0  6G18G 2G19G11G16G 6
  21286514.808     2682428.078 7   2082181.46022
  22223326.878    -8144149.922 6  -6258943.33122
  20595732.2454   -1742582.57046  -1347324.26762
  22622122.0344   -4764868.02346  -3652028.68761
  23686843.6124   -2942866.98945  -2238797.10561
  23923832.214    -1746555.769 4  -1181803.01421
 91  4 22 20 43 59.9990000  0  6G18G 2G19G11G16G 6
  21291212.159     2707116.281 7   2101418.94223
  22214040.925    -8192937.669 6  -6296959.65022
  20594127.4484   -1751005.43847  -1353887.54662
  22618101.9874   -4785993.79946  -3668490.29461
  23682484.808    -2965755.170 5  -2256632.06321
  23915091.4644   -1792491.02344  -1217596.54961
 91  4 22 20 44 14.9990000  0  6G18G 2G19G11G16G 6
  21295928.480     2731895.913 7   2120727.66722
  22204768.058    -8241661.451 6  -6334926.12222
  20592535.6124   -1759382.95046  -1360415.48662
  22614108.4094   -4806976.63546  -3684840.52361
  23678149.3624   -2988514.90845  -2274366.93361
  23906354.7844   -1838423.47644  -1253387.92461
 91  4 22 20 44 29.9990000  0  6G18G 2G19G11G16G 6
  21300660.128     2756764.414 7   2140105.64323
  22195507.378    -8290323.363 6  -6372844.38522
  20590950.2844   -1767717.16646  -1366909.68862
  22610143.2844   -4827818.59346  -3701080.98261
  23673845.1754   -3011148.39945  -2292003.44761
  23897610.917    -1884355.281 5  -1289178.80821
 91  4 22 20 44 44.9990000  0  6G18G 2G19G11G16G 6
  21305409.331     2781722.262 7   2159553.23623
  22186259.870    -8338922.799 6  -6410713.96622
  20589371.9404   -1776007.49946  -1373369.69462
  22606204.190    -4848518.998 6  -3717211.14021
  23669563.4334   -3033655.33745  -2309541.32461
  23888870.253    -1930286.055 4  -1324968.87121
 91  4 22 20 44 59.9990000  0  6G18G 2G19G11G16G 6
  21310175.940     2806768.277 7   2179069.53322
  22177023.808    -8387460.701 6  -6448535.59822
  20587800.7924   -1784254.93847  -1379796.27662
  22602291.9254   -4869078.71146  -3733231.66861
  23665307.542    -3056036.722 5  -2326981.38621
  23880129.120    -1976216.958 4  -1360759.04121
 91  4 22 20 45 14.9990000  0  6G18G 2G19G11G16G 6
  21314959.386     2831905.235 7   2198656.69022
  22167799.534    -8435933.667 6  -6486306.63022
  20586242.0504   -1792456.20846  -1386186.88662
  22598406.5894   -4889494.32746  -3749139.90361
  23661073.144    -3078289.574 5  -2344321.29321
  23871391.237    -2022144.455 4  -1396546.53821
 91  4 22 20 45 29.9990000  0  6G18G 2G19G11G16G 6
  21319760.448     2857132.796 7   2218314.44923
  22158587.347    -8484341.689 6  -6524027.06322
  20584688.3554   -1800611.25947  -1392541.48162
  22594548.7304   -4909765.84846  -3764935.86861
  23656858.620    -3100413.747 5  -2361560.92121
  23862650.487    -2068068.963 4  -1432331.72421
 91  4 22 20 45 44.9990000  0  6G18G 2G19G11G16G 6
  21324577.581     2882450.415 7   2238042.38122
  22149388.878    -8532685.227 6  -6561697.24122
  20583146.8784   -1808720.66046  -1398860.50662
  22590719.5344   -4929893.57246  -3780619.78761
  23652673.112    -3122409.457 5  -2378700.45621
  23853910.4644   -2113990.87744  -1468114.88861
 91  4 22 20 45 59.9990000  0  6G18G 2G19G11G16G 6
  21329411.651     2907855.013 7   2257838.08622
  22140200.683    -8580967.291 6  -6599319.52422
  20581610.8084   -1816787.36946  -1405146.26362
  22586916.7144   -4949880.36646  -3796193.87961
  23648512.558    -3144279.478 5  -2395742.06021
  23845171.5424   -2159913.24644  -1503898.41861
 91  4 22 20 46 14.9990000  0  6G18G 2G19G11G16G 6
  21334263.565     2933346.438 7   2277701.45422
  22131024.394    -8629187.772 6  -6636893.81822
  20580085.2144   -1824811.15746  -1411398.57062
  22583139.1124   -4969725.99246  -3811657.97361
  23644375.245    -3166023.921 5  -2412685.79921
  23836433.980    -2205836.026 4  -1539682.24821
 91  4 22 20 46 29.9990000  0  6G18G 2G19G11G16G 6
  21339132.0974    2958928.59147   2297635.51462
  22121860.370    -8677342.181 6  -6674416.62422
  20578568.0974   -1832787.67446  -1417614.04762
  22579391.5974   -4989426.07446  -3827008.65361
  23640260.839    -3187638.987 5  -2429528.73021
  23827697.8004   -2251754.92444  -1575463.04561
 91  4 22 20 46 44.9990000  0  6G18G 2G19G11G16G 6
  21344017.573     2984600.482 7   2317639.50122
  22112709.190    -8725431.634 6  -6711888.81822
  20577058.956    -1840717.972 6  -1423793.50722
  22575669.526    -5008981.642 6  -3842246.73921
  23636171.1594   -3209125.13245  -2446271.19961
  23818959.409    -2297671.121 4  -1611241.78421
 91  4 22 20 46 59.9990000  0  6G18G 2G19G11G16G 6
  21348918.581     3010360.041 7   2337711.80222
  22103569.644    -8773457.959 6  -6749311.82722
  20575555.6674   -1848604.06946  -1429938.53262
  22571975.7534   -5028394.48546  -3857373.59561
  23632107.581    -3230484.698 5  -2462915.05221
  23810219.5584   -2343586.62644  -1647019.94361
 91  4 22 20 47 14.9990000  0  6G18G 2G19G11G16G 6
  21353838.0114    3036209.61747   2357854.24362
  22094443.6834   -8821417.98046  -6786683.17262
  20574066.2844   -1856442.88346  -1436046.70862
  22568308.0424   -5047661.51646  -3872386.83961
  23628069.6284   -3251714.68345  -2479457.91361
  23801482.394    -2389498.545 4  -1682795.32221
 91  4 22 20 47 29.9990000  0  6G18G 2G19G11G16G 6
  21358773.425     3062146.688 7   2378064.86222
  22085329.237    -8869314.276 6  -6824004.85922
  20572582.7924   -1864236.75646  -1442119.86562
  22564669.7064   -5066785.25546  -3887288.42361
  23624049.9954   -3272817.59945  -2495901.78161
  23792747.8084   -2435409.33344  -1718569.80861
 91  4 22 20 47 44.9990000  0  6G18G 2G19G11G16G 6
  21363726.2614    3088171.82047   2398344.10162
  22076226.909    -8917145.940 6  -6861276.18122
  20571108.6674   -1871984.95046  -1448157.42862
  22561058.3004   -5085764.71546  -3902077.57961
  23620057.105    -3293792.481 5  -2512245.85521
  23784011.2764   -2481318.30844  -1754342.87361
 91  4 22 20 47 59.9990000  0  6G18G 2G19G11G16G 6
  21368696.5424    3114291.07447   2418696.67762
  22067138.151    -8964906.592 6  -6898492.17422
  20569641.644    -1879681.054 6  -1454154.39823
  22557474.6364   -5104593.35046  -3916749.21561
  23616098.8084   -3314632.96245  -2528485.23961
  23775273.7534   -2527219.06244  -1790109.55561
 91  4 22 20 48 14.9990000  0  6G18G 2G19G11G16G 6
  21373683.8154    3140498.16747   2439117.69462
  22058061.675    -9012602.341 6  -6935657.59022
  20568187.9094   -1887331.15046  -1460115.52062
  22553919.339    -5123277.270 6  -3931308.09021
  23612155.042    -3335345.271 5  -2544624.73921
  23766539.6284   -2573117.89244  -1825874.72261
 91  4 22 20 48 29.9990000  0  6G18G 2G19G11G16G 6
  21378686.9644    3166790.26247   2459604.95062
  22048998.3624   -9060235.59346  -6972774.31062
  20566738.3394   -1894937.98647  -1466042.92562
  22550391.1834   -5141819.13546  -3945756.26561
  23608239.409    -3355932.204 5  -2560666.52921
  23757807.073    -2619017.566 4  -1861640.54421
 91  4 22 20 48 44.9990000  0  6G18G 2G19G11G16G 6
  21383707.0734    3193170.47847   2480160.87462
  22039946.0114   -9107803.17246  -7009839.86062
  20565302.3624   -1902498.05546  -1471933.89862
  22546889.769    -5160215.441 6  -3960091.02421
  23604347.8944   -3376390.63345  -2576608.19061
  23749074.386    -2664914.642 4  -1897404.36721
 91  4 22 20 48 59.9990000  0  6G18G 2G19G11G16G 6
  21388743.8154    3219638.00847   2500784.83462
  22030906.2374   -9155305.58546  -7046854.63162
  20563869.8234   -1910011.84946  -1477788.80862
  22543416.7374   -5178466.63246  -3974312.70361
  23600476.8944   -3396720.95145  -2592450.03461
  23740342.480    -2710809.811 4  -1933166.67721
 91  4 22 20 49 14.9990000  0  6G18G 2G19G11G16G 6
  21393797.3624    3246196.00747   2521479.28262
  22021879.0894   -9202739.23246  -7083815.82062
  20562452.6054   -1917475.88546  -1483604.94762
  22539971.425    -5196569.189 6  -3988418.57221
  23596630.4644   -3416919.50945  -2608189.21461
  23731608.7144   -2756699.57644  -1968924.76561
 91  4 22 20 49 29.9990000  0  6G18G 2G19G11G16G 6
  21398868.1054    3272843.12147   2542243.17362
  22012866.2534   -9250105.15746  -7120724.23762
  20561037.7764   -1924891.24346  -1489383.15662
  22536556.151    -5214524.144 6  -4002409.42021
  23592813.9404   -3436987.54545  -2623826.68561
  23722875.019    -2802585.182 5  -2004679.64121
 91  4 22 20 49 44.9990000  0  6G18G 2G19G11G16G 6
  21403956.1444    3299576.88147   2563074.57962
  22003865.5344   -9297405.60046  -7157581.63262
  20559638.7064   -1932260.04146  -1495125.07662
  22533166.401    -5232333.637 6  -4016286.92121
  23589017.7144   -3456927.51445  -2639364.35061
  23714141.659    -2848468.890 4  -2040433.03721
 91  4 22 20 49 59.9990000  0  6G18G 2G19G11G16G 6
  21409059.3704    3326395.81147   2583972.35362
  21994876.3314   -9344641.95846  -7194389.08562
  20558242.9014   -1939583.59546  -1500831.75062
  22529805.026    -5249998.801 6  -4030051.95821
  23585248.5814   -3476740.37045  -2654802.96461
  23705410.370    -2894352.086 4  -2076186.02321
 91  4 22 20 50 14.9990000  0  6G18G 2G19G11G16G 6
  21414179.4254    3353303.94047   2604939.63262
  21985901.128    -9391809.994 6  -7231143.30122
  20556859.2924   -1946857.82646  -1506499.98462
  22526471.620    -5267515.412 6  -4043701.24021
  23581502.0344   -3496422.08545  -2670139.40561
  23696680.3084   -2940230.67245  -2111935.41161
 91  4 22 20 50 29.9990000  0  6G18G 2G19G11G16G 6
  21419316.5894    3380301.50247   2625976.59962
  21976939.4404   -9438909.16046  -7267843.85562
  20555483.5584   -1954082.24746  -1512129.40662
  22523167.839    -5284883.112 6  -4057234.48521
  23577780.2064   -3515972.42645  -2685373.47361
  23687952.386    -2986104.357 5  -2147680.98021
 91  4 22 20 50 44.9990000  0  6G18G 2G19G11G16G 6
  21424472.4254    3407391.39447   2647085.51262
  21967989.1204   -9485936.11746  -7304488.14462
  20554121.1364   -1961253.43946  -1517717.35062
  22519890.815    -5302098.407 6  -4070648.97521
  23574089.4484   -3535388.32745  -2700502.77861
  23679227.9094   -3031969.80345  -2183420.13061
 91  4 22 20 50 59.9990000  0  6G18G 2G19G11G16G 6
  21429644.5034    3434565.84547   2668260.31462
  21959052.5114   -9532898.42646  -7341082.05462
  20552762.7144   -1968378.91746  -1523269.67462
  22516642.190    -5319168.845 6  -4083950.59221
  23570418.308    -3554677.339 5  -2715533.21921
  23670497.065    -3077834.559 4  -2219158.75421
 91  4 22 20 51 14.9990000  0  6G18G 2G19G11G16G 6
  21434830.4014    3461824.53947   2689500.75962
  21950129.4484   -9579796.24746  -7377625.71862
  20551418.2614   -1975458.97446  -1528786.60463
  22513420.612    -5336094.682 6  -4097139.53221
  23566771.4254   -3573839.60045  -2730464.88761
  23661767.761    -3123699.135 5  -2254897.24621
 91  4 22 20 51 29.9990000  0  6G18G 2G19G11G16G 6
  21440034.3004    3489170.47847   2710809.18662
  21941215.7374   -9626625.96446  -7414116.31662
  20550078.0114   -1982490.03846  -1534265.35662
  22510228.284    -5352872.162 6  -4110212.87021
  23563147.9254   -3592871.65445  -2745295.10361
  23653042.745    -3169559.781 5  -2290632.67521
 91  4 22 20 51 44.9990000  0  6G18G 2G19G11G16G 6
  21445254.0424    3516598.02347   2732181.20562
  21932316.0974   -9673393.00146  -7450558.06462
  20548750.2764   -1989477.65646  -1539710.25662
  22507062.120    -5369506.794 6  -4123174.89521
  23559552.065    -3611778.895 5  -2760028.07021
  23644312.8314   -3215422.29545  -2326369.56561
 91  4 22 20 51 59.9990000  0  6G18G 2G19G11G16G 6
  21450490.4404    3544117.37047   2753624.75962
  21923432.4564   -9720086.88046  -7486942.80662
  20547430.5734   -1996411.31946  -1545113.11262
  22503926.136    -5385988.078 6  -4136017.43021
  23555981.120    -3630550.859 5  -2774655.59921
  23635587.878    -3261276.107 5  -2362099.68721
 91  4 22 20 52 14.9990000  0  6G18G 2G19G11G16G 6
  21455744.8154    3571732.21547   2775142.72262
  21914560.6834   -9766703.70146  -7523267.50962
  20546122.5264   -2003286.93146  -1550470.73562
  22500821.4484   -5402311.95446  -4148737.30461
  23552435.769    -3649183.746 5  -2789174.77221
  23626863.7764   -3307117.45645  -2397820.07161
 91  4 22 20 52 29.9990000  0  6G18G 2G19G11G16G 6
  21461016.8004    3599435.86747   2796729.88562
  21905702.4484   -9813249.88246  -7559537.16562
  20544821.6834   -2010111.05046  -1555788.23362
  22497743.7224   -5418484.88346  -4161339.55761
  23548915.0584   -3667684.28945  -2803590.81961
  23618140.7534   -3352952.95845  -2433535.92061
 91  4 22 20 52 44.9990000  0  6G18G 2G19G11G16G 6
  21466306.2764    3627227.41647   2818385.54362
  21896858.7454   -9859726.28446  -7595752.44562
  20543534.9094   -2016884.23846  -1561066.04462
  22494693.1284   -5434507.57946  -4173824.74761
  23545416.323    -3686053.308 5  -2817904.38221
  23609421.8704   -3398783.30945  -2469247.75361
 91  4 22 20 52 59.9990000  0  6G18G 2G19G11G16G 6
  21471610.964     3655106.106 7   2840109.09522
  21888026.3314   -9906133.17346  -7631913.56362
  20542252.7144   -2023606.87146  -1566304.46263
  22491674.370    -5450380.369 6  -4186193.13121
  23541943.425    -3704291.187 5  -2832115.74821
  23600701.503    -3444609.000 5  -2504955.96021
 91  4 22 20 53 14.9990000  0  6G18G 2G19G11G16G 6
  21476933.5264    3683075.81647   2861903.57662
  21879209.9724   -9952466.24646  -7668017.15962
  20540986.6364   -2030274.77246  -1571500.23563
  22488683.3704   -5466099.03446  -4198441.41761
  23538506.9954   -3722393.71645  -2846221.64661
  23591982.8084   -3490425.77545  -2540657.22761
 91  4 22 20 53 29.9990000  0  6G18G 2G19G11G16G 6
  21482274.3154    3711137.54447   2883769.75862
  21870407.6204   -9998724.44246  -7704062.40762
  20539725.4174   -2036886.82946  -1576652.48863
  22485720.0034   -5481662.47146  -4210568.74261
  23535083.8784   -3740359.96545  -2860221.36961
  23583264.7534   -3536232.68345  -2576350.78861
 91  4 22 20 53 44.9990000  0  6G18G 2G19G11G16G 6
  21487629.886     3739282.882 7   2905701.08922
  21861617.6124  -10044915.67546  -7740055.48362
  20538480.6364   -2043451.04646  -1581767.46562
  22482786.9804   -5497078.52846  -4222581.22161
  23531688.042    -3758198.027 5  -2874121.19221
  23574547.2614   -3582037.80545  -2612042.99161
 91  4 22 20 53 59.9990000  0  6G18G 2G19G11G16G 6
  21493002.753     3767520.433 7   2927704.27622
  21852840.8554  -10091031.25246  -7775989.60462
  20537241.8864   -2049958.68146  -1586838.35763
  22479884.4644   -5512338.50646  -4234472.08961
  23528322.4484   -3775899.08945  -2887914.26061
  23565833.1754   -3627832.41345  -2647726.96661
 91  4 22 20 54 14.9990000  0  6G18G 2G19G11G16G 6
  21498393.167     3795847.235 7   2949777.00722
  21844079.7924  -10137073.57246  -7811866.63662
  20536012.5114   -2056412.14846  -1591867.03662
  22477009.331    -5527444.868 6  -4246243.25121
  23524975.972    -3793465.748 5  -2901602.61721
  23557119.714    -3673619.076 5  -2683404.77721
 91  4 22 20 54 29.9990000  0  6G18G 2G19G11G16G 6
  21503800.050     3824260.571 7   2971917.16622
  21835333.2844  -10183045.48046  -7847688.81062
  20534793.1594   -2062814.19446  -1596855.65163
  22474161.300    -5542400.382 6  -4257896.87621
  23521661.058    -3810900.959 5  -2915188.52421
  23548408.112    -3719400.609 5  -2719078.57321
 91  4 22 20 54 44.9990000  0  6G18G 2G19G11G16G 6
  21509223.565     3852758.555 7   2994123.28522
  21826597.6984  -10228948.56546
  20533585.7064   -2069166.33146  -1601805.37462
  22471345.8234   -5557206.63946  -4269434.18661
  23518366.3314   -3828206.59545  -2928673.48361
  23539696.5424   -3765178.78645
 91  4 22 20 54 59.9990000  0  6G18G 2G19G11G16G 6
  21514662.7694    3881342.38947   3016396.29962
  21817876.1904  -10274780.99846
  20532385.5654   -2075466.85546  -1606714.87862
  22468555.0734   -5571861.83146  -4280853.79461
  23515103.636    -3845380.827 5  -2942056.04821
  23530988.4254   -3810951.82045
 91  4 22 20 55 14.9990000  0  6G18G 2G19G11G16G 6
  21520118.909     3910011.778 7   3038735.97522
  21809166.9724  -10320542.85646
  20531197.7534   -2081716.01746  -1611584.36662
  22465796.261    -5586366.023 6  -4292155.73621
  23511855.081    -3862423.836 5  -2955336.36521
  23522275.2844   -3856719.94545
 91  4 22 20 55 29.9990000  0  6G18G 2G19G11G16G 6
  21525592.120     3938770.775 7   3061145.47722
  21800473.7694  -10366230.11246  -7990429.69862
  20530019.6754   -2087909.54246  -1616410.49563
  22463066.3784   -5600715.19846  -4303336.88361
  23508639.5654   -3879331.49245  -2968511.19161
  23513571.597    -3902479.094 5  -2861736.63921
 91  4 22 20 55 44.9990000  0  6G18G 2G19G11G16G 6
  21531081.987     3967619.441 7   3083624.84522
  21791794.0034  -10411842.23446  -8025971.51462
  20528850.8864   -2094047.06846  -1621192.99162
  22460363.698    -5614908.827 6  -4314396.82521
  23505448.2224   -3896103.33445  -2981580.21361
  23504861.5974   -3948228.95545  -2897385.79361
 91  4 22 20 55 59.9990000  0  6G18G 2G19G11G16G 6
  21536588.800     3996555.376 7   3106172.22722
  21783128.276   -10457381.347 6  -8061456.43922
  20527694.4094   -2100130.58246  -1625933.40262
  22457691.940    -5628948.923 6  -4325337.13221
  23502279.784    -3912741.537 5  -2994545.10621
  23496160.3624   -3993971.68945  -2933029.34661
 91  4 22 20 56 14.9990000  0  6G18G 2G19G11G16G 6
  21542111.761     4025578.268 7   3128787.36222
  21774475.8234  -10502847.42446  -8096884.45862
  20526547.1514   -2106160.14046  -1630631.76563
  22455048.839    -5642835.535 6  -4336157.84321
  23499139.3474   -3929246.42945  -3007406.09061
  23487457.2924   -4039707.37145  -2968667.42161
 91  4 22 20 56 29.9990000  0  6G18G 2G19G11G16G 6
  21547651.362     4054692.716 7   3151473.83722
  21765839.0654  -10548235.70546  -8132251.85062
  20525407.7374   -2112130.98746  -1635284.38262
  22452435.7764   -5656563.88246  -4346855.22261
  23496023.292    -3945613.320 5  -3020159.57021
  23478759.355    -4085431.216 5  -3004296.26521
 91  4 22 20 56 44.9990000  0  6G18G 2G19G11G16G 6
  21553209.370     4083898.908 7   3174231.80322
  21757216.2534  -10593545.55846  -8167558.12762
  20524286.1444   -2118042.32946  -1639890.63162
  22449854.4334   -5670133.35446  -4357428.80461
  23492935.644    -3961841.655 5  -3032805.06021
  23470054.4874   -4131142.75845  -3039915.51561
 91  4 22 20 56 59.9990000  0  6G18G 2G19G11G16G 6
  21558784.401     4113199.310 7   3197063.17622
  21748609.4804  -10638774.19246  -8202801.12262
  20523172.6904   -2123891.74746  -1644448.63163
  22447303.987    -5683541.268 6  -4367876.50521
  23489878.5114   -3977928.87845  -3045340.59861
  23461359.948    -4176839.478 5  -3075523.25421
 91  4 22 20 57 14.9990000  0  6G18G 2G19G11G16G 6
  21564377.480     4142595.778 7   3219969.41222
  21740019.8004  -10683919.64846  -8237979.30762
  20522072.1674   -2129676.76746  -1648956.44863
  22444783.3864   -5696785.55946  -4378196.70361
  23486842.5504   -3993872.58445  -3057764.30661
  23452667.8154   -4222519.23145  -3111117.74061
 91  4 22 20 57 29.9990000  0  6G18G 2G19G11G16G 6
  21569990.136     4172088.951 7   3242951.00122
  21731443.3784  -10728980.90946  -8273091.88162
  20520980.5734   -2135396.63946  -1653413.49863
  22442295.3554   -5709865.10446  -4388388.52461
  23483841.753    -4009672.184 5  -3070075.72421
  23443976.2224   -4268180.95245  -3146698.18861
 91  4 22 20 57 44.9990000  0  6G18G 2G19G11G16G 6
  21575626.120     4201698.105 7   3266022.95722
  21722888.0734  -10773938.63646  -8308123.78062
  20519910.7064   -2141031.92946  -1657804.64563
  22439840.8084   -5722760.56546  -4398436.91061
  23480863.675    -4025308.361 5  -3082259.80121
  23435298.0734   -4313805.53645  -3182249.68161
 91  4 22 20 57 59.9990000  0  6G18G 2G19G11G16G 6
  21581283.0264    4231426.06547   3289187.49862
  21714353.7064  -10818789.69246  -8343072.56062
  20518853.8864   -2146579.57846  -1662127.49662
  22437420.956    -5735468.977 6  -4408339.54821
  23477917.3084   -4040778.44245  -3094314.45861
  23426618.870    -4359389.992 5  -3217769.90321
 91  4 22 20 58 14.9980000  0  6G18G 2G19G11G16G 6
  21586959.748     4261256.695 7   3312432.02822
  21705836.3264  -10863544.62846  -8377946.44262
  20517812.1234   -2152052.66146  -1666392.24863
  22435038.490    -5748003.033 6  -4418106.32221
  23475001.709    -4056094.848 5  -3106249.34821
  23417952.9364   -4404944.75445  -3253266.99661
 91  4 22 20 58 29.9980000  0  6G18G 2G19G11G16G 6
  21592663.748     4291224.939 7   3335783.79422
  21697341.9204  -10908178.31146  -8412725.84162
  20516790.8034   -2157420.65846  -1670575.11463
  22432690.1154   -5760333.05046  -4427714.10761
  23472125.959    -4071228.611 5  -3118041.93521
  23409293.240    -4450444.929 5  -3288721.52821
 91  4 22 20 58 44.9980000  0  6G18G 2G19G11G16G 6
  21598403.826     4321395.013 7   3359292.83722
  21688885.5614  -10952621.39646  -8447356.72362
  20515803.9044   -2162617.00346  -1674624.22263
  22430397.803    -5772391.937 6  -4437110.61921
  23469292.084    -4086112.693 5  -3129639.95521
  23400658.0684   -4495821.22445  -3324079.55561
 91  4 22 20 58 59.9980000  0  6G18G 2G19G11G16G 6
  21604164.475     4351660.385 7   3382876.13622
  21680444.2644  -10996980.08546  -8481921.84062
  20514826.998    -2167747.669 6  -1678622.15723
  22428132.248    -5784285.966 6  -4446378.67321
  23466484.568    -4100853.150 5  -3141126.07221
  23392027.037    -4541179.790 5  -3359423.75121
 91  4 22 20 59 14.9980000  0  6G18G 2G19G11G16G 6
  21609941.123     4382026.197 7   3406537.70022
  21672021.6234  -11041248.74146  -8516416.80162
  20513865.1314   -2172807.12146  -1682564.59663
  22425900.709    -5796009.697 6  -4455514.03021
  23463709.7174   -4115444.73445  -3152496.17061
  23383398.4754   -4586515.22745  -3394749.90661
 91  4 22 20 59 29.9980000  0  6G18G 2G19G11G16G 6
  21615737.967     4412489.396 6   3430275.14822
  21663612.9124  -11085430.75446  -8550844.25462
  20512911.897    -2177798.711 6  -1686454.15822
  22423703.7094   -5807566.35646  -4464519.19161
  23460958.053    -4129890.663 5  -3163752.79221
  23374778.3814   -4631830.91545  -3430060.71461
 91  4 22 20 59 44.9980000  0  6G18G 2G19G11G16G 6
  21621551.389     4443044.962 6   3454084.57322
  21655220.6314  -11129530.37947  -8585207.50162
  20511976.217    -2182726.781 6  -1690294.22622
  22421535.1544   -5818960.23146  -4473397.51461
  23458235.3654   -4144195.51045  -3174899.46861
  23366158.897    -4677131.086 5  -3465359.40721
 91  4 22 20 59 59.9980000  0  6G18G 2G19G11G16G 6
  21627384.350     4473691.547 7   3477964.91222
  21646843.5454  -11173548.81846  -8619507.49162
  20511050.186    -2187592.457 6  -1694085.67122
  22419396.740    -5830192.422 6  -4482149.85021
  23455539.0684   -4158360.26245  -3185936.96461
  23357539.0294   -4722417.01545  -3500647.01761
 91  4 22 21  0 14.9980000  0  6G18G 2G19G11G16G 6
  21633234.443     4504425.857 7   3501913.61522
  21638482.6154  -11217488.84446  -8653746.38162
  20510137.1234   -2192398.60446  -1697830.73262
  22417289.959    -5841266.008 6  -4490778.60721
  23452870.8654   -4172387.92545  -3196867.66961
  23348925.0534   -4767691.76945  -3535925.92561
 91  4 22 21  0 29.9980000  0  6G18G 2G19G11G16G 6
  21639099.311     4535245.323 7   3525928.67422
  21630134.8504  -11261352.83146  -8687926.01862
  20509230.553    -2197147.723 6  -1701531.35422
  22415212.576    -5852183.286 6  -4499285.55521
  23450229.7404   -4186281.30545  -3207693.70661
  23340307.623    -4812957.666 5  -3571197.90421
 91  4 22 21  0 44.9980000  0  6G18G 2G19G11G16G 6
  21644980.529     4566154.706 7   3550013.79422
  21621804.7724  -11305135.89547  -8722042.60262
  20508341.514    -2201834.614 6  -1705183.49422
  22413165.482    -5862939.309 6  -4507666.85521
  23447608.9364   -4200035.51645  -3218411.31261
  23331696.4204   -4858209.85445  -3606459.21961
 91  4 22 21  0 59.9980000  0  6G18G 2G19G11G16G 6
  21650877.9754    4597148.63146   3574164.79662
  21613487.4364  -11348842.94047  -8756099.94962
  20507456.631    -2206463.979 6  -1708790.80222
  22411147.7724   -5873538.92546  -4515926.28361
  23445019.0294   -4213655.36945  -3229024.24061
  23323085.1394   -4903453.26845  -3641713.69161
 91  4 22 21  1 14.9980000  0  6G18G 2G19G11G16G 6
  21656792.748     4628232.542 6   3598385.91722
  21605185.8814  -11392468.36347  -8790093.69062
  20506589.272    -2211030.317 6  -1712349.00322
  22409162.951    -5883976.695 6  -4524059.58621
  23442451.693    -4227135.358 5  -3239528.18021
  23314478.8424   -4948682.41645  -3676957.05161
 91  4 22 21  1 29.9980000  0  6G18G 2G19G11G16G 6
  21662723.279     4659400.758 6   3622672.72022
  21596897.9044  -11436017.51147  -8824028.00162
  20505730.107    -2215539.188 6  -1715862.43023
  22407206.201    -5894258.064 6  -4532071.03421
  23439917.240    -4240481.376 5  -3249927.70021
  23305875.920    -4993902.742 5  -3712193.52921
 91  4 22 21  1 44.9980000  0  6G18G 2G19G11G16G 6
  21668671.920     4690656.293 6   3647027.57722
  21588626.5684  -11479487.34247  -8857900.50162
  20504887.0614   -2219987.42146  -1719328.59262
  22405277.897    -5904379.819 6  -4539958.09821
  23437401.295    -4253690.126 5  -3260220.30621
  23297274.9364   -5039111.16845  -3747420.71961
 91  4 22 21  1 59.9980000  0  6G18G 2G19G11G16G 6
  21674637.631     4722000.108 6   3671451.21022
  21580368.3504  -11522876.29847  -8891709.98762
  20504048.186    -2224373.403 6  -1722746.25222
  22403385.623    -5914340.396 6  -4547719.57221
  23434915.3114   -4266759.98045  -3270404.65261
  23288677.522    -5084306.216 5  -3782637.51821
 91  4 22 21  2 14.9980000  0  6G18G 2G19G11G16G 6
  21680618.6234    4753431.60246   3695943.16962
  21572127.6154  -11566184.72447  -8925456.72562
  20503229.889    -2228697.531 6  -1726115.71822
  22401518.107    -5924140.301 6  -4555355.84321
  23432453.4904   -4279691.79645  -3280481.42661
  23280076.373    -5129488.299 5  -3817844.19821
 91  4 22 21  2 29.9980000  0  6G18G 2G19G11G16G 6
  21686615.4674    4784945.81446   3720499.59062
  21563900.8344  -11609417.49847  -8959144.50662
  20502414.2794   -2232964.68347  -1729440.77962
  22399685.350    -5933784.458 6  -4562870.75621
  23430017.545    -4292490.805 5  -3290454.72721
  23271478.623    -5174662.456 5  -3853044.71021
 91  4 22 21  2 44.9980000  0  6G18G 2G19G11G16G 6
  21692627.014     4816538.600 6   3745117.23422
  21555688.0374  -11652578.31146  -8992776.21862
  20501615.951    -2237178.488 7  -1732724.27722
  22397877.506    -5943276.647 6  -4570267.24221
  23427600.631    -4305160.579 5  -3300327.33721
  23262881.740    -5219832.384 5  -3888241.92021
 91  4 22 21  2 59.9980000  0  6G18G 2G19G11G16G 6
  21698653.647     4848208.786 6   3769795.18522
  21547487.6394  -11695668.16347  -9026352.64162
  20500820.912    -2241339.632 7  -1735966.74122
  22396100.732    -5952617.771 6  -4577546.03021
  23425221.2724   -4317701.94945  -3310099.85461
  23254288.9204   -5264999.02245  -3923436.59161
 91  4 22 21  3 14.9980000  0  6G18G 2G19G11G16G 6
  21704695.537     4879955.667 6   3794532.90122
  21539301.8654  -11738687.40847  -9059874.03862
  20500040.373    -2245448.575 6  -1739168.52722
  22394351.311    -5961808.145 6  -4584707.34721
  23422859.014    -4330115.667 5  -3319772.94221
  23245694.0144   -5310162.84545  -3958629.04761
 91  4 22 21  3 29.9980000  0  6G18G 2G19G11G16G 6
  21710753.467     4911784.258 6   3819334.28422
  21531128.9904  -11781630.79947  -9093336.33562
  20499269.326    -2249500.008 7  -1742325.50122
  22392630.678    -5970842.641 6  -4591747.18821
  23420522.404    -4342396.629 5  -3329342.58121
  23237101.6864   -5355318.60145  -3993815.22461
 91  4 22 21  3 44.9980000  0  6G18G 2G19G11G16G 6
  21716825.3344    4943691.33846   3844196.82962
  21522971.1474  -11824501.00947  -9126741.60162
  20498510.201    -2253496.610 7  -1745439.74722
  22390940.475    -5979723.873 6  -4598667.61021
  23418205.397    -4354547.356 5  -3338810.70721
  23228508.357    -5400469.003 5  -4028997.22921
 91  4 22 21  3 59.9980000  0  6G18G 2G19G11G16G 6
  21722911.4674    4975677.42546   3869120.93762
  21514826.7174  -11867297.39747  -9160089.34862
  20497758.451    -2257438.055 7  -1748511.01622
  22389280.2644   -5988451.44346  -4605468.29461
  23415918.436    -4366567.504 5  -3348177.10921
  23219918.811    -5445613.695 5  -4064174.79121
 91  4 22 21  4 14.9980000  0  6G18G 2G19G11G16G 6
  21729014.045     5007746.795 6   3894109.94822
  21506698.0684  -11910015.63147  -9193376.19362
  20497021.8344   -2261319.73047  -1751535.70862
  22387650.248    -5997020.924 6  -4612145.79121
  23413662.326    -4378453.030 5  -3357438.58221
  23211328.5534   -5490748.21545  -4099344.42061
 91  4 22 21  4 29.9980000  0  6G18G 2G19G11G16G 6
  21735131.1154    5039893.66646   3919159.33862
  21498582.4434  -11952660.98847  -9226606.25462
  20496293.701    -2265147.094 6  -1754518.08822
  22386048.803    -6005437.705 6  -4618704.29821
  23411424.639    -4390209.447 5  -3366599.47721
  23202741.709    -5535878.003 5  -4134510.35921
 91  4 22 21  4 44.9980000  0  6G18G 2G19G11G16G 6
  21741263.826     5072120.186 6   3944270.79822
  21490482.1544  -11995231.15347  -9259777.72362
  20495576.404    -2268917.648 7  -1757456.19422
  22384476.287    -6013699.430 6  -4625141.98121
  23409206.4364   -4401834.36845  -3375657.91361
  23194153.529    -5581000.695 5  -4169670.79921
 91  4 22 21  4 59.9980000  0  6G18G 2G19G11G16G 6
  21747411.6474    5104421.10646   3969440.22862
  21482394.998   -12037731.168 7  -9292894.53322
  20494866.381    -2272636.271 7  -1760353.83823
  22382931.443    -6021811.058 6  -4631462.70721
  23407019.4204   -4413333.04445  -3384617.96061
  23185567.4124   -5626121.26145  -4204829.55561
 91  4 22 21  5 14.9980000  0  6G18G 2G19G11G16G 6
  21753571.5064    5136798.65346   3994669.37362
  21474320.615   -12080158.090 7  -9325954.38522
  20494169.9434   -2276300.01146  -1763208.71163
  22381417.936    -6029769.848 6  -4637664.33721
  23404860.209    -4424702.661 5  -3393477.43021
  23176983.998    -5671237.122 5  -4239984.63821
 91  4 22 21  5 29.9980000  0  6G18G 2G19G11G16G 6
  21759747.139     5169247.747 6   4019954.26222
  21466260.154   -12122517.014 7  -9358961.25122
  20493479.9754   -2279913.81247  -1766024.66163
  22379932.8344   -6037580.86646  -4643750.81561
  23402716.4434   -4435948.37145  -3402240.38661
  23168399.350    -5716353.102 5  -4275139.84321
 91  4 22 21  5 44.9980000  0  6G18G 2G19G11G16G 6
  21765938.3184    5201777.55446   4045302.04762
  21458213.459   -12164798.387 7  -9391907.69422
  20492807.740    -2283468.265 6  -1768794.37723
  22378474.8114   -6045234.69946  -4649714.80861
  23400603.6784   -4447060.64345  -3410899.34261
  23159813.982    -5761459.863 5  -4310287.85621
 91  4 22 21  5 59.9980000  0  6G18G 2G19G11G16G 6
  21772141.8814    5234382.01146   4070707.99562
  21450182.615   -12207008.086 7  -9424798.28522
  20492137.842    -2286969.213 7  -1771522.40423
  22377048.9124   -6052737.20146  -4655560.88461
  23398515.139    -4458045.696 5  -3419459.15521
  23151228.779    -5806563.309 5  -4345433.28221
 91  4 22 21  6 14.9980000  0  6G18G 2G19G11G16G 6
  21778362.1394    5267066.75146   4096176.50662
  21442165.311   -12249140.311 7  -9457628.50922
  20491485.740    -2290410.838 6  -1774204.20223
  22375650.2954   -6060082.66046  -4661284.59461
  23396446.8114   -4468897.69845  -3427915.33161
  23142650.623    -5851657.698 5  -4380571.65621
 91  4 22 21  6 29.9980000  0  6G18G 2G19G11G16G 6
  21784596.4984    5299828.28146   4121704.85762
  21434161.998   -12291198.035 7  -9490400.68022
  20490840.787    -2293796.186 6  -1776842.15323
  22374280.4364   -6067274.23146  -4666888.38661
  23394410.1704   -4479620.19445  -3436270.57861
  23134067.1474   -5896746.15745  -4415705.39361
 91  4 22 21  6 44.9980000  0  6G18G 2G19G11G16G 6
  21790842.795     5332660.662 6   4147288.41222
  21426171.420   -12333187.242 7  -9523119.46422
  20490207.318    -2297130.998 6  -1779440.72023
  22372940.7094   -6074317.80546  -4672376.85161
  23392389.842    -4490218.639 5  -3444529.15621
  23125488.600    -5941834.490 5  -4450839.05721
 91  4 22 21  6 59.9980000  0  6G18G 2G19G11G16G 6
  21797106.3574    5365568.50946   4172930.76362
  21418195.584   -12375102.691 7  -9555780.77322
  20489579.272    -2300409.998 6  -1781995.80723
  22371631.232    -6081208.207 6  -4677745.97021
  23390403.1544   -4500688.50745  -3452687.55661
  23116908.5374   -5986917.53845  -4485968.58161
 91  4 22 21  7 14.9980000  0  6G18G 2G19G11G16G 6
  21803384.0764    5398551.89746   4198631.98762
  21410232.076   -12416944.118 7  -9588384.40322
  20488969.029    -2303632.919 6  -1784507.18723
  22370347.7174   -6087945.16346  -4682995.51361
  23388429.0144   -4511029.39345  -3460745.44461
  23108329.537    -6031995.164 5  -4521093.89221
 91  4 22 21  7 29.9980000  0  6G18G 2G19G11G16G 6
  21809673.2404    5431609.78246   4224391.25462
  21402285.217   -12458712.502 7  -9620931.12022
  20488365.998    -2306800.680 7  -1786975.58823
  22369093.9674   -6094529.77646  -4688126.35261
  23386487.0454   -4521242.56245  -3468703.80461
  23099757.342    -6077068.292 5  -4556215.70021
 91  4 22 21  7 44.9980000  0  6G18G 2G19G11G16G 6
  21815976.6314    5464739.27146   4250206.32462
  21394349.553   -12500410.420 7  -9653422.92722
  20487774.147    -2309915.910 6  -1789403.05023
  22367870.4284   -6100964.73846  -4693140.57661
  23384572.256    -4531330.679 5  -3476564.72721
  23091180.818    -6122139.576 5  -4591336.07621
 91  4 22 21  7 59.9980000  0  6G18G 2G19G11G16G 6
  21822295.443     5497943.950 6   4276079.98122
  21386428.4594  -12542033.72047  -9685856.59862
  20487192.428    -2312974.476 6  -1791786.36123
  22366675.5064   -6107245.78047  -4698034.86661
  23382670.6784   -4541289.74845  -3484325.09661
  23082603.928    -6167204.956 5  -4626451.84521
 91  4 22 21  8 14.9980000  0  6G18G 2G19G11G16G 6
  21828629.2174    5531220.83346   4302009.89262
  21378522.014   -12583585.473 7  -9718234.50922
  20486620.975    -2315979.143 6  -1794127.67523
  22365507.9434   -6113375.92646  -4702811.57461
  23380804.318    -4551122.774 5  -3491987.24521
  23074025.240    -6212267.289 5  -4661565.23921
 91  4 22 21  8 29.9980000  0  6G18G 2G19G11G16G 6
  21834975.8574    5564571.76746   4327997.51161
  21370628.436   -12625063.138 7  -9750554.69322
  20486058.467    -2318927.550 6  -1796425.14923
  22364370.576    -6119353.001 6  -4707469.01021
  23378956.3344   -4560827.43945  -3499549.38361
  23065453.998    -6257324.278 5  -4696674.47121
 91  4 22 21  8 44.9980000  0  6G18G 2G19G11G16G 6
  21841336.334     5598000.105 6   4354045.44121
  21362750.256   -12666463.336 7  -9782814.51522
  20485509.912    -2321816.379 6  -1798676.19623
  22363263.6234   -6125173.72246  -4712004.61061
  23377136.2254   -4570400.81145  -3507009.21161
  23056877.943    -6302372.716 5  -4731777.03621
 91  4 22 21  8 59.9980000  0  6G18G 2G19G11G16G 6
  21847711.1784    5631502.61246   4380151.17461
  21354887.029   -12707788.712 7  -9815016.03222
  20484968.584    -2324648.208 7  -1800882.83023
  22362183.3344   -6130840.71046  -4716420.41261
  23375338.443    -4579845.668 5  -3514368.90521
  23048308.959    -6347415.206 5  -4766874.97021
 91  4 22 21  9 14.9980000  0  6G18G 2G19G11G16G 6
  21854101.061     5665071.319 6   4406308.48221
  21347034.248   -12749047.413 7  -9847165.59722
  20484441.357    -2327430.878 6  -1803051.15523
  22361133.7644   -6136362.02446  -4720722.71061
  23373561.803    -4589169.973 5  -3521634.64221
  23039736.732    -6392459.828 5  -4801974.57221
 91  4 22 21  9 29.9980000  0  6G18G 2G19G11G16G 6
  21860504.8894    5698716.32246   4432525.23261
  21339199.482   -12790229.069 7  -9879255.12722
  20483922.459    -2330154.097 6  -1805173.15523
  22360114.092    -6141727.422 6  -4724903.51521
  23371815.1004   -4598363.65645  -3528798.62061
  23031167.248    -6437496.223 5  -4837067.76021
 91  4 22 21  9 44.9980000  0  6G18G 2G19G11G16G 6
  21866918.834     5732430.376 6   4458795.80221
  21331374.8034  -12831340.31747  -9911289.79662
  20483415.311    -2332824.410 6  -1807253.93123
  22359120.9984   -6146943.60847  -4728968.05161
  23370087.7404   -4607433.53045  -3535866.09761
  23022595.647    -6482531.110 5  -4872159.76821
 91  4 22 21  9 59.9980000  0  6G18G 2G19G11G16G 6
  21873346.1784    5766212.40546   4485119.33461
  21323564.1784  -12872381.91547  -9943270.19462
  20482913.186    -2335442.592 6  -1809294.08523
  22358155.0534   -6152011.47546  -4732917.01361
  23368386.701    -4616380.756 5  -3542838.04421
  23014029.0374   -6527565.21845  -4907251.18261
 91  4 22 21 10 14.9980000  0  6G18G 2G19G11G16G 6
  21879788.5924    5800063.83046   4511496.93861
  21315767.6864  -12913352.45647  -9975195.21962
  20482427.803    -2338007.228 6  -1811292.51223
  22357219.686    -6156929.744 7  -4736749.40921
  23366707.9364   -4625203.87545  -3549713.23861
  23005457.1544   -6572597.36445  -4942341.06861
 91  4 22 21 10 29.9980000  0  6G18G 2G19G11G16G 6
  21886246.0454    5833985.12246   4537928.98062
  21307984.8184  -12954251.07947 -10007064.20663
  20481948.756    -2340517.311 6  -1813248.43423
  22356312.061    -6161697.399 6  -4740464.44421
  23365051.9364   -4633901.96345  -3556491.03261
  22996891.107    -6617626.469 5  -4977428.55721
 91  4 22 21 10 44.9980000  0  6G18G 2G19G11G16G 6
  21892714.6704    5867977.51846   4564416.41961
  21300216.4434  -12995076.13247 -10038875.86762
  20481484.803    -2342971.023 6  -1815160.42623
  22355433.584    -6166312.837 6  -4744060.87221
  23363422.826    -4642473.643 5  -3563170.32521
  22988321.717    -6662651.001 5  -5012512.51121
 91  4 22 21 10 59.9980000  0  6G18G 2G19G11G16G 6
  21899193.850     5902040.930 6   4590959.22121
  21292462.1934  -13035827.46347 -10070630.07962
  20481024.147    -2345368.408 6  -1817028.53323
  22354586.584    -6170776.080 7  -4747538.70421
  23361814.318    -4650918.710 5  -3569750.94821
  22979752.5294   -6707670.87245  -5047592.82361
 91  4 22 21 11 14.9980000  0  6G18G 2G19G11G16G 6
  21905689.9044    5936178.51646   4617559.79861
  21284722.7954  -13076501.72747 -10102324.24162
  20480581.897    -2347706.077 6  -1818850.10323
  22353764.951    -6175083.791 7  -4750895.33921
  23360232.4044   -4659234.28245  -3576230.68061
  22971188.8814   -6752682.64645  -5082666.83061
 91  4 22 21 11 29.9980000  0  6G18G 2G19G11G16G 6
  21912203.186     5970389.583 6   4644217.64321
  21276996.7324  -13117099.31047 -10133958.65462
  20480151.178    -2349984.348 6  -1820625.39423
  22352973.623    -6179236.514 6  -4754131.20921
  23358671.5844   -4667420.92045  -3582609.93361
  22962623.061    -6797686.792 5  -5117734.88621
 91  4 22 21 11 44.9980000  0  6G18G 2G19G11G16G 6
  21918726.982     6004670.304 6   4670929.75121
  21269284.428   -13157623.791 7 -10165536.10222
  20479727.928    -2352206.561 6  -1822356.99923
  22352213.8184   -6183237.76747  -4757249.04761
  23357140.8184   -4675482.12445  -3588891.46161
  22954062.850    -6842686.738 5  -5152799.69421
 91  4 22 21 11 59.9980000  0  6G18G 2G19G11G16G 6
  21925259.8974    6039016.67646   4697693.02161
  21261585.8654  -13198078.91547 -10197059.50862
  20479311.975    -2354376.524 6  -1824047.89423
  22351481.436    -6187091.351 6  -4760251.83121
  23355627.6864   -4683422.07745  -3595078.49261
  22945498.6474   -6887686.51145  -5187864.36061
 91  4 22 21 12 14.9980000  0  6G18G 2G19G11G16G 6
  21931809.1074    6073434.09146   4724511.66661
  21253901.7014  -13238459.11947 -10228524.53462
  20478910.3424   -2356488.96946  -1825693.96563
  22350776.576    -6190792.026 6  -4763135.46121
  23354139.8574   -4691235.13745  -3601166.64761
  22936936.9044   -6932680.62945  -5222924.59961
 91  4 22 21 12 29.9980000  0  6G18G 2G19G11G16G 6
  21938372.561     6107916.354 6   4751380.80721
  21246230.8034  -13278770.24147 -10259935.73362
  20478519.404    -2358549.327 6  -1827299.45523
  22350100.6314   -6194345.54146  -4765904.42861
  23352676.459    -4698927.371 5  -3607160.64621
  22928375.0294   -6977674.69745  -5257984.81461
 91  4 22 21 12 44.9980000  0  6G18G 2G19G11G16G 6
  21944946.6074    6142465.30246   4778301.93261
  21238574.201   -13319009.973 7 -10291291.29722
  20478137.943    -2360555.283 6  -1828862.55323
  22349451.9124   -6197749.71546  -4768557.02161
  23351235.8574   -4706496.95645  -3613059.09661
  22919811.4984   -7022666.63545  -5293043.38661
 91  4 22 21 12 59.9980000  0  6G18G 2G19G11G16G 6
  21951533.998     6177085.799 6   4805278.80921
  21230931.9434  -13359173.21447 -10322587.25862
  20477767.154    -2362501.463 6  -1830379.07123
  22348833.3114   -6200999.44546  -4771089.27661
  23349818.4284   -4713938.59645  -3618857.83361
  22911250.967    -7067651.214 5  -5328096.18421
 91  4 22 21 13 14.9980000  0  6G18G 2G19G11G16G 6
  21958133.920     6211768.431 6   4832304.10021
  21223300.8974  -13399269.27047 -10353830.87362
  20477406.131    -2364397.261 6  -1831856.33223
  22348242.6154   -6204104.23046  -4773508.58361
  23348426.764    -4721261.666 5  -3624564.18421
  22902688.506    -7112637.705 5  -5363150.51021
 91  4 22 21 13 29.9980000  0  6G18G 2G19G11G16G 6
  21964748.9044    6246520.87546   4859383.79261
  21215685.3034  -13439290.16747 -10385015.92062
  20477052.045    -2366234.640 6  -1833288.06723
  22347681.3814   -6207056.24646  -4775808.85261
  23347058.576    -4728458.678 5  -3630172.33221
  22894131.678    -7157618.268 5  -5398200.19621
 91  4 22 21 13 44.9980000  0  6G18G 2G19G11G16G 6
  21971375.4984    6281342.79946   4886517.60161
  21208083.3974  -13479235.90847 -10416142.40162
  20476719.092    -2368013.516 6  -1834674.22123
  22347148.3504   -6209855.33146  -4777989.95761
  23345714.928    -4735529.598 5  -3635682.17221
  22885571.100    -7202592.933 5  -5433245.29821
 91  4 22 21 13 59.9980000  0  6G18G 2G19G11G16G 6
  21978013.154     6316233.458 6   4913705.00921
  21200496.9984  -13519106.68147 -10447210.46662
  20476388.084    -2369734.278 6  -1836015.09123
  22346643.7724   -6212502.00846  -4780052.29661
  23344390.5374   -4742474.84645  -3641094.12361
  22877013.8344   -7247561.94945  -5468285.99661
 91  4 22 21 14 14.9980000  0  6G18G 2G19G11G16G 6
  21984666.506     6351186.601 6   4940941.06921
  21192923.4754  -13558908.61647 -10478224.89462
  20476072.818    -2371402.959 6  -1837315.37323
  22346169.1154   -6215002.41046  -4782000.66161
  23343089.1004   -4749300.68345  -3646413.01061
  22868457.9594   -7292531.32445  -5503326.97861
 91  4 22 21 14 29.9980000  0  6G18G 2G19G11G16G 6
  21991331.4044    6386209.18646   4968231.25961
  21185362.5064  -13598634.64347 -10509180.17362
  20475765.131    -2373012.435 6  -1838569.52623
  22345722.6234   -6217349.53146  -4783829.58661
  23341816.4984   -4756000.30845  -3651633.57161
  22859902.045    -7337494.097 5  -5538362.80921
 91  4 22 21 14 44.9980000  0  6G18G 2G19G11G16G 6
  21998008.193     6421297.851 6   4995572.93821
  21177817.8424  -13638287.62647 -10540078.53662
  20475472.568    -2374565.596 6  -1839779.79423
  22345303.8504   -6219546.51246  -4785541.51561
  23340566.256    -4762576.799 5  -3656758.17921
  22851343.639    -7382453.309 5  -5573395.87221
 91  4 22 21 14 59.9980000  0  6G18G 2G19G11G16G 6
  22004696.7954    6456453.09346   5022966.48861
  21170284.5764  -13677866.90647 -10570919.47062
  20475182.772    -2376061.694 6  -1840945.59723
  22344917.0224   -6221592.60746  -4787135.87761
  23339338.1234   -4769029.70145  -3661786.47061
  22842792.5294   -7427408.10645  -5608425.47761
 91  4 22 21 15 14.9980000  0  6G18G 2G19G11G16G 6
  22011400.8424    6491675.41646   5050412.31561
  21162766.6864  -13717371.59847 -10601702.28262
  20474913.787    -2377499.716 6  -1842066.14723
  22344553.6544   -6223487.03446  -4788612.05961
  23338135.389    -4775358.148 5  -3666717.78221
  22834236.3264   -7472357.59645  -5643450.96861
 91  4 22 21 15 29.9980000  0  6G18G 2G19G11G16G 6
  22018116.084     6526960.936 6   5077907.36721
  21155263.3424  -13756805.74947 -10632430.13062
  20474648.631    -2378883.268 6  -1843144.25223
  22344220.5374   -6225233.84046  -4789973.20061
  23336953.490    -4781566.419 5  -3671555.45221
  22825685.553    -7517305.807 5  -5678475.44721
 91  4 22 21 15 44.9980000  0  6G18G 2G19G11G16G 6
  22024841.732     6562311.317 6   5105452.99721
  21147772.8814  -13796167.21747 -10663101.34262
  20474397.404    -2380210.423 6  -1844178.41523
  22343917.9824   -6226830.87746  -4791217.65561
  23335794.529    -4787652.502 5  -3676297.92421
  22817130.318    -7562250.520 5  -5713497.20621
 91  4 22 21 15 59.9980000  0  6G18G 2G19G11G16G 6
  22031581.740     6597728.164 6   5133050.38621
  21140297.0924  -13835453.85147 -10693714.23662
  20474152.834    -2381479.011 6  -1845166.94023
  22343643.6234   -6228276.17146  -4792343.85761
  23334660.9044   -4793614.36645  -3680943.59761
  22808580.1074   -7607189.62345  -5748514.60261
 91  4 22 21 16 14.9980000  0  6G18G 2G19G11G16G 6
  22038333.967     6633206.177 6   5160695.45621
  21132834.5534  -13874670.80547 -10724272.84062
  20473923.264    -2382694.262 6
  22343397.0844   -6229575.18646
  23333547.100    -4799457.387 5  -3685496.66921
  22800027.709    -7652128.582 5  -5783531.86521
 91  4 22 21 16 29.9980000  0  6G18G 2G19G11G16G 6
  22045096.654     6668749.155 6   5188391.13621
  21125384.4594  -13913814.04047 -10754773.99762
  20473701.279    -2383851.896 6
  22343178.3034   -6230723.93046
  23332460.037    -4805177.695 5  -3689954.10321
  22791475.7874   -7697063.14245  -5818545.71161
 91  4 22 21 16 44.9980000  0  6G18G 2G19G11G16G 6
  22051872.6074    6704356.92746   5216137.31861
  21117950.9754  -13952883.28547 -10785217.50362
  20473493.662    -2384951.663 6  -1847872.94023
  22342988.8654   -6231722.09646  -4795029.01261
  23331394.670    -4810775.404 5  -3694316.02721
  22782928.076    -7741992.970 5  -5853555.87121
 91  4 22 21 16 59.9980000  0  6G18G 2G19G11G16G 6
  22058660.2874    6740024.67246   5243930.22361
  21110529.7874  -13991883.19447 -10815606.98262
  20473296.115    -2385997.991 6  -1848688.27823
  22342825.1544   -6232574.41546  -4795693.15761
  23330352.0144   -4816255.01645  -3698585.93261
  22774375.7174   -7786922.70045  -5888565.95061
 91  4 22 21 17 14.9980000  0  6G18G 2G19G11G16G 6
  22065461.1544    6775754.65946   5271771.61561
  21103121.0614  -14030811.12447 -10845940.37362
  20473109.2324   -2386988.24346  -1849459.91463
  22342692.5374   -6233278.43946  -4796241.75461
  23329330.0224   -4821614.08245  -3702761.87961
  22765826.2644   -7831849.76945  -5923573.95161
 91  4 22 21 17 29.9980000  0  6G18G 2G19G11G16G 6
  22072272.107     6811551.164 6   5299664.86721
  21095728.4204  -14069662.70747 -10876214.27262
  20472928.9204   -2387918.14546  -1850184.52363
  22342587.0294   -6233829.93846  -4796671.50261
  23328334.217    -4826848.653 5  -3706840.85521
  22757279.068    -7876769.934 5  -5958576.57021
 91  4 22 21 17 44.9980000  0  6G18G 2G19G11G16G 6
  22079094.8574    6847407.80246   5327604.95061
  21088349.2954  -14108444.09447 -10906433.47262
  20472763.0924   -2388793.90046  -1850866.93463
  22342511.8814   -6234235.21746  -4796987.30661
  23327362.5764   -4831964.92645  -3710827.62961
  22748729.107    -7921689.367 5  -5993578.62021
 91  4 22 21 17 59.9980000  0  6G18G 2G19G11G16G 6
  22085931.232     6883329.489 6   5355595.74121
  21080982.9434  -14147150.03447 -10936593.88862
  20472607.272    -2389609.863 6  -1851502.76123
  22342460.318    -6234488.992 6  -4797185.05821
  23326414.3114   -4836958.01445  -3714718.40261
  22740183.2644   -7966602.67445  -6028575.89161
 91  4 22 21 18 14.9980000  0  6G18G 2G19G11G16G 6
  22092778.4984    6919314.33646   5383635.72561
  21073632.6864  -14185781.90647 -10966696.58562
  20472464.3734   -2390367.55346  -1852093.17563
  22342441.9434   -6234592.81546
  23325484.4514   -4841829.44345  -3718514.40161
  22731636.975    -8011511.317 5  -6063569.54321
 91  4 22 21 18 29.9980000  0  6G18G 2G19G11G16G 6
  22099637.107     6955359.131 6   5411722.45721
  21066293.5534  -14224342.77647 -10996743.95862
  20472328.6394   -2391069.89846  -1852640.46663
  22342449.2644   -6234549.79746
  23324580.1474   -4846582.19445  -3722217.89461
  22723092.787    -8056418.294 5  -6098561.89421
 91  4 22 21 18 44.9980000  0  6G18G 2G19G11G16G 6
  22106508.662     6991462.717 6   5439854.95621
  21058968.107   -14262833.628 7 -11026736.77423
  20472206.178    -2391717.853 6  -1853145.37623
  22342484.217    -6234360.963 6
  23323701.6704   -4851217.63645  -3725830.01361
  22714547.397    -8101324.502 5  -6133553.63521
 91  4 22 21 18 59.9980000  0  6G18G 2G19G11G16G 6
  22113390.709     7027628.216 6   5468035.73321
  21051657.8734  -14301250.83547 -11056672.20263
  20472096.7954   -2392307.79246  -1853605.07563
  22342549.9204   -6234022.81046
  23322840.576    -4855732.458 5  -3729348.10921
  22706004.1624   -8146226.41745  -6168542.04161
 91  4 22 21 19 14.9980000  0  6G18G 2G19G11G16G 6
  22120283.568     7063852.919 6   5496262.62921
  21044361.3894  -14339597.20047 -11086552.43163
  20471992.3424   -2392842.35246  -1854021.62663
  22342642.7174   -6233538.16746  -4796444.17761
  23322003.162    -4860129.287 5  -3732774.27621
  22697459.4594   -8191126.71845  -6203529.19261
 91  4 22 21 19 29.9980000  0  6G18G 2G19G11G16G 6
  22127189.8814    7100143.16546   5524540.60561
  21037078.5764  -14377865.90147 -11116372.13862
  20471900.7954   -2393314.63046  -1854389.63963
  22342764.4434   -6232900.46246  -4795947.27161
  23321188.154    -4864401.586 5  -3736103.40721
  22688916.5534   -8236018.67745  -6238509.84761
 91  4 22 21 19 44.9980000  0  6G18G 2G19G11G16G 6
  22134108.178     7136493.528 6   5552865.41421
  21029810.2564  -14416061.92347 -11146135.21463
  20471825.6784   -2393729.62546  -1854713.02063
  22342912.9204   -6232114.89346  -4795335.14261
  23320399.8974   -4868554.74745  -3739339.71261
  22680374.9364   -8280907.27845  -6273487.86861
 91  4 22 21 19 59.9980000  0  6G18G 2G19G11G16G 6
  22141036.3654    7172909.13346   5581241.05761
  21022557.0454  -14454180.02947 -11175837.58063
  20471755.3344   -2394082.03047  -1854987.63063
  22343091.1934   -6231176.27246  -4794603.75461
  23319634.8034   -4872583.46545  -3742479.03961
  22671832.701    -8325787.335 5  -6308459.24121
 91  4 22 21 20 14.9980000  0  6G18G 2G19G11G16G 6
  22147978.436     7209387.053 6   5609665.27221
  21015317.311   -14492222.848 7 -11205481.28023
  20471704.3974   -2394374.54346  -1855215.56963
  22343298.2564   -6230087.41846  -4793755.30161
  23318891.7564   -4876490.75745  -3745523.78661
  22663295.3574   -8370661.47145  -6343426.00061
 91  4 22 21 20 29.9980000  0  6G18G 2G19G11G16G 6
  22154930.8504    7245922.67046   5638134.42761
  21008091.2954  -14530194.79647 -11235069.75063
  20471657.9904   -2394611.28746  -1855400.05363
  22343533.7794   -6228852.70246  -4792793.19061
  23318168.5454   -4880280.88545  -3748477.16861
  22654755.6394   -8415533.94045  -6378391.46461
 91  4 22 21 20 44.9980000  0  6G18G 2G19G11G16G 6
  22161895.201     7282518.191 6   5666650.27321
  21000878.5294  -14568093.39947 -11264601.07563
  20471624.0534   -2394789.61046  -1855539.01463
  22343796.3184   -6227469.68646  -4791715.51861
  23317472.389    -4883951.804 5  -3751337.66821
  22646216.8034   -8460402.22745  -6413353.66161
 91  4 22 21 20 59.9980000  0  6G18G 2G19G11G16G 6
  22168869.6784    7319170.03446   5695209.99861
  20993680.662   -14605922.046 7 -11294077.88523
  20471600.1544   -2394912.85546
  22344086.9824   -6225942.02246  -4790525.14161
  23316792.295    -4887507.014 5  -3754108.07421
  22637679.4124   -8505269.73545  -6448315.26961
 91  4 22 21 21 14.9980000  0  6G18G 2G19G11G16G 6
  22175854.764     7355878.806 6   5723814.09221
  20986495.967   -14643679.849 7 -11323499.49623
  20471589.5294   -2394980.02546
  22344406.2724   -6224268.95146  -4789221.45361
  23316137.3114   -4890945.88845  -3756787.77561
  22629143.5374   -8550135.55945  -6483275.54361
 91  4 22 21 21 29.9980000  0  6G18G 2G19G11G16G 6
  22182853.1934    7392648.05646   5752465.30061
  20979324.7404  -14681362.77647 -11352862.75363
  20471582.1934   -2394987.14847
  22344752.6314   -6222446.52146  -4787801.38661
  23315508.8034   -4894264.53245  -3759373.81361
  22620602.2014   -8594995.65145  -6518231.36361
 91  4 22 21 21 44.9980000  0  6G18G 2G19G11G16G 6
  22189859.8654    7429469.86046   5781157.46861
  20972167.4044  -14718978.50447 -11382173.65163
  20471593.2724   -2394941.86546
  22345128.7724   -6220482.54446  -4786271.01261
  23314898.498    -4897470.945 5  -3761872.37821
  22612067.5224   -8639857.69445  -6553188.71061
 91  4 22 21 21 59.9980000  0  6G18G 2G19G11G16G 6
  22196877.1314    7466351.90846   5809896.57561
  20965023.0684  -14756519.11547 -11411426.01463
  20471615.8264   -2394836.32546
  22345529.9674   -6218369.19646  -4784624.25261
  23314311.4984   -4900557.52245  -3764277.58461
  22603534.1394   -8684713.83145  -6588141.43761
 91  4 22 21 22 14.9980000  0  6G18G 2G19G11G16G 6
  22203908.9364    7503294.91446   5838683.18461
  20957893.1864  -14793983.45447 -11440618.94763
  20471646.4434   -2394669.28646
  22345958.8264   -6216105.54446  -4782860.37861
  23313746.295    -4903523.283 5  -3766588.66821
  22594997.0844   -8729562.96645  -6623088.72861
 91  4 22 21 22 29.9980000  0  6G18G 2G19G11G16G 6
  22210949.2014    7540295.28446   5867514.48061
  20950778.5144  -14831375.14047 -11469755.26363
  20471686.037    -2394444.286 7
  22346418.8894   -6213695.19046  -4780982.18361
  23313202.8424   -4906371.91245  -3768808.42761
  22586461.740    -8774408.608 5  -6658033.27721
 91  4 22 21 22 44.9980000  0  6G18G 2G19G11G16G 6
  22218000.647     7577351.336 6   5896389.18921
  20943677.2644  -14868695.38547 -11498835.91063
  20471743.7094   -2394162.43646  -1855050.39163
  22346904.3114   -6211139.40546  -4778990.67361
  23312685.7794   -4909104.49845  -3770937.79461
  22577926.350    -8819251.798 5  -6692975.93721
 91  4 22 21 22 59.9980000  0  6G18G 2G19G11G16G 6
  22225064.0614    7614463.22946   5925307.38361
  20936588.9284  -14905943.72547 -11527860.53163
  20471805.045    -2393823.224 7  -1854786.08523
  22347420.0454   -6208438.02346  -4776885.71061
  23312190.318    -4911721.055 5  -3772976.74821
  22569396.397    -8864092.249 5  -6727916.44321
 91  4 22 21 23 14.9980000  0  6G18G 2G19G11G16G 6
  22232135.3504    7651629.15046   5954267.68761
  20929514.0224  -14943121.84247 -11556830.43063
  20471884.029    -2393428.186 6  -1854478.27623
  22347958.7724   -6205592.81346  -4774668.66961
  23311709.123    -4914223.594 5  -3774926.83221
  22560862.9204   -8908931.52145  -6762856.04861
 91  4 22 21 23 29.9980000  0  6G18G 2G19G11G16G 6
  22239218.9364    7688850.70146   5983271.33861
  20922452.8184  -14980227.85847 -11585744.14863
  20471967.811    -2392975.215 7  -1854125.32923
  22348529.2254   -6202601.94746  -4772338.13561
  23311250.6394   -4916610.28845  -3776786.66361
  22552330.3504   -8953767.69545  -6797793.22961
 91  4 22 21 23 44.9980000  0  6G18G 2G19G11G16G 6
  22246313.4284    7726130.22746   6012320.16561
  20915406.0844  -15017259.11847 -11614599.61463
  20472066.467    -2392461.751 6  -1853725.24223
  22349127.4284   -6199462.97546  -4769892.19361
  23310821.5684   -4918878.50145  -3778554.18761
  22543799.9674   -8998598.13545  -6832725.95361
 91  4 22 21 23 59.9980000  0  6G18G 2G19G11G16G 6
  22253417.850     7763466.075 6   6041412.86821
  20908373.0454  -15054216.93447 -11643397.85063
  20472174.959    -2391889.137 6  -1853279.06024
  22349751.3344   -6196177.33046  -4767331.95561
  23310417.522    -4921029.696 5  -3780230.51921
  22535270.311    -9043424.131 5  -6867655.19621
 91  4 22 21 24 14.9980000  0  6G18G 2G19G11G16G 6
  22260533.4674    7800857.44746   6070548.85561
  20901353.5454  -15091102.00847 -11672139.40363
  20472296.568    -2391257.916 6  -1852787.21923
  22350403.131    -6192745.960 6  -4764658.16621
  23310029.6004   -4923065.39345  -3781816.88061
  22526741.5684   -9088246.55745  -6902581.68061
 91  4 22 21 24 29.9980000  0  6G18G 2G19G11G16G 6
  22267659.7644    7838303.82346   6099727.68561
  20894348.4364  -15127914.37347 -11700824.30263
  20472427.068    -2390567.888 6  -1852249.55023
  22351084.5374   -6189168.86746  -4761870.83061
  23309660.053    -4924985.525 5  -3783313.15321
  22518213.0224   -9133065.13545  -6937505.15861
 91  4 22 21 24 44.9980000  0  6G18G 2G19G11G16G 6
  22274795.709     7875804.394 6   6128948.75021
  20887357.0144  -15164654.68447 -11729453.05363
  20472569.873    -2389819.785 6  -1851666.63223
  22351793.287    -6185446.933 6  -4758970.63021
  23309318.834    -4926790.974 5  -3784720.06721
  22509684.225    -9177880.617 5  -6972426.23221
 91  4 22 21 24 59.9980000  0  6G18G 2G19G11G16G 6
  22281942.1624    7913360.08546   6158212.76761
  20880379.4824  -15201321.68547 -11758024.68263
  20472722.803    -2389012.239 6  -1851037.39323
  22352529.5614   -6181578.99846  -4755956.66961
  23308998.3814   -4928480.44045  -3786036.62861
  22501155.9434   -9222691.59045  -7007343.77661
 91  4 22 21 25 14.9980000  0  6G18G 2G19G11G16G 6
  22289100.842     7950967.684 6   6187517.22221
  20873415.4754  -15237918.06447 -11786541.27963
  20472888.600    -2388147.674 6  -1850363.72023
  22353292.7644   -6177567.87946  -4752831.13061
  23308700.1864   -4930056.86245  -3787265.08261
  22492629.811    -9267500.736 5  -7042259.90621
 91  4 22 21 25 29.9980000  0  6G18G 2G19G11G16G 6
  22296265.475     7988629.527 6   6216863.94421
  20866466.1004  -15274441.59947 -11815001.11163
  20473063.139    -2387224.031 6  -1849644.01524
  22354083.4124   -6173411.49346  -4749592.39061
  23308422.186    -4931518.212 5  -3788403.88221
  22484101.5144   -9312305.85545  -7077172.88861
 91  4 22 21 25 44.9980000  0  6G18G 2G19G11G16G 6
  22303444.7094    8026348.45546   6246255.16061
  20859530.0924  -15310889.16747 -11843401.75263
  20473251.764    -2386238.017 6  -1848875.71024
  22354902.7724   -6169106.76646  -4746238.07061
  23308165.5374   -4932861.62045  -3789450.78461
  22475580.404    -9357103.813 5  -7112080.30421
 91  4 22 21 25 59.9980000  0  6G18G 2G19G11G16G 6
  22310633.264     8064121.448 6   6275688.49121
  20852607.5764  -15347263.48047 -11871745.31463
  20473445.834    -2385192.381 7  -1848060.94024
  22355751.3114   -6164656.68846  -4742770.48061
  23307932.092    -4934090.312 5  -3790408.28221
  22467055.7954   -9401897.27145  -7146984.19661
 91  4 22 21 26 14.9980000  0  6G18G 2G19G11G16G 6
  22317828.725     8101945.852 6   6305161.88821
  20845699.1074  -15383566.85447 -11900033.59763
  20473658.615    -2384089.287 6  -1847201.41023
  22356625.7874   -6160063.64246  -4739191.49061
  23307716.6234   -4935206.77045  -3791278.34861
  22458531.436    -9446688.433 5  -7181886.32021
 91  4 22 21 26 29.9980000  0  6G18G 2G19G11G16G 6
  22325037.248     8139821.625 6   6334675.31021
  20838804.8504  -15419799.08647 -11928266.44163
  20473879.818    -2382928.594 6  -1846296.98823
  22357524.131    -6155327.672 6  -4735501.13521
  23307525.123    -4936210.746 5  -3792060.76821
  22450008.1784   -9491477.18545  -7216786.54961
 91  4 22 21 26 44.9980000  0  6G18G 2G19G11G16G 6
  22332255.7174    8177747.71346   6364227.93061
  20831923.4044  -15455960.80647 -11956444.34163
  20474112.193    -2381710.756 6  -1845348.04524
  22358454.7254   -6150449.49446  -4731699.97161
  23307358.022    -4937102.895 5  -3792756.03021
  22441487.5144   -9536264.14846  -7251685.39661
 91  4 22 21 26 59.9980000  0  6G18G 2G19G11G16G 6
  22339481.732     8215728.632 6   6393823.28821
  20825056.1074  -15492047.25147 -11984563.58963
  20474355.857    -2380430.713 6  -1844350.62923
  22359410.2644   -6145424.28646  -4727784.24061
  23307211.615    -4937878.601 5  -3793360.57721
  22432962.920    -9581044.256 5  -7286578.90321
 91  4 22 21 27 14.9980000  0  6G18G 2G19G11G16G 6
  22346721.834     8253767.499 6   6423463.78221
  20818203.9674  -15528055.12147 -12012621.60863
  20474611.381    -2379085.323 6  -1843302.28923
  22360393.811    -6140249.097 6  -4723751.64021
  23307085.076    -4938535.367 5  -3793872.42421
  22424445.334    -9625814.457 5  -7321464.68321
 91  4 22 21 27 29.9980000  0  6G18G 2G19G11G16G 6
  22353967.3814    8291854.84046   6453142.06161
  20811365.5844  -15563993.65047 -12040625.59363
  20474876.443    -2377683.768 6  -1842210.18523
  22361406.1394   -6134933.35846  -4719609.51261
  23306980.834    -4939082.250 5  -3794298.64721
  22415925.6704   -9670583.90245  -7356349.88561
 91  4 22 21 27 44.9970000  0  6G18G 2G19G11G16G 6
  22361227.9074    8329995.16145   6482861.61561
  20804541.5644  -15599853.23247 -12068568.06363
  20475156.610    -2376218.832 6  -1841068.68923
  22362446.2984   -6129470.40046  -4715352.67561
  23306900.1814   -4939511.88445  -3794633.52561
  22407407.946    -9715342.298 6  -7391226.47221
 91  4 22 21 27 59.9970000  0  6G18G 2G19G11G16G 6
  22368494.9624    8368189.87446   6512623.54661
  20797731.1964  -15635642.00347 -12096455.36063
  20475446.884    -2374693.436 7  -1839880.09023
  22363511.5094   -6123862.87546  -4710983.18561
  23306836.5094   -4939828.50245  -3794880.31961
  22398892.290    -9760099.005 6  -7426101.74321
 91  4 22 21 28 14.9970000  0  6G18G 2G19G11G16G 6
  22375771.5564    8406432.89845   6542423.12861
  20790933.5174  -15671360.66147 -12124288.02263
  20475749.243    -2373110.883 6  -1838646.94723
  22364607.759    -6118114.511 6  -4706503.95821
  23306799.6264   -4940035.49545  -3795041.70661
  22390373.399    -9804853.995 6  -7460975.67321
 91  4 22 21 28 29.9970000  0  6G18G 2G19G11G16G 6
  22383059.884     8444725.268 5   6572261.16321
  20784150.4394  -15707007.97647 -12152065.09563
  20476058.821    -2371469.926 6  -1837368.29823
  22365728.9934   -6112224.05846  -4701914.00661
  23306784.509    -4940131.308 5
  22381858.040    -9849606.022 5  -7495847.30121
 91  4 22 21 28 44.9970000  0  6G18G 2G19G11G16G 6
  22390355.8924    8483068.57445   6602138.87561
  20777381.1814  -15742582.16547 -12179785.18563
  20476384.446    -2369768.560 6  -1836042.57923
  22366876.0644   -6106189.92546  -4697212.09061
  23306788.243    -4940114.819 5
  22373344.157    -9894353.134 6  -7530715.09721
 91  4 22 21 28 59.9970000  0  6G18G 2G19G11G16G 6
  22397663.3994    8521462.31145   6632055.90361
  20770624.6574  -15778083.50247 -12207448.50663
  20476717.837    -2368006.970 6  -1834669.93023
  22368051.4704   -6100012.45746  -4692398.49261
  23306808.8764   -4939986.35045
  22364828.314    -9939095.723 5  -7565579.36821
 91  4 22 21 29 14.9970000  0  6G18G 2G19G11G16G 6
  22404977.9624    8559903.97045   6662010.25561
  20763882.9464  -15813514.00147 -12235056.62763
  20477067.001    -2366187.275 6  -1833252.00324
  22369253.860    -6093693.914 6  -4687474.96721
  23306855.8924   -4939747.83345
  22356313.681    -9983835.721 6  -7600441.62221
 91  4 22 21 29 29.9970000  0  6G18G 2G19G11G16G 6
  22412302.665     8598396.040 5   6692003.88521
  20757153.9784  -15848871.09247 -12262607.55063
  20477425.118    -2364306.461 6  -1831786.45323
  22370482.5564   -6087231.69246  -4682439.48061
  23306923.517    -4939397.227 5  -3794544.83821
  22347801.728   -10028570.436 6  -7635299.76521
 91  4 22 21 29 44.9970000  0  6G18G 2G19G11G16G 6
  22419636.9464    8636936.22045   6722035.02161
  20750439.5014  -15884156.82847 -12290102.86963
  20477794.548    -2362366.639 6  -1830274.92323
  22371739.845    -6080628.151 6  -4677293.87521
  23307008.501    -4938936.557 5  -3794185.96721
  22339287.821   -10073301.783 6  -7670155.27821
 91  4 22 21 29 59.9970000  0  6G18G 2G19G11G16G 6
  22426981.3764    8675532.57945   6752109.90361
  20743740.282   -15919362.768 7 -12317536.01423
  20478174.212    -2360359.342 6  -1828710.81523
  22373025.8064   -6073875.08946  -4672031.76561
  23307120.2594   -4938357.72745  -3793735.00661
  22330778.915   -10118021.454 5  -7705001.70221
 91  4 22 21 30 14.9970000  0  6G18G 2G19G11G16G 6
  22434334.9544    8714174.72445   6782220.48961
  20737054.0874  -15954499.10947 -12344914.92163
  20478567.704    -2358294.613 6  -1827101.95323
  22374337.142    -6066982.821 6  -4666661.18421
  23307250.7594   -4937671.19045  -3793200.14361
  22322269.845   -10162739.547 6  -7739846.88321
 91  4 22 21 30 29.9970000  0  6G18G 2G19G11G16G 6
  22441697.7124    8752862.38545   6812366.51661
  20730381.1654  -15989565.74647 -12372239.51663
  20478969.892    -2356172.256 6  -1825448.18923
  22375676.2204   -6059951.32446  -4661182.10561
  23307401.259    -4936876.852 5  -3792581.27521
  22313761.181   -10207455.869 6  -7774690.69121
 91  4 22 21 30 44.9970000  0  6G18G 2G19G11G16G 6
  22449070.220     8791598.371 5   6842550.21221
  20723721.1424  -16024559.78847 -12399507.54063
  20479388.290    -2353989.546 6  -1823747.39523
  22377041.024    -6052777.960 6  -4655592.48221
  23307575.454    -4935972.378 5  -3791876.59121
  22305253.618   -10252167.603 6  -7809530.92321
 91  4 22 21 30 59.9970000  0  6G18G 2G19G11G16G 6
  22456448.782     8830380.260 5   6872769.66621
  20717076.1104  -16059483.05347 -12426720.42063
  20479813.814    -2351747.986 6  -1822000.74323
  22378431.110    -6045464.706 6  -4649893.85621
  23307763.853    -4934959.748 5  -3791087.62621
  22296745.532   -10296876.409 6  -7844368.87121
 91  4 22 21 31 14.9970000  0  6G18G 2G19G11G16G 6
  22463839.228     8869210.210 5   6903026.57621
  20710443.4854  -16094333.42647 -12453876.49363
  20480252.134    -2349445.380 6  -1820206.52323
  22379851.837    -6038009.569 6  -4644084.67521
  23307978.0014   -4933837.21045  -3790213.03361
  22288236.478   -10341580.171 6  -7879202.88821
 91  4 22 21 31 29.9970000  0  6G18G 2G19G11G16G 6
  22471234.8534    8908085.70845   6933318.98061
  20703825.6654  -16129113.17347 -12480977.53763
  20480702.564    -2347083.852 6  -1818366.39823
  22381296.1894   -6030414.95746  -4638166.80161
  23308217.2354   -4932606.82845  -3789254.38061
  22279730.978   -10386281.061 6  -7914034.67521
 91  4 22 21 31 44.9970000  0  6G18G 2G19G11G16G 6
  22478642.4544    8947007.49745   6963647.44461
  20697220.8534  -16163821.09547 -12508022.61463
  20481163.439    -2344662.279 6  -1816479.47723
  22382767.314    -6022679.837 6  -4632139.45221
  23308468.3294   -4931267.87045  -3788211.11861
  22271225.829   -10430977.864 6  -7948863.27221
 91  4 22 21 31 59.9970000  0  6G18G 2G19G11G16G 6
  22486058.4624    8985976.20245   6994012.47061
  20690629.376   -16198456.392 7 -12535011.10123
  20481633.064    -2342179.733 7  -1814545.04623
  22384267.040    -6014803.582 6  -4626002.12121
  23308741.290    -4929819.811 5  -3787082.85721
  22262721.353   -10475669.756 6  -7983688.03721
 91  4 22 21 32 14.9970000  0  6G18G 2G19G11G16G 6
  22493482.6964    9024991.99245   7024414.18761
  20684052.3764  -16233018.51347 -12561942.56563
  20482119.642    -2339635.677 6  -1812562.68423
  22385792.298    -6006785.910 6  -4619754.59821
  23309042.259    -4928262.341 5  -3785869.33421
  22254216.478   -10520356.179 6  -8018508.55021
 91  4 22 21 32 29.9970000  0  6G18G 2G19G11G16G 6
  22500916.439     9064052.625 5   7054850.84021
  20677489.0094  -16267509.71047 -12588818.76663
  20482613.321    -2337032.149 7  -1810533.98523
  22387342.907    -5998629.118 6  -4613398.68121
  23309353.4394   -4926597.92245  -3784572.49261
  22245715.509   -10565039.136 6  -8053326.35621
 91  4 22 21 32 44.9970000  0  6G18G 2G19G11G16G 6
  22508356.3994    9103157.82145   7085322.23061
  20670939.3604  -16301929.72847 -12615639.50263
  20483120.993    -2334368.694 6  -1808458.58723
  22388924.1184   -5990333.04946  -4606934.22361
  23309702.478    -4924825.952 5  -3783191.85421
  22237211.993   -10609718.249 6  -8088141.17021
 91  4 22 21 32 59.9970000  0  6G18G 2G19G11G16G 6
  22515808.954     9142309.969 5   7115830.18721
  20664403.079   -16336275.881 7 -12642402.68523
  20483640.860    -2331642.722 6  -1806334.47523
  22390529.173    -5981895.224 6  -4600359.31721
  23310052.3214   -4922944.46445  -3781725.79861
  22228710.3994  -10654390.89346  -8122950.94061
 91  4 22 21 33 14.9970000  0  6G18G 2G19G11G16G 6
  22523268.1734    9181507.87545   7146373.80961
  20657881.4154  -16370549.26347 -12669109.15763
  20484172.118    -2328855.300 6  -1804162.47723
  22392160.579    -5973317.024 6  -4593675.02321
  23310434.6344   -4920954.89745  -3780175.59961
  22220212.704   -10699058.127 6  -8157756.49621
 91  4 22 21 33 29.9970000  0  6G18G 2G19G11G16G 6
  22530735.3064    9220748.72845   7176950.90061
  20651372.6264  -16404752.34247 -12695760.85063
  20484714.720    -2326008.870 6  -1801944.50023
  22393819.446    -5964601.130 6  -4586883.42921
  23310828.337    -4918859.785 5  -3778543.13821
  22211712.4934  -10743722.45946  -8192559.78561
 91  4 22 21 33 44.9970000  0  6G18G 2G19G11G16G 6
  22538211.478     9260031.134 5   7207560.35521
  20644876.595   -16438886.370 7 -12722358.74423
  20485264.657    -2323104.250 6  -1799681.18223
  22395504.556    -5955748.979 6  -4579985.66721
  23311249.7744   -4916660.43245  -3776829.44761
  22203213.6264  -10788384.90246  -8227361.61261
 91  4 22 21 33 59.9970000  0  6G18G 2G19G11G16G 6
  22545694.9154    9299356.75245   7238203.49261
  20638395.743   -16472949.337 7 -12748901.26023
  20485827.345    -2320139.511 6  -1797371.01723
  22397216.009    -5946758.676 6  -4572980.25921
  23311687.743    -4914355.479 5  -3775033.47721
  22194712.1424  -10833043.50646  -8262160.43361
 91  4 22 21 34 14.9970000  0  6G18G 2G19G11G16G 6
  22553185.235     9338724.497 5   7268879.45221
  20631926.454   -16506942.194 7 -12775389.14223
  20486405.353    -2317115.387 6  -1795014.57523
  22398951.993    -5937631.226 6  -4565867.97121
  23312147.056    -4911945.714 5  -3773155.84721
  22186216.6574  -10877699.11146  -8296956.92861
 91  4 22 21 34 29.9970000  0  6G18G 2G19G11G16G 6
  22560684.493     9378136.609 5   7299589.98321
  20625471.4074  -16540862.27547 -12801820.32063
  20486992.142    -2314029.321 6  -1792609.86823
  22400717.017    -5928364.125 6  -4558646.86721
  23312623.4314   -4909428.79545  -3771194.68461
  22177720.110   -10922348.929 6  -8331748.90721
 91  4 22 21 34 44.9970000  0  6G18G 2G19G11G16G 6
  22568195.314     9417593.798 6   7330335.62321
  20619031.634   -16574708.534 7 -12828193.97523
  20487589.876    -2310880.123 6  -1790155.96623
  22402505.860    -5918956.605 6  -4551316.35221
  23313125.1574   -4906804.02745  -3769149.49461
  22169223.860   -10966991.888 6  -8366535.54721
 91  4 22 21 34 59.9970000  0  6G18G 2G19G11G16G 6
  22575711.868     9457098.836 5   7361118.57421
  20612604.6894  -16608478.07147 -12854507.84663
  20488201.376    -2307664.824 6  -1787650.56023
  22404324.032    -5909405.998 6  -4543874.33721
  23313647.5954   -4904068.79745  -3767018.25761
  22160730.696   -11011625.062 6  -8401314.56021
 91  4 22 21 35 14.9970000  0  6G18G 2G19G11G16G 6
  22583240.1734    9496648.90146   7391936.60261
  20606192.4784  -16642173.26847 -12880763.78463
  20488827.470    -2304385.781 6  -1785095.48323
  22406167.5794   -5899714.87846  -4536322.82861
  23314189.1964   -4901225.85345  -3764803.06361
  22152239.439   -11056250.814 6  -8436087.79621
 91  4 22 21 35 29.9970000  0  6G18G 2G19G11G16G 6
  22590773.1494    9536243.46445   7422789.30361
  20599794.7124  -16675794.50247 -12906962.09163
  20489461.985    -2301042.998 6  -1782490.73823
  22408037.360    -5889883.511 6  -4528662.04821
  23314748.024    -4898275.314 5  -3762504.04521
  22143749.884   -11100869.151 6  -8470855.25721
 91  4 22 21 35 44.9970000  0  6G18G 2G19G11G16G 6
  22598314.548     9575877.152 6   7453672.48921
  20593409.649   -16709346.893 7 -12933106.76023
  20490109.649    -2297641.697 6  -1779840.39423
  22409936.392    -5879917.316 6  -4520896.19921
  23315328.5014   -4895222.68345  -3760125.43361
  22135258.337   -11145485.276 6  -8505620.99221
 91  4 22 21 35 59.9970000  0  6G18G 2G19G11G16G 6
  22605866.1574    9615553.79346   7484589.14861
  20587039.5014  -16742826.65847 -12959194.83163
  20490768.337    -2294178.089 6  -1777141.49723
  22411858.720    -5869812.767 6  -4513022.54521
  23315930.7284   -4892064.49445  -3757664.63861
  22126770.829   -11190095.476 6  -8540382.09921
 91  4 22 21 36 14.9970000  0  6G18G 2G19G11G16G 6
  22613423.853     9655271.052 6   7515537.43921
  20580682.298   -16776235.512 7 -12985227.64923
  20491441.423    -2290653.768 6  -1774395.29423
  22413805.212    -5859571.697 6  -4505042.51221
  23316553.806    -4888802.694 5  -3755123.07121
  22118281.782   -11234701.209 6  -8575139.74121
 91  4 22 21 36 29.9970000  0  6G18G 2G19G11G16G 6
  22620989.868     9695031.500 6   7546519.41521
  20574338.368   -16809570.490 7 -13011202.90123
  20492122.485    -2287065.803 6  -1771599.49723
  22415782.173    -5849191.540 6  -4496954.09721
  23317191.595    -4885434.554 5  -3752498.63321
  22109794.923   -11279299.714 6  -8609891.74221
 91  4 22 21 36 44.9970000  0  6G18G 2G19G11G16G 6
  22628564.673     9734832.582 6   7577533.01621
  20568008.110   -16842834.023 7 -13037122.48923
  20492818.126    -2283416.331 6  -1768755.77123
  22417782.767    -5838674.850 6  -4488759.29121
  23317854.485    -4881962.603 5  -3749793.34821
  22101309.501   -11323893.079 6  -8644639.74021
 91  4 22 21 36 59.9970000  0  6G18G 2G19G11G16G 6
  22636146.4934    9774675.39746   7608579.16461
  20561691.649   -16876025.060 7 -13062985.57823
  20493521.915    -2279704.214 6  -1765863.23223
  22419810.704    -5828020.562 6  -4480457.26321
  23318533.298    -4878386.063 5  -3747006.48521
  22092824.868   -11368480.163 6  -8679382.84021
 91  4 22 21 37 14.9970000  0  6G18G 2G19G11G16G 6
  22643736.009     9814557.321 6   7639655.77521
  20555389.095   -16909145.751 7 -13088793.85923
  20494243.267    -2275931.441 6
  22421862.970    -5817230.952 6  -4472049.79421
  23319232.0014   -4874707.42145
  22084341.806   -11413063.037 6  -8714122.66021
 91  4 22 21 37 29.9970000  0  6G18G 2G19G11G16G 6
  22651332.8994    9854483.06146   7670766.52761
  20549100.649   -16942190.958 7 -13114543.32023
  20494971.704    -2272092.848 6
  22423943.978    -5806301.194 6  -4463533.11621
  23319951.5874   -4870921.60345
  22075858.704   -11457636.456 6  -8748855.11721
 91  4 22 21 37 44.9970000  0  6G18G 2G19G11G16G 6
  22658939.0874    9894450.13546   7701909.48761
  20542826.579   -16975162.938 7 -13140235.71823
  20495715.134    -2268190.719 6
  22426049.173    -5795233.831 6  -4454909.21121
  23320691.9934   -4867031.41045
  22067378.970   -11502202.809 6  -8783582.06821
 91  4 22 21 37 59.9970000  0  6G18G 2G19G11G16G 6
  22666552.6034    9934459.57346   7733085.45261
  20536567.032   -17008060.684 7 -13165870.27323
  20496469.689    -2264223.975 6
  22428181.657    -5784027.964 6  -4446177.37921
  23321451.2284   -4863036.14044
  22058899.423   -11546760.963 6  -8818302.62421
 91  4 22 21 38 14.9970000  0  6G18G 2G19G11G16G 6
  22674173.6494    9974511.47546   7764294.51761
  20530320.954   -17040883.694 7 -13191446.58923
  20497237.165    -2260191.912 6
  22430341.4784   -5772683.37646  -4437337.44861
  23322234.6894   -4858935.12644
  22050423.1034  -11591310.30646  -8853016.31861
 91  4 22 21 38 29.9970000  0  6G18G 2G19G11G16G 6
  22681802.9704   10014600.17846   7795532.21361
  20524087.298   -17073637.272 7 -13216968.80323
  20498014.134    -2256099.719 6  -1747470.22723
  22432525.954    -5761205.486 6  -4428393.64921
  23323032.806    -4854734.287 4  -3728577.18721
  22041944.173   -11635856.039 6  -8887727.19821
 91  4 22 21 38 44.9970000  0  6G18G 2G19G11G16G 6
  22689437.970    10054725.029 6   7826798.13621
  20517867.587   -17106321.545 7 -13242437.01923
  20498805.814    -2251947.473 6  -1744234.73023
  22434736.2824   -5749594.61646  -4419346.23161
  23323855.1494   -4850434.05345  -3725226.46661
  22033467.884   -11680398.313 6  -8922435.38721
 91  4 22 21 38 59.9970000  0  6G18G 2G19G11G16G 6
  22697083.306    10094891.675 6   7858096.58721
  20511663.110   -17138931.091 7 -13267847.00323
  20499606.001    -2247729.823 6  -1740948.27123
  22436969.3844   -5737845.68246  -4410191.22061
  23324691.056    -4846028.890 4  -3721793.97521
  22024993.1654  -11724931.59446  -8957136.55761
 91  4 22 21 39 14.9970000  0  6G18G 2G19G11G16G 6
  22704734.0484   10135097.12146   7889425.27961
  20505471.017   -17171468.504 7 -13293200.78123
  20500424.306    -2243449.100 6  -1737612.66123
  22439232.2354   -5725961.20846  -4400930.59661
  23325548.1034   -4841521.48744  -3718281.84461
  22016520.626   -11769458.212 6  -8991832.55921
 91  4 22 21 39 29.9970000  0  6G18G 2G19G11G16G 6
  22712391.8844   10175341.47846   7920784.31261
  20499293.212   -17203933.519 7 -13318498.14423
  20501248.345    -2239105.008 6  -1734227.67323
  22441517.9234   -5713941.15246  -4391564.32661
  23326425.696    -4836912.281 5  -3714690.33721
  22008047.657   -11813977.829 6  -9026523.08821
 91  4 22 21 39 44.9970000  0  6G18G 2G19G11G16G 6
  22720056.884    10215622.640 6   7952171.99821
  20493127.946   -17236327.701 7 -13343740.30823
  20502089.282    -2234698.997 6  -1730794.43523
  22443831.704    -5701787.350 6  -4382093.84321
  23327322.079    -4832202.848 4  -3711020.75021
  21999578.548   -11858492.032 6  -9061209.40021
 91  4 22 21 39 59.9970000  0  6G18G 2G19G11G16G 6
  22727728.282    10255940.633 6   7983588.40121
  20486978.298   -17268650.844 7 -13368927.12323
  20502936.954    -2230230.735 6  -1727312.69423
  22446170.7514   -5689499.75546  -4372519.09861
  23328237.8214   -4827393.25644  -3707273.11761
  21991106.204   -11903000.455 6  -9095891.20721
 91  4 22 21 40 14.9970000  0  6G18G 2G19G11G16G 6
  22735409.860    10296299.007 6   8015036.26421
  20480840.564   -17300899.408 7 -13394055.82223
  20503801.017    -2225696.677 6  -1723779.68023
  22448534.478    -5677075.020 6  -4362837.50121
  23329171.767    -4822480.003 4  -3703444.71121
  21982639.892   -11947499.460 6  -9130565.68921
 91  4 22 21 40 29.9970000  0  6G18G 2G19G11G16G 6
  22743097.1894   10336695.21946   8046513.58261
  20474717.501   -17333075.709 7 -13419128.20923
  20504674.899    -2221098.991 6  -1720197.08323
  22450924.9704   -5664515.57946  -4353050.93461
  23330127.345    -4817465.827 5  -3699537.67721
  21974173.220   -11991991.315 6  -9165234.58321
 91  4 22 21 40 44.9970000  0  6G18G 2G19G11G16G 6
  22750792.2044   10377129.91746   8078020.94661
  20468609.509   -17365178.310 7 -13444143.17323
  20505565.040    -2216436.116 6  -1716563.69323
  22453340.2904   -5651820.37546  -4343158.58461
  23331098.1494   -4812349.64845  -3695551.14961
  21965706.9934  -12036474.49346  -9199896.71661
 91  4 22 21 40 59.9970000  0  6G18G 2G19G11G16G 6
  22758493.462    10417602.184 6   8109557.50221
  20462513.439   -17397208.331 7 -13469101.58023
  20506462.407    -2211709.002 6  -1712880.24823
  22455780.8294   -5638990.56146  -4333161.33561
  23332096.3064   -4807132.70745  -3691486.10461
  21957245.282   -12080950.050 6  -9234552.91521
 91  4 22 21 41 14.9970000  0  6G18G 2G19G11G16G 6
  22766200.9234   10458110.53046   8141122.25761
  20456431.142   -17429166.582 7 -13494004.06323
  20507374.868    -2206918.499 6  -1709147.41023
  22458248.899    -5626027.229 6  -4323060.05521
  23333108.0324   -4801816.04545  -3687343.36861
  21948783.845   -12125418.707 6  -9269203.74221
 91  4 22 21 41 29.9970000  0  6G18G 2G19G11G16G 6
  22773919.064    10498659.574 6   8172718.66421
  20450365.079   -17461048.246 7 -13518846.86623
  20508298.407    -2202059.606 6  -1705361.27423
  22460743.0644   -5612925.72946  -4312851.10261
  23334137.345    -4796394.717 5  -3683119.06521
  21940320.704   -12169875.468 6  -9303845.29221
 91  4 22 21 41 44.9970000  0  6G18G 2G19G11G16G 6
  22781642.931    10539248.613 6   8204346.24221
  20444313.134   -17492853.787 7 -13543630.35323
  20509237.821    -2197132.804 6  -1701522.22523
  22463259.032    -5599686.836 6  -4302535.10921
  23335189.4854   -4790869.94445  -3678814.13261
  21931862.899   -12214320.791 6  -9338477.93421
 91  4 22 21 41 59.9970000  0  6G18G 2G19G11G16G 6
  22789372.4074   10579872.52746   8236001.03061
  20438273.806   -17524588.517 7 -13568358.66123
  20510187.235    -2192143.418 6  -1697634.41123
  22465806.1104   -5586316.16246  -4292116.41261
  23336257.7204   -4785247.33844  -3674433.00961
  21923408.634   -12258760.005 6  -9373105.81121
 91  4 22 21 42 14.9970000  0  6G18G 2G19G11G16G 6
  22797110.3844   10620530.85546   8267682.59661
  20432248.235   -17556252.445 7 -13593031.80023
  20511148.431    -2187091.064 6  -1693697.53523
  22468375.1894   -5572813.64946  -4281594.97861
  23337346.6964   -4779527.06945  -3669975.76461
  21914952.587   -12303192.802 6  -9407728.69021
 91  4 22 21 42 29.9970000  0  6G18G 2G19G11G16G 6
  22804854.501    10661227.144 6   8299393.74821
  20426236.774   -17587841.812 7 -13617646.84123
  20512121.251    -2181971.818 6  -1689708.53523
  22470970.2284   -5559175.86646  -4270968.14361
  23338458.032    -4773705.580 5  -3665439.65621
  21906498.314   -12347615.472 6  -9442343.67921
 91  4 22 21 42 44.9970000  0  6G18G 2G19G11G16G 6
  22812605.774    10701954.157 6   8331128.86821
  20420238.478   -17619363.356 7 -13642209.03423
  20513109.907    -2176792.504 6  -1685672.72523
  22473588.657    -5545409.791 6  -4260241.34521
  23339583.759    -4767789.851 5  -3660830.07821
  21898046.462   -12392034.551 6  -9476955.87221
 91  4 22 21 42 59.9970000  0  6G18G 2G19G11G16G 6
  22820362.8374   10742718.32646   8362892.90761
  20414253.626   -17650810.562 7 -13666713.29823
  20514104.259    -2171546.523 6  -1681584.96623
  22476234.5174   -5531508.89346  -4249409.48461
  23340727.9934   -4761773.52045  -3656142.13761
  21889597.1894  -12436443.36646  -9511560.05861
 91  4 22 21 43 14.9970000  0  6G18G 2G19G11G16G 6
  22828125.212    10783512.956 6   8394680.69821
  20408282.009   -17682189.760 7 -13691164.57423
  20515115.345    -2166240.152 6  -1677450.15123
  22478904.9704   -5517479.76146  -4238477.69961
  23341888.259    -4755663.202 5  -3651380.94921
  21881146.212   -12480848.118 6  -9546161.09721
 91  4 22 21 43 29.9970000  0  6G18G 2G19G11G16G 6
  22835896.962    10824344.191 6   8426496.99421
  20402325.821   -17713494.572 7 -13715557.88323
  20516136.259    -2160866.810 6  -1673263.15123
  22481599.3064   -5503316.27646  -4227441.22561
  23343071.4074   -4749452.65844  -3646541.67661
  21872698.657   -12525242.377 6  -9580753.94221
 91  4 22 21 43 44.9970000  0  6G18G 2G19G11G16G 6
  22843673.5014   10865208.83446   8458339.32461
  20396381.610   -17744728.043 7 -13739895.60723
  20517173.689    -2155429.573 6  -1669026.36623
  22484319.431    -5489021.780 6  -4216302.66921
  23344273.1494   -4743145.33544  -3641627.00361
  21864251.790   -12569629.202 6  -9615341.00021
 91  4 22 21 43 59.9970000  0  6G18G 2G19G11G16G 6
  22851454.321    10906105.975 5   8490206.98021
  20390451.235   -17775890.815 7 -13764178.23723
  20518221.009    -2149929.069 6  -1664740.28023
  22487064.2744   -5474597.16146  -4205062.71961
  23345488.5404   -4736742.23345  -3636637.65861
  21855804.298   -12614009.151 6  -9649922.70521
 91  4 22 21 44 14.9970000  0  6G18G 2G19G11G16G 6
  22859243.360    10947036.348 6   8522100.50521
  20384536.235   -17806981.860 7 -13788404.97523
  20519278.470    -2144363.996 6  -1660403.87723
  22489835.2124   -5460041.45446  -4193720.62061
  23346727.5244   -4730242.38045  -3631572.91861
  21847361.032   -12658381.005 6  -9684498.09621
 91  4 22 21 44 29.9970000  0  6G18G 2G19G11G16G 6
  22867037.1734   10987996.26545   8554017.07561
  20378631.735   -17838004.564 7 -13812578.46823
  20520347.001    -2138737.633 6  -1656019.71423
  22492629.431    -5445358.222 6  -4182279.15321
  23347981.0244   -4723649.39545  -3626435.62661
  21838918.884   -12702747.962 6  -9719069.67321
 91  4 22 21 44 44.9970000  0  6G18G 2G19G11G16G 6
  22874839.821    11028985.416 6   8585956.43521
  20372741.321   -17868959.009 7 -13836698.76723
  20521432.806    -2133050.048 6  -1651587.84923
  22495447.407    -5430547.852 6  -4170738.61821
  23349254.8844   -4716963.87745  -3621226.22261
  21830477.360   -12747110.058 6  -9753637.46321
 91  4 22 21 44 59.9970000  0  6G18G 2G19G11G16G 6
  22882646.204    11070007.260 6   8617921.25021
  20366864.462   -17899841.423 7 -13860762.93723
  20522523.931    -2127297.515 6  -1647105.37923
  22498290.618    -5415606.982 6  -4159096.38621
  23350544.5484   -4710182.52544  -3615942.17161
  21822037.899   -12791463.637 6  -9788198.61921
 91  4 22 21 45 14.9970000  0  6G18G 2G19G11G16G 6
  22890457.189    11111062.375 5   8649911.98321
  20361001.798   -17930650.921 7 -13884770.29123
  20523634.532    -2121478.810 6  -1642571.33923
  22501158.7514   -5400534.59646  -4147351.68561
  23351853.603    -4703304.179 4  -3610582.54521
  21813599.485   -12835807.450 6  -9822752.15821
 91  4 22 21 45 29.9970000  0  6G18G 2G19G11G16G 6
  22898277.1264   11152150.71745   8681928.63961
  20355151.782   -17961387.441 7 -13908720.78123
  20524754.603    -2115593.760 6  -1637985.59923
  22504051.173    -5385330.995 6  -4135504.73921
  23353181.032    -4696329.032 5  -3605147.48621
  21805162.868   -12880141.311 6  -9857297.95721
 91  4 22 21 45 44.9970000  0  5G18G 2G19G11G 6
  22906101.517    11193271.051 5   8713970.18321
  20349317.290   -17992052.160 7 -13932615.32323
  20525885.470    -2109643.518 6  -1633349.06523
  22506970.3374   -5369997.47146  -4123556.53761
  21796728.032   -12924466.277 6  -9891836.81121
 91  4 22 21 45 59.9970000  0  5G18G 2G19G11G 6
  22913932.5244   11234419.51745   8746033.66161
  20343495.134   -18022648.519 7 -13956456.59623
  20527030.970    -2103631.487 6  -1628664.38023
  22509911.462    -5354537.704 6  -4111509.97821
  21788294.079   -12968785.773 6  -9926371.40721
 91  4 22 21 46 14.9970000  0  5G18G 2G19G11G 6
  22921767.454    11275597.123 5   8778119.84721
  20337686.735   -18053174.961 7 -13980243.39023
  20528187.517    -2097556.095 6  -1623930.32823
  22512877.8764   -5338950.60546  -4099364.19961
  21779861.571   -13013098.237 6  -9960900.52421
 91  4 22 21 46 29.9970000  0  5G18G 2G19G11G 6
  22929608.024    11316802.819 5   8810227.90821
  20331890.571   -18083632.420 7 -14003976.43123
  20529352.907    -2091418.003 6  -1619147.41923
  22515866.524    -5323237.111 6  -4087119.93621
  21771430.306   -13057404.382 6  -9995424.71521
 91  4 22 21 46 44.9970000  0  5G18G 2G19G11G 6
  22937454.4784   11358036.32845   8842357.67061
  20326107.712   -18114021.108 7 -14027655.88323
  20530534.485    -2085217.339 6  -1614315.75023
  22518883.0714   -5307397.63346  -4074777.49561
  21762999.564   -13101704.246 6 -10029944.01221
 91  4 22 21 46 59.9970000  0  5G18G 2G19G11G 6
  22945309.2674   11399299.80245   8874510.72361
  20320338.024   -18144338.622 7 -14051279.87723
  20531727.337    -2078951.505 6  -1609433.29823
  22521919.946    -5291430.041 6  -4062335.23421
  21754571.345   -13145995.370 6 -10064456.50821
 91  4 22 21 47 14.9970000  0  5G18G 2G19G11G 6
  22953166.173    11440591.423 5   8906685.76821
  20314582.509   -18174586.484 7 -14074849.59923
  20532932.267    -2072622.065 6  -1604501.28523
  22524982.556    -5275335.938 6  -4049794.39321
  21746144.907   -13190279.058 6 -10098963.19521
 91  4 22 21 47 29.9970000  0  5G18G 2G19G11G 6
  22961028.5094   11481914.17745   8938885.02661
  20308840.345   -18204761.762 7 -14098362.75823
  20534146.321    -2066225.977 6  -1599517.33523
  22528069.899    -5259112.607 6  -4037152.85221
  21737720.392   -13234552.283 6 -10133461.73521
 91  4 22 21 47 44.9970000  0  5G18G 2G19G11G 6
  22968899.485    11523263.013 5   8971104.64021
  20303111.095   -18234868.717 7 -14121822.68123
  20535378.259    -2059767.454 6  -1594484.73423
  22531182.157    -5242764.808 6  -4024414.32021
  21729295.399   -13278819.210 6 -10167955.37421
 91  4 22 21 47 59.9970000  0  5G18G 2G19G11G 6
  22976772.524    11564640.400 5   9003346.48221
  20297395.696   -18264904.738 7 -14145227.32923
  20536617.626    -2053243.870 6  -1589401.44023
  22534315.7434   -5226290.11546  -4011576.91661
  21720873.626   -13323077.315 6 -10202442.13221
 91  4 22 21 48 14.9970000  0  5G18G 2G19G11G 6
  22984652.446    11606045.175 5   9035609.66521
  20291692.462   -18294870.840 7 -14168577.49823
  20537871.720    -2046656.087 6  -1584268.11923
  22537475.017    -5209689.621 6  -3998641.48021
  21712452.0404  -13367327.29446 -10236922.56461
 91  4 22 21 48 29.9970000  0  5G18G 2G19G11G 6
  22992536.1894   11647473.49045   9067891.21761
  20286002.782   -18324770.610 7 -14191875.97623
  20539137.064    -2040007.444 6  -1579087.37423
  22540657.3684   -5192967.11646  -3985610.97161
  21704033.353   -13411572.592 6 -10271399.34421
 91  4 22 21 48 44.9970000  0  5G18G 2G19G11G 6
  23000426.993    11688931.690 5   9100195.98721
  20280327.837   -18354597.441 7 -14215117.62123
  20540416.673    -2033291.242 6  -1573853.98223
  22543862.9934   -5176116.20346  -3972480.40361
  21695615.915   -13455806.425 6 -10305867.19021
 91  4 22 21 48 59.9970000  0  5G18G 2G19G11G 6
  23008320.634    11730413.335 5   9132519.10721
  20274663.9784  -18384357.58447 -14238307.30563
  20541705.314    -2026513.742 6  -1568572.83223
  22547093.064    -5159143.429 6  -3959254.88821
  21687200.0874  -13500034.95746 -10340330.91561
 91  4 22 21 49 14.9970000  0  5G18G 2G19G11G 6
  23016217.360    11771922.828 5   9164863.88821
  20269015.626   -18414045.987 7 -14261441.08223
  20543008.759    -2019669.939 6  -1563240.01723
  22550347.040    -5142044.111 6  -3945930.75321
  21678784.915   -13544253.257 6 -10374786.65821
 91  4 22 21 49 29.9970000  0  5G18G 2G19G11G 6
  23024123.6574   11813462.96645   9197232.51961
  20263378.9154  -18443660.04447 -14284516.93163
  20544321.134    -2012757.047 6  -1557853.36623
  22553626.009    -5124815.807 6  -3932506.12621
  21670372.2984  -13588458.49446 -10409232.22761
 91  4 22 21 49 44.9970000  0  5G18G 2G19G11G 6
  23032032.939    11855031.338 5   9229623.18021
  20257757.524   -18473201.972 7 -14307536.57223
  20545650.595    -2005777.134 6  -1552414.49423
  22556927.524    -5107460.887 6  -3918982.82121
  21661962.6494  -13632652.71846 -10443669.22061
 91  4 22 21 49 59.9970000  0  5G18G 2G19G11G 6
  23039951.1034   11896627.72445   9262035.66561
  20252150.2984  -18502671.53547 -14330499.82863
  20546992.868    -1998729.911 6  -1546923.17723
  22560254.704    -5089979.345 6  -3905360.86621
  21653554.806   -13676835.561 6 -10478097.33721
 91  4 22 21 50 14.9970000  0  5G18G 2G19G11G 6
  23047869.845    11938248.168 5   9294466.90521
  20246554.9854  -18532072.37147 -14353409.53263
  20548345.782    -1991618.943 6  -1541382.18723
  22563604.532    -5072375.089 6  -3891643.27821
  21645148.6654  -13721010.56146 -10512519.34861
 91  4 22 21 50 29.9970000  0  5G18G 2G19G11G 6
  23055794.7514   11979894.86045   9326918.53861
  20240973.0644  -18561402.30947 -14376263.99063
  20549710.399    -1984441.670 6  -1535789.52823
  22566978.931    -5054646.043 6  -3877828.46821
  21636745.8214  -13765175.25046 -10546933.33461
 91  4 22 21 50 44.9970000  0  5G18G 2G19G11G 6
  23063725.7204   12021567.33745   9359390.31561
  20235405.8844  -18590661.53947 -14399063.34963
  20551089.970    -1977198.608 6  -1530145.60523
  22570376.618    -5036792.687 6  -3863916.78321
  21628343.7284  -13809329.76946 -10581339.38561
 91  4 22 21 50 59.9970000  0  5G18G 2G19G11G 6
  23071660.8214   12063264.02845   9391880.96261
  20229851.118   -18619851.159 7 -14421808.46523
  20552478.376    -1969890.658 6  -1524451.12323
  22573797.243    -5018816.420 6  -3849909.32521
  21619942.2124  -13853475.26646 -10615738.40861
 91  4 22 21 51 14.9970000  0  5G18G 2G19G11G 6
  23079598.571    12104981.630 5   9424387.86421
  20224308.603   -18648974.174 7 -14444501.68323
  20553882.7904   -1962520.67846  -1518708.31063
  22577240.1964   -5000720.50046  -3835808.62961
  21611543.493   -13897614.476 6 -10650132.54321
 91  4 22 21 51 29.9970000  0  5G18G 2G19G11G 6
  23087543.7824   12146729.45945   9456918.37161
  20218782.157   -18678021.519 7 -14467135.93623
  20555297.149    -1955079.093 6  -1512909.69023
  22580710.314    -4982495.950 6  -3821607.70421
  21603146.7594  -13941738.09046 -10684514.51961
 91  4 22 21 51 44.9970000  0  5G18G 2G19G11G 6
  23095493.946    12188501.885 5   9489468.01821
  20213267.384   -18706998.223 7 -14489715.13823
  20556728.235    -1947571.215 6  -1507059.41623
  22584199.985    -4964148.130 6  -3807310.72821
  21594749.7284  -13985851.11346 -10718888.23461
 91  4 22 21 51 59.9970000  0  5G18G 2G19G11G 6
  23103446.079    12230292.819 5   9522032.09421
  20207765.157   -18735909.908 7 -14512243.68123
  20558166.329    -1940002.599 6  -1501161.82123
  22587714.243    -4945682.830 6  -3792922.20421
  21586357.3684  -14029959.10846 -10753258.03961
 91  4 22 21 52 14.9970000  0  5G18G 2G19G11G 6
  23111402.3994   12272110.51745   9554617.04361
  20202277.6104  -18764748.31447 -14534715.12663
  20559621.649    -1932365.030 6  -1495210.49323
  22591252.149    -4927092.232 6  -3778436.04421
  21577967.1574  -14074053.60846 -10787617.33161
 91  4 22 21 52 29.9970000  0  5G18G 2G19G11G 6
  23119367.5874   12313948.18645   9587217.51761
  20196802.462   -18793520.112 7 -14557134.66523
  20561085.595    -1924664.931 6  -1489210.43823
  22594811.704    -4908382.920 6  -3763857.38121
  21569578.149   -14118141.115 6 -10821971.17621
 91  4 22 21 52 44.9970000  0  5G18G 2G19G11G 6
  23127332.6034   12355805.76745   9619833.51161
  20191339.618   -18822224.914 7 -14579501.98924
  20562564.235    -1916901.744 6  -1483161.22123
  22598394.6104   -4889554.93346  -3749186.25161
  21561189.157   -14162221.102 6 -10856319.15721
 91  4 22 21 52 59.9970000  0  5G18G 2G19G11G 6
  23135301.5174   12397689.87544   9652470.17861
  20185891.1574  -18850855.90047 -14601811.82064
  20564053.001    -1909068.520 6  -1477057.43623
  22602002.415    -4870601.650 6  -3734417.48021
  21552803.7594  -14206286.60546 -10890655.85561
 91  4 22 21 53 14.9970000  0  5G18G 2G19G11G 6
  23143274.618    12439590.787 4   9685119.92421
  20180455.6574  -18879422.58747 -14624071.53563
  20565556.618    -1901174.771 6  -1470906.48823
  22605630.165    -4851532.815 6  -3719558.67521
  21544418.5174  -14250347.08546 -10924988.63761
 91  4 22 21 53 29.9970000  0  5G18G 2G19G11G 6
  23151254.587    12481518.122 3   9717790.24421
  20175033.876   -18907915.168 7 -14646273.50623
  20567071.165    -1893210.682 6  -1464700.72223
  22609282.6964   -4832338.93346  -3704602.43161
  21536038.806   -14294392.582 6 -10959309.75321
 91  4 22 21 53 44.9970000  0  5G18G 2G19G11G 6
  23159234.1424   12523465.79444   9750476.42061
  20169623.470   -18936339.418 7 -14668422.22824
  20568600.032    -1885181.706 6  -1458444.40423
  22612958.3144   -4813025.98446  -3689553.40461
  21527657.9154  -14338428.66846 -10993623.52361
 91  4 22 21 53 59.9970000  0  5G18G 2G19G11G 6
  23167223.3924   12565434.54244   9783179.04761
  20164228.3144  -18964694.46647 -14690517.02963
  20570139.735    -1877086.994 6  -1452136.86523
  22616655.079    -4793593.417 6  -3674411.17321
  21519281.267   -14382454.271 6 -11027929.13621
 91  4 22 21 54 14.9970000  0  5G18G 2G19G11G 6
  23175215.032    12607422.219 4   9815896.40921
  20158844.5404  -18992982.14247 -14712559.33364
  20571693.806    -1868928.456 6  -1445779.58823
  22620375.5014   -4774043.27046  -3659177.32561
  21510904.2124  -14426471.38846 -11062228.13261
 91  4 22 21 54 29.9970000  0  5G18G 2G19G11G 6
  23183207.6654   12649431.84645   9848630.86961
  20153475.8604  -19021199.25647 -14734546.65964
  20573258.7204   -1860702.57846  -1439369.83863
  22624120.095    -4754372.424 6  -3643849.41521
  21502529.4544  -14470476.30746 -11096517.62061
 91  4 22 21 54 44.9970000  0  5G18G 2G19G11G 6
  23191207.493    12691466.269 4   9881384.67921
  20148121.0874  -19049342.62847 -14756476.51764
  20574837.9394   -1852406.05246  -1432905.04363
  22627884.9784   -4734578.04646  -3628425.24561
  21494156.5714  -14514465.85646 -11130795.12761
 91  4 22 21 54 59.9970000  0  5G18G 2G19G11G 6
  23199208.7434   12733515.56444   9914150.06861
  20142777.1894  -19077422.10547 -14778356.59163
  20576425.790    -1844048.634 6  -1426392.79623
  22631675.3214   -4714670.07646  -3612912.57861
  21485788.6814  -14558449.59746 -11165068.11561
 91  4 22 21 55 14.9970000  0  5G18G 2G19G11G 6
  23207213.3684   12775584.60344   9946930.82661
  20137447.2354  -19105432.24747 -14800182.63564
  20578031.2354   -1835624.80246  -1419828.80063
  22635486.6424   -4694643.44346  -3597307.44161
  21477421.087   -14602422.114 6 -11199332.35821
 91  4 22 21 55 29.9970000  0  5G18G 2G19G11G 6
  23215222.251    12817672.866 3   9979726.59021
  20132130.470   -19133373.324 7 -14821954.86524
  20579645.0954   -1827134.76746  -1413213.22363
  22639318.540    -4674498.596 6  -3581610.18121
  21469055.821   -14646383.498 6 -11233587.92521
 91  4 22 21 55 44.9970000  0  5G18G 2G19G11G 6
  23223237.001    12859780.503 3  10012537.38721
  20126827.0404  -19161245.21247 -14843673.17564
  20581274.6894   -1818578.38746  -1406545.94763
  22643173.5564   -4654235.74846  -3565820.97761
  21460693.243   -14690333.477 6 -11267834.60421
 91  4 22 21 55 59.9970000  0  5G18G 2G19G11G 6
  23231253.2904   12901908.60143  10045364.17261
  20121536.0014  -19189046.48447 -14865336.46964
  20582913.6264   -1809954.07546  -1399825.73963
  22647052.8374   -4633853.73246  -3549938.92661
  21452329.9544  -14734270.44546 -11302071.14561
 91  4 22 21 56 14.9970000  0  5G18G 2G19G11G 6
  23239272.4704   12944051.32943  10078202.34561
  20116257.5094  -19216782.70847 -14886949.07364
  20584569.2044   -1801267.03446  -1393056.64963
  22650953.751    -4613358.198 6  -3533968.40621
  21443973.064   -14778199.680 6 -11336301.65721
 91  4 22 21 56 29.9970000  0  5G18G 2G19G11G 6
  23247295.728    12986212.707 3  10111055.02021
  20110992.6894  -19244449.68147 -14908507.71863
  20586234.8604   -1792513.30646  -1386235.59963
  22654874.939    -4592745.378 6  -3517906.48321
  21435614.439   -14822117.096 6 -11370522.96621
 91  4 22 21 56 44.9970000  0  5G18G 2G19G11G 6
  23255326.735    13028397.594 4  10143926.04021
  20105741.9544  -19272042.32847 -14930008.44264
  20587914.3994   -1783687.70546  -1379358.54163
  22658823.1654   -4572010.28546  -3501749.30861
  21427261.5484  -14866017.35446 -11404730.90061
 91  4 22 21 56 59.9960000  0  5G18G 2G19G11G 6
  23263355.387    13070598.335 4  10176809.46321
  20100505.1604  -19299563.18047 -14951453.22464
  20589604.7074   -1774795.16046  -1372429.31363
  22662790.059    -4551159.010 6  -3485501.58721
  21418910.5594  -14909901.89046 -11438926.57861
 91  4 22 21 57 14.9960000  0  5G18G 2G19G11G 6
  23271391.254    13112818.395 4  10209707.87221
  20095280.9964  -19327018.11247 -14972846.64664
  20591312.4414   -1765836.51946  -1365448.59663
  22666779.129    -4530191.256 6  -3469163.10021
  21410560.0664  -14953778.48646 -11473116.07761
 91  4 22 21 57 29.9960000  0  5G18G 2G19G11G 6
  23279429.2854   13155057.40044  10242621.07661
  20090069.6914  -19354402.32647 -14994184.95164
  20593026.8484   -1756809.31946  -1358414.44163
  22670791.6064   -4509105.68346  -3452732.80861
  21402213.2074  -14997641.06746 -11507294.65261
 91  4 22 21 57 44.9960000  0  5G18G 2G19G11G 6
  23287470.340    13197313.977 4  10275548.00421
  20084872.1524  -19381717.22747 -15015469.25564
  20594759.645    -1747714.915 6  -1351327.91923
  22674828.793    -4487903.919 6  -3436211.98421
  21393869.816   -15041490.874 6 -11541463.27421
 91  4 22 21 57 59.9960000  0  5G18G 2G19G11G 6
  23295515.207    13239590.327 4  10308490.29921
  20079687.3484  -19408960.43547 -15036697.69664
  20596504.106    -1738550.511 6  -1344186.85423
  22678883.168    -4466583.723 6  -3419598.86221
  21385526.8954  -15085325.31946 -11575619.92161
 91  4 22 21 58 14.9960000  0  5G18G 2G19G11G 6
  23303563.5044   13281884.49743  10341446.49461
  20074516.8634  -19436133.47447 -15057871.46064
  20598260.2234   -1729317.68746  -1336992.48063
  22682963.0904   -4445146.93046  -3402894.88761
  21377188.3324  -15129145.75746 -11609765.66061
 91  4 22 21 58 29.9960000  0  5G18G 2G19G11G 6
  23311614.231    13324193.730 3  10374414.38321
  20069359.0354  -19463239.00147 -15078992.61263
  20600030.7074   -1720019.07946  -1329746.83963
  22687064.5984   -4423596.46746  -3386102.35661
  21368851.1134  -15172954.78646 -11643902.49961
 91  4 22 21 58 44.9960000  0  5G18G 2G19G11G 6
  23319668.043    13366517.335 3  10407393.51521
  20064213.1914  -19490277.49247 -15100061.53263
  20601812.0984   -1710655.10746  -1322450.27263
  22691185.9264   -4401932.99746  -3369221.76061
  21360518.1064  -15216752.68246 -11678030.66761
 91  4 22 21 58 59.9960000  0  5G18G 2G19G11G 6
  23327725.9344   13408855.38442  10440383.89861
  20059080.4494  -19517248.26047 -15121077.68063
  20603604.1294   -1701224.98646  -1315102.15863
  22695331.176    -4380156.343 6  -3352252.95221
  21352185.1844  -15260538.67646 -11712149.56061
 91  4 22 21 59 14.9960000  0  5G18G 2G19G11G 6
  23335782.543    13451210.823 2  10473387.78521
  20053961.5434  -19544148.47047 -15142038.84463
  20605413.809    -1691725.524 6  -1307700.00923
  22699497.6064   -4358263.67946  -3335193.76761
  21343855.7934  -15304309.67646 -11746256.76861
 91  4 22 21 59 29.9960000  0  5G18G 2G19G11G 6
  23343849.2074   13493581.32144  10506403.45561
  20048855.9264  -19570980.15647 -15162946.61563
  20607235.7544   -1682158.78846  -1300245.44063
  22703684.3244   -4336257.30246  -3318045.97161
  21335529.0904  -15348067.56246 -11780353.76361
 91  4 22 21 59 44.9960000  0  5G18G 2G19G11G 6
  23351915.9574   13535968.11444  10539431.85461
  20043764.2464  -19597741.62647 -15183799.67763
  20609068.9574   -1672523.19946  -1292737.22163
  22707893.121    -4314135.814 6  -3300808.47721
  21327206.2154  -15391810.45746 -11814439.06761
 91  4 22 21 59 59.9960000  0  5G18G 2G19G11G 6
  23359981.9184   13578369.87244  10572471.86361
  20038684.0744  -19624434.22447 -15204599.05963
  20610913.6844   -1662819.95546  -1285176.28263
  22712126.637    -4291900.856 6  -3283482.55621
  21318883.8634  -15435539.62246 -11848513.68261
 91  4 22 22  0 14.9960000  0  5G18G 2G19G11G 6
  23368057.7624   13620786.23945  10605523.23061
  20033617.8564  -19651058.01747 -15225344.83563
  20612773.5594   -1653048.94046  -1277562.52763
  22716378.606    -4269552.725 6  -3266068.45421
  21310564.5984  -15479254.94446 -11882577.50261
 91  4 22 22  0 29.9960000  0  5G18G 2G19G11G 6
  23376129.4884   13663217.28445  10638586.14761
  20028565.2464  -19677612.81647 -15246036.85363
  20614644.9184   -1643209.77046  -1269895.67763
  22720652.746    -4247091.411 6  -3248566.15921
  21302248.0744  -15522956.01146 -11916630.22261
 91  4 22 22  0 44.9960000  0  5G18G 2G19G11G 6
  23384210.098    13705662.156 5  10671659.77321
  20023524.7074  -19704099.02747 -15266675.42163
  20616531.262    -1633302.857 6  -1262176.02823
  22724947.996    -4224517.756 6  -3230976.31021
  21293934.7934  -15566643.19046 -11950672.11461
 91  4 22 22  0 59.9960000  0  5G18G 2G19G11G 6
  23392288.043    13748118.519 4  10704742.31521
  20018497.1214  -19730518.72847 -15287262.15963
  20618428.356    -1623330.307 6  -1254405.23223
  22729266.1604   -4201834.10446  -3213300.77161
  21285623.6214  -15610318.42846 -11984704.69261
 91  4 22 22  1 14.9960000  0  4G 2G19G11G 6
  20013481.4574  -19756869.14047 -15307794.91263
  20620339.566    -1613289.247 6  -1246581.05023
  22733602.1064   -4179037.91146  -3195537.53661
  21277315.7934  -15653978.66446 -12018725.60161
 91  4 22 22  1 29.9960000  0  4G 2G19G11G 6
  20008480.9814  -19783150.96547 -15328274.21963
  20622264.770    -1603180.177 6  -1238703.87823
  22737961.277    -4156129.945 6  -3177687.19821
  21269009.2854  -15697624.35446 -12052735.16361
 91  4 22 22  1 44.9960000  0  4G 2G19G11G 6
  20003492.5044  -19809362.23247 -15348698.54263
  20624199.629    -1593001.105 6  -1230772.15823
  22742343.606    -4133108.624 6  -3159748.52721
  21260707.6844  -15741253.43846 -12086731.78661
 91  4 22 22  1 59.9960000  0  4G 2G19G11G 6
  19998517.6374  -19835506.50147 -15369070.66463
  20626150.113    -1582755.375 6  -1222788.49823
  22746745.6844   -4109977.61446  -3141724.39861
  21252408.3484  -15784869.29946 -12120718.10961
 91  4 22 22  2 14.9960000  0  4G 2G19G11G 6
  19993555.7464  -19861583.54747 -15389390.40163
  20628112.793    -1572442.905 6  -1214752.82923
  22751166.059    -4086737.099 6  -3123614.92321
  21244110.4964  -15828471.58046 -12154693.84661
 91  4 22 22  2 29.9960000  0  4G 2G19G11G 6
  19988605.7154  -19887594.69647 -15409658.78963
  20630087.574    -1562064.773 6  -1206665.99223
  22755609.231    -4063388.520 6  -3105421.25121
  21235816.0044  -15872061.38946 -12188659.87161
 91  4 22 22  2 44.9960000  0  4G 2G19G11G 6
  19983679.9494  -19913481.14547 -15429830.01363
  20632086.527    -1551562.184 6  -1198482.17723
  22760085.074    -4039873.383 6  -3087097.79621
  21227535.4654  -15915579.73146 -12222570.20361
 91  4 22 22  2 59.9960000  0  4G 2G19G11G 6
  19978778.3954  -19939238.07647 -15449900.31163
  20634109.652    -1540930.049 6  -1190197.42223
  22764592.402    -4016187.181 6  -3068641.03421
  21219267.7774  -15959021.69146 -12256421.02361
 91  4 22 22  3 14.9960000  0  4G 2G19G11G 6
  19973889.277   -19964929.400 7 -15469919.48423
  20636145.731    -1530232.096 6  -1181861.37523
  22769120.2464   -3992394.10146  -3050101.00661
  21211003.1684  -16002450.92246 -12290261.91961
 91  4 22 22  3 29.9960000  0  4G 2G19G11G 6
  19969013.7314  -19990552.07947 -15489885.16963
  20638192.887    -1519465.305 6  -1173471.69223
  22773667.8404   -3968491.49646  -3031475.64561
  21202742.2934  -16045864.45246 -12324090.58261
 91  4 22 22  3 44.9960000  0  4G 2G19G11G 6
  19964151.3634  -20016101.48547 -15509793.75663
  20640257.176    -1508625.021 6  -1165024.74322
  22778239.7774   -3944474.85646  -3012761.40561
  21194485.301   -16089257.166 6 -12357903.03021
 91  4 22 22  3 59.9960000  0  4G 2G19G11G 6
  19959302.8634  -20041585.66447 -15529651.51963
  20642331.113    -1497719.114 6  -1156526.65023
  22782829.8484   -3920352.47446  -2993964.78061
  21186230.8954  -16132637.04346 -12391705.46961
 91  4 22 22  4 14.9960000  0  4G 2G19G11G 6
  19954466.0984  -20067002.41047 -15549456.73963
  20644421.051    -1486745.522 6  -1147975.82323
  22787440.3874   -3896122.46946  -2975084.29261
  21177977.395   -16176001.668 6 -12425496.02821
 91  4 22 22  4 29.9960000  0  4G 2G19G11G 6
  19949642.9654  -20092347.87247 -15569206.41663
  20646521.8094   -1475700.13646  -1139369.05563
  22792072.106    -3871781.211 6  -2956117.09621
  21169729.543   -16219347.059 6 -12459271.60421
 91  4 22 22  4 44.9960000  0  4G 2G19G11G 6
  19944832.3564  -20117623.29147 -15588901.50863
  20648637.9104   -1464583.96246  -1130707.13362
  22796725.6374   -3847330.12246  -2937064.32961
  21161483.691   -16262674.217 6 -12493032.96721
 91  4 22 22  4 59.9960000  0  4G 2G19G11G 6
  19940034.7774  -20142836.67747 -15608548.26463
  20650763.348    -1453405.134 6  -1121996.38022
  22801396.902    -3822777.463 6  -2917932.41921
  21153242.066   -16305990.988 6 -12526786.23621
 91  4 22 22  5 14.9960000  0  4G 2G19G11G 6
  19935249.7624  -20167983.06147 -15628142.81363
  20652905.629    -1442158.427 6  -1113232.73623
  22806089.5984   -3798118.63846  -2898717.76761
  21145000.762   -16349292.218 6 -12560527.39421
 91  4 22 22  5 29.9960000  0  4G 2G19G11G 6
  19930476.9344  -20193061.53047 -15647684.43963
  20655058.027    -1430842.994 6  -1104415.53422
  22810801.895    -3773353.017 6  -2879419.90721
  21136763.957   -16392576.841 6 -12594255.62021
 91  4 22 22  5 44.9960000  0  4G 2G19G11G 6
  19925717.6764  -20218072.80347 -15667173.70863
  20657224.707    -1419459.325 6  -1095545.16722
  22815535.246    -3748481.367 6  -2860039.43021
  21128530.5594  -16435845.33446 -12627971.27061
 91  4 22 22  5 59.9960000  0  4G 2G19G11G 6
  19920971.5124  -20243014.12047 -15686608.46663
  20659403.184    -1408004.663 6  -1086619.47922
  22820289.0124   -3723501.29246  -2840574.46661
  21120300.098   -16479094.742 6 -12661672.04921
 91  4 22 22  6 14.9960000  0  4G 2G19G11G 6
  19916238.2464  -20267888.29447 -15705990.90563
  20661597.434    -1396481.923 6  -1077640.74222
  22825063.2384   -3698416.16446  -2821027.64861
  21112074.285   -16522327.898 6 -12695360.17022
 91  4 22 22  6 29.9960000  0  4G 2G19G11G 6
  19911516.6914  -20292694.90547 -15725320.69963
  20663801.535    -1384890.359 6  -1068608.37022
  22829856.184    -3673225.647 6  -2801398.69921
  21103850.887   -16565544.041 6 -12729035.03021
 91  4 22 22  6 44.9960000  0  4G 2G19G11G 6
  19906809.6134  -20317432.56147 -15744596.76163
  20666023.356    -1373228.286 6  -1059521.06122
  22834669.6064   -3647928.31946  -2781686.52161
  21095629.949   -16608741.413 6 -12762695.26722
 91  4 22 22  6 59.9960000  0  4G 2G19G11G 6
  19902114.6994  -20342104.31347 -15763821.47063
  20668255.457    -1361499.016 6  -1050381.38622
  22839503.5904   -3622527.73446  -2761893.89861
  21087412.957   -16651923.182 6 -12796343.34321
 91  4 22 22  7 14.9960000  0  4G 2G19G11G 6
  19897432.6914  -20366709.55147 -15782994.35363
  20670498.770    -1349701.724 6  -1041188.71422
  22844356.7544   -3597023.70946  -2742020.64261
  21079197.871   -16695088.530 6 -12829978.62521
 91  4 22 22  7 29.9960000  0  4G 2G19G11G 6
  19892763.1764  -20391251.51347 -15802117.92563
  20672755.113    -1337839.527 6  -1031945.47122
  22849229.6454   -3571419.65046  -2722069.44061
  21070987.488   -16738240.434 6 -12863603.43521
 91  4 22 22  7 44.9960000  0  4G 2G19G11G 6
  19888105.2624  -20415727.61147 -15821190.17663
  20675027.6914   -1325909.80346  -1022649.61662
  22854120.449    -3545713.314 6  -2702038.55921
  21062778.473   -16781376.077 6 -12897215.56921
 91  4 22 22  7 59.9960000  0  4G 2G19G11G 6
  19883459.7314  -20440138.63247 -15840211.71763
  20677308.6374   -1313913.07046  -1013301.54762
  22859031.629    -3519905.540 6  -2681928.62521
  21054572.098   -16824496.020 6 -12930815.47121
 91  4 22 22  8 14.9960000  0  4G 2G19G11G 6
  19878826.8164  -20464485.94847 -15859183.62063
  20679606.152    -1301850.782 6  -1003902.38722
  22863961.363    -3493997.986 6  -2661740.94121
  21046370.090   -16867601.384 6 -12964404.01321
 91  4 22 22  8 29.9960000  0  4G 2G19G11G 6
  19874206.4024  -20488764.51247 -15878101.95263
  20681912.5124   -1289717.83546   -994448.17163
  22868912.340    -3467985.927 6  -2641471.83021
  21038172.504   -16910687.086 6 -12997977.23221
 91  4 22 22  8 44.9960000  0  4G 2G19G11G 6
  19869599.6684  -20512973.59047 -15896966.13363
  20684235.387    -1277513.322 6   -984938.18422
  22873880.5354   -3441868.85546  -2621120.90361
  21029976.113   -16953752.031 6 -13031534.27521
 91  4 22 22  8 59.9960000  0  4G 2G19G11G 6
  19865004.8014  -20537117.17147 -15915779.28163
  20686571.3164   -1265240.99146   -975375.35962
  22878871.3564   -3415651.15746  -2600691.55861
  21021784.020   -16996800.151 6 -13065078.21721
 91  4 22 22  9 14.9960000  0  4G 2G19G11G 6
  19860422.7544  -20561196.16347 -15934542.10363
  20688919.0744   -1252901.97346   -965760.57562
  22883878.8794   -3389334.14146  -2580184.81861
  21013595.1684  -17039832.33346 -13098609.73161
 91  4 22 22  9 29.9960000  0  4G 2G19G11G 6
  19855852.6994  -20585210.43847 -15953254.49363
  20691279.0514   -1240496.04846   -956093.65462
  22888905.4264   -3362917.85646  -2559600.72961
  21005410.270   -17082848.031 6 -13132128.40521
 91  4 22 22  9 44.9960000  0  4G 2G19G11G 6
  19851296.3014  -20609157.62347 -15971914.60363
  20693654.8634   -1228020.63246   -946372.58262
  22893950.7384   -3336400.05946  -2538937.54461
  20997226.543   -17125844.732 6 -13165632.27721
 91  4 22 22  9 59.9960000  0  4G 2G19G11G 6
  19846750.9344  -20633038.60947 -15990523.13063
  20696039.6134   -1215476.45746   -936597.93062
  22899017.504    -3309781.866 6  -2518196.12521
  20989049.293   -17168822.952 6 -13199121.74421
 91  4 22 22 10 14.9960000  0  4G 2G19G11G 6
  19842219.3164  -20656856.24047 -16009082.29463
  20698440.8714   -1202866.35746   -926771.92162
  22904102.449    -3283066.567 6  -2497379.03121
  20980872.848   -17211785.510 6 -13232599.00921
 91  4 22 22 10 29.9960000  0  4G 2G19G11G 6
  19837700.8164  -20680602.52547 -16027585.85963
  20700856.5434   -1190182.36746   -916888.32962
  22909204.3874   -3256246.41846  -2476480.24061
  20972702.840   -17254724.262 6 -13266057.72621
 91  4 22 22 10 44.9960000  0  4G 2G19G11G 6
  19833193.1994  -20704283.42247 -16046038.47463
  20703282.2774   -1177430.32046   -906951.70662
  22914327.3244   -3229327.60546  -2455504.57161
  20964535.395   -17297644.806 6 -13299502.25321
 91  4 22 22 10 59.9960000  0  4G 2G19G11G 6
  19828701.1294  -20727898.91747 -16064440.12963
  20705722.6294   -1164610.03846   -896961.90462
  22919468.231    -3202310.420 5  -2434452.24921
  20956371.129   -17340547.076 6 -13332932.54021
 91  4 22 22 11 14.9960000  0  4G 2G19G11G 6
  19824218.7774  -20751450.66647 -16082792.10263
  20708174.2464   -1151723.05046   -886920.12762
  22924628.145    -3175196.838 5  -2413324.81121
  20948209.082   -17383432.417 6 -13366349.64021
 91  4 22 22 11 29.9960000  0  4G 2G19G11G 6
  19819749.0204  -20774937.30147 -16101093.34363
  20710637.7464   -1138767.98046   -876825.29862
  22929806.535    -3147985.740 5  -2392121.38021
  20940052.520   -17426299.456 6 -13399752.47622
 91  4 22 22 11 44.9960000  0  4G 2G19G11G 6
  19815292.4654  -20798359.66547 -16119344.50563
  20713117.4414   -1125745.48246   -866677.94362
  22935001.746    -3120678.254 5  -2370842.84521
  20931897.496   -17469148.746 6 -13433141.48422
 91  4 22 22 11 59.9960000  0  4G 2G19G11G 6
  19810847.3164  -20821717.48747 -16137545.37063
  20715609.5594   -1112655.36746   -856477.89162
  22940218.4184   -3093274.18345  -2349489.05961
  20923747.965   -17511979.732 6 -13466516.22522
 91  4 22 22 12 14.9960000  0  4G 2G19G11G 6
  19806414.6294  -20845011.98347 -16155696.89063
  20718111.2934   -1099498.56346   -846225.87062
  22945451.1994   -3065775.19246  -2328061.30161
  20915600.957   -17554793.456 6 -13499877.51822
 91  4 22 22 12 29.9960000  0  4G 2G19G11G 6
  19801995.5044  -20868238.26647 -16173795.26263
  20720627.8874   -1086270.23046   -835918.11562
  22950701.809    -3038176.794 6  -2306556.07721
  20907456.988   -17597584.875 6 -13533221.43122
 91  4 22 22 12 44.9960000  0  4G 2G19G11G 6
  19797587.1524  -20891398.44047 -16191842.12163
  20723159.8714   -1072972.39946   -825556.20462
  22955973.2934   -3010481.20945  -2284975.13961
  20899319.871   -17640355.840 6 -13566549.39922
 91  4 22 22 12 59.9960000  0  4G 2G19G11G 6
  19793192.3634  -20914493.89247 -16209838.54063
  20725703.2854   -1059606.31746   -815141.10962
  22961261.832    -2982690.157 5  -2263319.80021
  20891183.996   -17683107.519 6 -13599862.34622
 91  4 22 22 13 14.9960000  0  4G 2G19G11G 6
  19788810.0904  -20937525.56647 -16227785.26563
  20728259.2464   -1046172.88346   -804673.53562
  22966567.004    -2954804.777 5  -2241590.97121
  20883052.121   -17725840.598 6 -13633160.80122
 91  4 22 22 13 29.9960000  0  4G 2G19G11G 6
  19784439.0514  -20960496.60247 -16245684.74463
  20730826.4574   -1032675.18446   -794155.87862
  22971891.2854   -2926828.59445  -2219791.37961
  20874922.840   -17768558.177 6 -13666447.17222
 91  4 22 22 13 44.9960000  0  4G 2G19G11G 6
  19780079.3634  -20983402.52847 -16263533.48763
  20733409.6604   -1019108.65146   -783584.58962
  22977230.949    -2898757.314 5  -2197917.68721
  20866796.879   -17811255.379 6 -13699717.67522
 91  4 22 22 13 59.9960000  0  4G 2G19G11G 6
  19775733.1524  -21006240.98047 -16281329.65663
  20736005.8014   -1005470.78746   -772957.72762
  22982592.059    -2870588.720 5  -2175968.16221
  20858677.020   -17853929.554 6 -13732970.22822
 91  4 22 22 14 14.9960000  0  4G 2G19G11G 6
  19771400.0204  -21029011.05347 -16299072.53763
  20738614.1844    -991760.73246   -762274.60362
  22987973.4964   -2842322.33045  -2153942.43361
  20850560.512   -17896579.797 6 -13766204.13622
 91  4 22 22 14 29.9960000  0  4G 2G19G11G 6
  19767078.7704  -21051717.29047 -16316765.67963
  20741234.9264    -977982.89746   -751538.66862
  22993369.0354   -2813962.98045  -2131844.26861
  20842447.965   -17939210.416 6 -13799422.75422
 91  4 22 22 14 44.9960000  0  4G 2G19G11G 6
  19762770.6604  -21074363.52047 -16334412.06063
  20743868.762     -964140.872 6   -740752.70222
  22998782.223    -2785514.761 5  -2109676.85021
  20834339.699   -17981825.064 6 -13832628.92222
 91  4 22 22 14 59.9960000  0  4G 2G19G11G 6
  19758471.6994  -21096950.91347 -16352012.59863
  20746516.0594    -950235.86946   -729917.66362
  23004212.793    -2756979.123 5  -2087441.29921
  20826233.481   -18024424.552 6 -13865823.27822
 91  4 22 22 15 14.9960000  0  4G 2G19G11G 6
  19754186.0514  -21119469.66647 -16369559.65263
  20749175.152     -936257.991 6   -719025.83922
  23009660.340    -2728346.610 5  -2065130.28421
  20818131.465   -18066998.883 6 -13898998.03522
 91  4 22 22 15 29.9960000  0  4G 2G19G11G 6
  19749913.9654  -21141925.60047 -16387057.75263
  20751846.8874    -922213.00746   -708081.72362
  23015127.082    -2699623.359 5  -2042748.55421
  20810032.285   -18109553.763 6 -13932157.62822
 91  4 22 22 15 44.9960000  0  4G 2G19G11G 6
  19745652.2384  -21164317.80047 -16404506.19363
  20754533.9104    -908099.88446   -697084.52162
  23020610.043    -2670808.757 5  -2020295.65921
  20801938.965   -18152088.087 6 -13965301.20922
 91  4 22 22 15 59.9960000  0  4G 2G19G11G 6
  19741401.652   -21186650.792 7 -16421908.49523
  20757230.8094    -893923.27146   -686037.84162
  23026109.746    -2641907.623 5  -1997775.31721
  20793848.043   -18194606.226 6 -13998432.17822
 91  4 22 22 16 14.9960000  0  4G 2G19G11G 6
  19737164.7384  -21208920.45547 -16439261.45663
  20759942.2934    -879678.90946   -674938.37962
  23031628.8794   -2612916.16145  -1975184.59461
  20785760.473   -18237103.803 6 -14031547.12422
 91  4 22 22 16 29.9960000  0  4G 2G19G11G 6
  19732940.199   -21231123.256 7 -16456562.31323
  20762665.9414    -865362.93946   -663783.10962
  23037162.6374   -2583830.84145  -1952520.75161
  20777678.887   -18279576.932 6 -14064643.02322
 91  4 22 22 16 44.9960000  0  4G 2G19G11G 6
  19728726.637   -21253258.230 7 -16473810.31823
  20765405.7234    -850974.54846   -652571.41262
  23042713.9574   -2554650.96945  -1929783.21961
  20769602.113   -18322024.405 6 -14097718.92622
 91  4 22 22 16 59.9960000  0  4G 2G19G11G 6
  19724525.723   -21275334.787 7 -16491012.80523
  20768154.5664    -836522.83146   -641310.37462
  23048283.785    -2525386.323 5  -1906979.63021
  20761527.387   -18364455.361 6 -14130781.95622
 91  4 22 22 17 14.9960000  0  4G 2G19G11G 6
  19720336.731   -21297352.752 7 -16508169.63623
  20770918.5514    -822007.55246   -629999.80462
  23053867.879    -2496036.993 5  -1884110.04621
  20753456.051   -18406869.475 6 -14163831.87022
 91  4 22 22 17 29.9960000  0  4G 2G19G11G 6
  19716158.699   -21319305.573 7 -16525275.70723
  20773692.3634    -807422.19646   -618634.63462
  23059470.598    -2466596.801 5  -1861169.65221
  20745388.621   -18449259.937 6 -14196863.34822
 91  4 22 22 17 44.9960000  0  4G 2G19G11G 6
  19711993.363   -21341192.899 7 -16542330.74324
  20776480.9104    -792766.31446   -607214.49862
  23065089.098    -2437065.658 5  -1838158.39721
  20737328.051   -18491626.208 6 -14229875.98022
 91  4 22 22 17 59.9960000  0  4G 2G19G11G 6
  19707840.371   -21363015.464 7 -16559335.31323
  20779282.2074    -778040.72146   -595740.04962
  23070726.340    -2407444.691 5  -1815077.13821
  20729268.184   -18533969.011 6 -14262870.32022
 91  4 22 22 18 14.9960000  0  4G 2G19G11G 6
  19703700.441   -21384775.500 7 -16576291.16223
  20782098.793     -763247.396 6   -584212.82622
  23076382.168    -2377736.269 5  -1791927.74621
  20721214.629   -18576290.190 6 -14295847.80822
 91  4 22 22 18 29.9960000  0  4G 2G19G11G 6
  19699571.387   -21406474.468 7 -16593199.42523
  20784925.2544    -748387.75646   -572633.92162
  23082049.0514   -2347942.26245  -1768711.63161
  20713166.184   -18618590.987 6 -14328809.42122
 91  4 22 22 18 44.9960000  0  4G 2G19G11G 6
  19695453.848   -21428112.125 7 -16610059.91424
  20787766.6604    -733461.44246   -561003.07162
  23087734.7624   -2318062.52845  -1745428.73761
  20705119.465   -18660870.827 6 -14361754.70022
 91  4 22 22 18 59.9960000  0  4G 2G19G11G 6
  19691347.535   -21449688.342 7 -16626872.52623
  20790619.2704    -718468.42946   -549320.23962
  23093439.3954   -2288097.36045  -1722079.31361
  20697079.129   -18703129.388 6 -14394683.40222
 91  4 22 22 19 14.9960000  0  4G 2G19G11G 6
  19687254.637   -21471201.896 7 -16643636.31023
  20793486.0204    -703407.33246   -537584.35462
  23099155.7314   -2258045.82145  -1698662.54661
  20689040.512   -18745365.504 6 -14427594.60722
 91  4 22 22 19 29.9960000  0  4G 2G19G11G 6
  19683171.652   -21492653.540 7 -16660351.85723
  20796366.9574    -688278.94546   -525796.03862
  23104891.066    -2227909.082 5  -1675179.39321
  20681008.488   -18787579.786 6 -14460488.80322
 91  4 22 22 19 44.9960000  0  4G 2G19G11G 6
  19679101.1214  -21514043.40847 -16677019.25963
  20799256.691     -673083.112 6   -513955.17222
  23110643.1914   -2197687.34345  -1651630.00061
  20672979.738   -18829771.833 6 -14493365.66822
 91  4 22 22 19 59.9960000  0  4G 2G19G11G 6
  19675043.254   -21535372.780 7 -16693639.51723
  20802160.207     -657820.928 6   -502062.61322
  23116408.5514   -2167382.19045  -1628015.64361
  20664954.473   -18871942.675 6 -14526226.01722
 91  4 22 22 20 14.9960000  0  4G 2G19G11G 6
  19670994.910   -21556643.676 7 -16710214.22423
  20805077.449     -642494.642 6   -490120.10022
  23122189.684    -2136996.038 5  -1604338.15221
  20656932.965   -18914094.139 6 -14559071.26322
 91  4 22 22 20 29.9960000  0  4G 2G19G11G 6
  19666959.863   -21577847.657 7 -16726736.78723
  20808005.637     -627095.578 6   -478120.87722
  23127992.262    -2106520.767 5  -1580591.21621
  20648918.121   -18956217.684 6 -14591894.75222
 91  4 22 22 20 44.9960000  0  4G 2G19G11G 6
  19662936.668   -21598987.275 7 -16743209.19223
  20810952.324     -611626.094 6   -466066.77922
  23133808.746    -2075958.926 5  -1556776.80621
  20640905.395   -18998315.322 6 -14624698.05722
 91  4 22 22 20 59.9960000  0  4G 2G19G11G 6
  19658926.152   -21620061.589 7 -16759630.71324
  20813909.402     -596085.381 6   -453957.18322
  23139639.1214   -2045309.92745  -1532894.49261
  20632900.371   -19040386.033 6 -14657480.38022
 91  4 22 22 21 14.9960000  0  4G 2G19G11G 6
  19654927.387   -21641074.939 7 -16776004.72923
  20816879.129     -580477.664 6   -441795.37822
  23145487.7934   -2014578.42545  -1508947.91161
  20624899.231   -19082433.895 6 -14690244.90222
 91  4 22 22 21 29.9960000  0  4G 2G19G11G 6
  19650940.379   -21662031.295 7 -16792334.33323
  20819862.363     -564806.828 6   -429584.38722
  23151349.574    -1983768.784 5  -1484940.40221
  20616900.285   -19124462.697 6 -14722994.56422
 91  4 22 22 21 44.9960000  0  4G 2G19G11G 6
  19646964.481   -21682927.317 7 -16808616.92224
  20822855.574     -549069.330 6   -417321.45122
  23157229.0664   -1952877.89145  -1460869.61261
  20608907.707   -19166468.761 6 -14755726.51422
 91  4 22 22 21 59.9960000  0  4G 2G19G11G 6
  19643000.043   -21703759.827 7 -16824850.02123
  20825863.309     -533262.172 6   -405004.23122
  23163122.871    -1921903.009 5  -1436733.36821
  20600920.184   -19208448.911 6 -14788438.26922
 91  4 22 22 22 14.9960000  0  4G 2G19G11G 6
  19639046.606   -21724532.244 7 -16841036.29823
  20828885.402     -517388.546 6   -392635.21322
  23169033.0744   -1890847.80245  -1412534.50961
  20592934.816   -19250406.363 6 -14821132.33722
 91  4 22 22 22 29.9960000  0  4G 2G19G11G 6
  19635105.137   -21745243.977 7 -16857175.28624
  20831916.965     -501447.895 6   -380213.97922
  23174955.9264   -1859711.84245  -1388272.74261
  20584955.504   -19292340.187 6 -14853807.99322
 91  4 22 22 22 44.9960000  0  4G 2G19G11G 6
  19631174.941   -21765897.690 8 -16873269.06524
  20834964.137     -485442.856 6   -367742.56922
  23180897.5434   -1828498.03845  -1363950.33261
  20576978.699   -19334252.773 6 -14886467.10322
 91  4 22 22 22 59.9960000  0  4G 2G19G11G 6
  19627256.785   -21786487.414 7 -16889312.98224
  20838024.504     -469367.516 6   -355216.38522
  23186852.621    -1797200.865 5  -1339562.98821
  20569009.746   -19376137.959 6 -14919104.86322
 91  4 22 22 23 14.9960000  0  4G 2G19G11G 6
  19623349.848   -21807017.224 7 -16905310.21224
  20841094.668     -453225.880 6   -342638.53822
  23192823.2934   -1765824.73945  -1315114.05461
  20561043.379   -19417999.659 6 -14951724.32022
 91  4 22 22 23 29.9960000  0  4G 2G19G11G 6
  19619455.652   -21827481.114 7 -16921256.07424
  20844182.184     -437011.499 6   -330004.00822
  23198808.848    -1734363.673 5  -1290598.94021
  20553083.191   -19459831.417 6 -14984320.44922
 91  4 22 22 23 44.9960000  0  4G 2G19G11G 6
  19615572.793   -21847884.691 7 -16937154.94024
  20847279.207     -420729.906 6   -317317.09822
  23204810.035    -1702823.721 5  -1266022.40221
  20545126.793   -19501638.571 6 -15016897.40422
 91  4 22 22 23 59.9960000  0  4G 2G19G11G 6
  19611703.371   -21868221.119 7 -16953001.48024
  20850389.488     -404374.350 6   -304572.55222
  23210830.3014   -1671198.34645  -1241379.28961
  20537177.246   -19543414.157 6 -15049449.75622
 91  4 22 22 24 14.9960000  0  4G 2G19G11G 6
  19607844.848   -21888496.472 7 -16968800.42724
  20853515.676     -387950.903 6   -291775.11322
  23216864.473    -1639493.995 5  -1216674.61221
  20529231.707   -19585164.010 6 -15081982.06622
 91  4 22 22 24 29.9960000  0  4G 2G19G11G 6
  19603998.606   -21908711.678 7 -16984552.51124
  20856656.113     -371460.592 6   -278925.57022
  23222913.535    -1607711.853 5  -1191909.33521
  20521290.824   -19626888.962 6 -15114494.96822
 91  4 22 22 24 44.9960000  0  4G 2G19G11G 6
  19600163.254   -21928866.836 7 -17000257.80124
  20859805.106     -354903.251 6   -266023.80022
  23228973.3634   -1575852.28345  -1167083.72061
  20513356.566   -19668588.887 6 -15146988.37122
 91  4 22 22 24 59.9960000  0  4G 2G19G11G 6
  19596340.7464  -21948955.53048 -17015911.30363
  20862970.098     -338272.240 6   -253064.62722
  23235050.7154   -1543909.12145  -1142192.97861
  20505426.527   -19710256.925 6 -15179456.92922
 91  4 22 22 25 14.9960000  0  4G 2G19G11G 6
  19592529.7154  -21968982.31848 -17031516.56064
  20866148.004     -321572.280 6   -240051.71122
  23241147.2464   -1511887.43645  -1117241.05361
  20497502.801   -19751897.558 6 -15211904.13422
 91  4 22 22 25 29.9960000  0  4G 2G19G11G 6
  19588729.6914  -21988950.22048 -17047075.93963
  20869337.559     -304806.345 6   -226987.39522
  23247253.9344   -1479790.29445  -1092230.32361
  20489584.199   -19793513.380 6 -15244332.00222
 91  4 22 22 25 44.9960000  0  3G 2G19G 6
  19584940.8244  -22008859.10448 -17062589.32564
  20872541.801     -287974.186 6   -213871.47922
  20481671.246   -19835104.094 6 -15276740.30522
 91  4 22 22 25 59.9960000  0  3G 2G19G 6
  19581162.5434  -22028712.84348 -17078059.74664
  20875755.379     -271079.595 6   -200706.91922
  20473760.527   -19876673.335 6 -15309131.87622
 91  4 22 22 26 14.9960000  0  3G 2G19G 6
  19577394.8874  -22048511.22148 -17093487.02364
  20878983.809     -254122.305 6   -187493.49922
  20465853.316   -19918220.542 6 -15341506.27622
 91  4 22 22 26 29.9960000  0  3G 2G19G 6
  19573637.934   -22068252.457 8 -17108869.77524
  20882224.223     -237100.358 6   -174229.69622
  20457952.934   -19959743.747 6 -15373861.98022
 91  4 22 22 26 44.9950000  0  3G 2G19G 6
  19569894.2024  -22087929.24548 -17124202.30863
  20885475.569     -220008.955 6   -160911.77022
  20450056.405   -20001234.153 6 -15406192.11822
 91  4 22 22 26 59.9950000  0  3G 2G19G 6
  19566161.3664  -22107547.04348 -17139488.87764
  20888740.116     -202848.639 6   -147540.14022
  20442165.015   -20042699.652 6 -15438502.85022
 91  4 22 22 27 14.9950000  0  3G 2G19G 6
  19562439.6084  -22127105.31248 -17154729.05564
  20892017.780     -185621.274 6   -134116.26622
  20434279.351   -20084137.983 6 -15470792.41422
 91  4 22 22 27 29.9950000  0  3G 2G19G 6
  19558729.663   -22146598.074 8 -17169918.19224
  20895310.944     -168320.614 6   -120635.27822
  20426401.062   -20125543.052 6 -15503056.06122
 91  4 22 22 27 44.9950000  0  3G 2G19G 6
  19555031.7024  -22166030.44748 -17185060.27264
  20898616.663     -150951.808 6   -107101.19622
  20418526.858   -20166919.502 6 -15535297.40222
 91  4 22 22 27 59.9950000  0  3G 2G19G 6
  19551344.6014  -22185405.30248 -17200157.53164
  20901933.491     -133517.965 6    -93516.43422
  20410656.944   -20208270.136 6 -15567518.63222
 91  4 22 22 28 14.9950000  0  3G 2G19G 6
  19547669.3824  -22204720.85648 -17215208.58764
  20905263.7884    -116017.07146    -79879.43462
  20402796.046   -20249593.003 6 -15599718.22322
 91  4 22 22 28 29.9950000  0  3G 2G19G 6
  19544003.8664  -22223979.68848 -17230215.43864
  20908605.5464     -98451.36546    -66191.93062
  20394936.327   -20290890.376 6 -15631897.94822
 91  4 22 22 28 44.9950000  0  3G 2G19G 6
  19540352.0854  -22243176.52148 -17245173.97864
  20911962.4834     -80815.82846    -52450.01762
  20387082.866   -20332156.699 6 -15664053.47722
 91  4 22 22 28 59.9950000  0  3G 2G19G 6
  19536710.2414  -22262312.52448 -17260085.12364
  20915332.3434     -63111.24446    -38654.29462
  20379236.429   -20373392.862 6 -15696185.49822
 91  4 22 22 29 14.9950000  0  3G 2G19G 6
  19533077.7574  -22281397.03848 -17274956.14463
  20918712.5934     -45347.09046    -24812.15162
  20371395.124   -20414607.979 6 -15728301.13122
 91  4 22 22 29 29.9950000  0  3G 2G19G 6
  19529457.9914  -22300420.88348 -17289779.89264
  20922106.171      -27514.358 6    -10916.57222
  20363555.421   -20455792.642 7 -15760393.02322
 91  4 22 22 29 44.9950000  0  4G15G 2G19G 6
  22946101.2574         -0.98855
  19525849.4684  -22319384.48448 -17304556.69863
  20925512.796       -9613.404 6      3032.16922
  20355725.015   -20496947.115 7 -15792461.39522
 91  4 22 22 29 59.9950000  0  4G15G 2G19G 6
  22938365.218      -40653.112 5
  19522251.929   -22338290.293 7 -17319288.47124
  20928930.718        8353.546 6     17032.33722
  20347898.929   -20538073.334 7 -15824507.75022
 91  4 22 22 30 14.9950000  0  4G15G 2G19G 6
  22930642.6244     -81228.13045
  19518664.9134  -22357138.27647 -17333975.18463
  20932364.351       26386.765 6     31084.14622
  20340079.226   -20579171.056 7 -15856531.90222
 91  4 22 22 30 29.9950000  0  4G15G 2G19G 6
  22922937.632     -121725.458 5        -0.22931
  19515089.194   -22375928.130 7 -17348616.59923
  20935805.991       44486.546 6     45187.82722
  20332262.679   -20620239.839 7 -15888533.49522
 91  4 22 22 30 44.9950000  0  4G15G 2G19G 6
  22915246.5624    -162140.46145    -31492.25861
  19511525.319   -22394655.491 7 -17363209.32724
  20939264.937       62657.164 6     59346.70722
  20324454.343   -20661275.034 7 -15920508.92222
 91  4 22 22 30 59.9950000  0  4G15G 2G19G 6
  22907572.710     -202476.856 5    -62923.02821
  19507973.038   -22413324.481 7 -17377756.56723
  20942734.788       80894.645 6     73557.68322
  20316651.382   -20702280.533 7 -15952461.20622
 91  4 22 22 31 14.9950000  0  4G15G 2G19G 6
  22899909.2414    -242728.90945    -94288.09361
  19504432.343   -22431929.883 7 -17392254.26323
  20946219.655       99204.278 6     87824.87922
  20308855.421   -20743250.755 7 -15984386.00822
 91  4 22 22 31 29.9950000  0  4G15G 2G19G 6
  22892264.0694    -282904.66945   -125593.69961
  19500902.507   -22450480.187 7 -17406709.01923
  20949716.062      117577.382 6    102141.53522
  20301062.202   -20784194.123 7 -16016289.87222
 91  4 22 22 31 44.9950000  0  4G15G 2G19G 6
  22884635.851     -322997.234 5   -156834.48321
  19497384.249   -22468968.888 7 -17421115.77924
  20953225.499      136020.575 6    116512.80722
  20293279.413   -20825103.743 7 -16048167.44522
 91  4 22 22 31 59.9950000  0  4G15G 2G19G 6
  22877024.960     -363006.742 5   -188010.56321
  19493877.812   -22487396.642 8 -17435475.04524
  20956749.413      154533.341 6    130938.28722
  20285497.999   -20865980.072 7 -16080019.07622
 91  4 22 22 32 14.9950000  0  4G15G 2G19G 6
  22869422.358     -402935.703 5   -219123.88721
  19490381.179   -22505766.590 7 -17449789.27224
  20960284.796      173112.848 6    145415.78022
  20277727.140   -20906825.911 7 -16111846.94622
 91  4 22 22 32 29.9950000  0  4G15G 2G19G 6
  22861842.7264    -442782.90545   -250173.49261
  19486897.069   -22524077.720 7 -17464057.66223
  20963831.796      191759.930 6    159945.92522
  20269960.288   -20947639.854 7 -16143649.97022
 91  4 22 22 32 44.9950000  0  4G15G 2G19G 6
  22854276.358     -482552.554 5   -281162.69321
  19483422.788   -22542334.865 7 -17478283.99024
  20967393.8354     210469.78346    174524.98962
  20262198.554   -20988426.536 7 -16175431.74922
 91  4 22 22 32 59.9950000  0  4G15G 2G19G 6
  22846723.2964    -522238.92645   -312086.99561
  19479959.476   -22560532.444 7 -17492463.90324
  20970966.718      229248.022 6    189157.33922
  20254444.476   -21029180.284 7 -16207187.86122
 91  4 22 22 33 14.9950000  0  4G15G 2G19G 6
  22839187.429     -561842.828 5   -342947.00621
  19476508.827   -22578671.876 7 -17506598.50723
  20974552.991      248093.270 6    203841.89921
  20246694.085   -21069902.321 7 -16238919.26922
 91  4 22 22 33 29.9950000  0  4G15G 2G19G 6
  22831666.288     -601369.774 5   -373747.07921
  19473066.171   -22596758.810 7 -17520692.20324
  20978149.655      266999.744 6    218574.16522
  20238950.624   -21110598.077 7 -16270630.19522
 91  4 22 22 33 44.9950000  0  4G15G 2G19G 6
  22824157.991     -640809.986 5   -404479.56921
  19469635.554   -22614783.866 7 -17534737.68323
  20981761.476      285977.064 6    233361.62922
  20231212.663   -21151257.758 7 -16302313.01622
 91  4 22 22 33 59.9950000  0  4G15G 2G19G 6
  22816668.093     -680164.244 5   -435145.08321
  19466217.819   -22632748.531 7 -17548736.10524
  20985387.5304     305023.82846    248203.20462
  20223482.726   -21191882.351 7 -16333968.49522
 91  4 22 22 34 14.9950000  0  4G15G 2G19G 6
  22809192.843     -719437.379 5   -465747.37021
  19462809.640   -22650657.700 7 -17562691.28524
  20989023.702      324135.011 6    263094.97521
  20215757.687   -21232476.872 7 -16365600.53723
 91  4 22 22 34 29.9950000  0  4G15G 2G19G 6
  22801735.3664    -758625.74145   -496283.62061
  19459412.116   -22668508.246 7 -17576600.78524
  20992672.163      343313.853 6    278039.47921
  20208040.155   -21273037.777 7 -16397206.38922
 91  4 22 22 34 44.9950000  0  4G15G 2G19G 6
  22794294.3744    -797726.27645   -526751.41961
  19456027.210   -22686297.556 7 -17590462.56623
  20996336.421      362563.005 6    293038.77421
  20200328.851   -21313562.264 7 -16428783.86322
 91  4 22 22 34 59.9950000  0  4G15G 2G19G 6
  22786874.1874    -836742.47645   -557153.50361
  19452653.187   -22704029.669 7 -17604279.78023
  21000009.577      381878.505 6    308089.76921
  20192622.507   -21354053.977 7 -16460335.79923
 91  4 22 22 35 14.9950000  0  4G15G 2G19G 6
  22779461.819     -875676.526 5   -587491.58721
  19449288.944   -22721707.341 7 -17618054.57123
  21003699.562      401257.724 6    323190.41621
  20184923.023   -21394515.336 7 -16491864.08023
 91  4 22 22 35 29.9950000  0  4G15G 2G19G 6
  22772072.7494    -914523.18545   -617761.57661
  19445936.468   -22739325.342 7 -17631782.86324
  21007400.827      420705.774 6    338344.69221
  20177230.187   -21434940.875 7 -16523364.45522
 91  4 22 22 35 44.9950000  0  4G15G 2G19G 6
  22764693.257     -953283.199 5   -647964.06621
  19442594.593   -22756885.149 7 -17645465.81124
  21011113.304      440221.336 6    353551.58321
  20169543.898   -21475331.964 7 -16554837.98322
 91  4 22 22 35 59.9950000  0  4G15G 2G19G 6
  22757332.905     -991957.254 5   -678099.57021
  19439264.030   -22774387.747 7 -17659104.17924
  21014842.608      459803.540 6    368810.39821
  20161864.0464  -21515689.32347 -16586285.23263
 91  4 22 22 36 14.9950000  0  4G15G 2G19G 6
  22749991.108    -1030544.679 5   -708167.57921
  19435944.460   -22791832.933 7 -17672697.81723
  21018580.452      479452.570 6    384121.28121
  20154191.202   -21556012.329 7 -16617705.71123
 91  4 22 22 36 29.9950000  0  4G15G 2G19G 6
  22742668.179    -1069046.111 5   -738168.58321
  19432635.101   -22809221.757 7 -17686247.52923
  21022328.663      499167.332 6    399483.38821
  20146524.116   -21596301.887 7 -16649100.12823
 91  4 22 22 36 44.9950000  0  4G15G 2G19G 6
  22735355.444    -1107461.200 5   -768102.29521
  19429338.046   -22826554.325 7 -17699753.40623
  21026095.616      518947.738 6    414896.64821
  20138861.804   -21636557.756 7 -16680468.29023
 91  4 22 22 36 59.9950000  0  4G15G 2G19G 6
  22728063.366    -1145789.168 5   -797968.11821
  19426049.858   -22843830.160 7 -17713215.07624
  21029872.687      538794.490 6    430361.59622
  20131209.577   -21676779.102 7 -16711809.55422
 91  4 22 22 37 14.9950000  0  4G15G 2G19G 6
  22720782.851    -1184034.188 5   -827769.32221
  19422772.483   -22861053.619 7 -17726635.93323
  21033660.429      558703.112 6    445874.75322
  20123561.382   -21716970.270 7 -16743127.30322
 91  4 22 22 37 29.9950000  0  4G15G 2G19G 6
  22713522.4054   -1222187.01945   -857498.70261
  19419506.835   -22878215.854 7 -17740009.08323
  21037461.0934     578682.46246    461443.02062
  20115920.601   -21757122.021 7 -16774414.33622
 91  4 22 22 37 44.9950000  0  4G15G 2G19G 6
  22706280.8274   -1260252.06645   -887159.66961
  19416250.812   -22895321.794 7 -17753338.36523
  21041275.960      598727.684 6    477062.61822
  20108286.179   -21797239.106 7 -16805674.36122
 91  4 22 22 37 59.9950000  0  5G15G 2G19G13G 6
  22699056.265    -1298221.237 5   -916745.92421
  19413008.015   -22912363.981 7 -17766617.96824
  21045105.007      618846.419 6    492739.50621
  22654696.5934         -0.36654
  20100660.038   -21837313.484 7 -16836901.10523
 91  4 22 22 38 14.9950000  0  5G15G 2G19G13G 6
  22691845.9834   -1336098.06245   -946260.23261
  19409776.077   -22929346.240 7 -17779850.87224
  21048948.155      639034.812 6    508470.67722
  22640764.8744     -73203.49544
  20093041.265   -21877348.953 7 -16868097.53322
 91  4 22 22 38 29.9950000  0  5G15G 2G19G13G 6
  22684656.9054   -1373884.70145   -975704.27661
  19406555.437   -22946270.920 7 -17793038.91424
  21052800.843      659290.191 6    524254.03421
  22626843.9524    -146378.65444
  20085430.757   -21917347.697 7 -16899265.33923
 91  4 22 22 38 44.9950000  0  5G15G 2G19G13G 6
  22677479.554    -1411584.557 5  -1005080.67521
  19403345.702   -22963141.745 7 -17806184.99624
  21056670.5304     679609.00546    540086.81861
  22612921.7024    -219528.85544
  20077826.1164  -21957313.05247 -16930407.14162
 91  4 22 22 38 59.9950000  0  5G15G 2G19G13G 6
  22670325.2264   -1449192.00345  -1034385.09261
  19400145.991   -22979953.848 7 -17819285.31423
  21060548.523      699996.263 6    555972.95021
  22599008.7804    -292648.68044
  20070228.319   -21997239.783 7 -16961518.83622
 91  4 22 22 39 14.9950000  0  5G15G 2G19G13G 6
  22663185.8194   -1486707.21845  -1063617.63261
  19396958.155   -22996707.695 7 -17832340.24123
  21064438.171      720451.689 6    571912.19722
  22585096.6794    -365737.99944
  20062637.5544  -22037128.13347 -16992600.62563
 91  4 22 22 39 29.9950000  0  5G15G 2G19G13G 6
  22656063.1634   -1524131.67445  -1092779.46761
  19393780.429   -23013404.942 7 -17845351.06423
  21068344.288      740973.635 6    587903.26721
  22571197.093     -438798.135 4
  20055053.171   -22076979.665 7 -17023653.72723
 91  4 22 22 39 44.9950000  0  5G15G 2G19G13G 6
  22648961.0854   -1561465.22145  -1121870.44261
  19390613.163   -23030046.254 7 -17858318.29323
  21072262.491      761561.381 6    603945.61321
  22557297.4684    -511829.26644        -0.06271
  20047476.8354  -22116794.65347 -17054678.35262
 91  4 22 22 39 59.9950000  0  5G15G 2G19G13G 6
  22641872.710    -1598708.827 5  -1150891.37921
  19387457.405   -23046632.839 7 -17871242.88723
  21076193.8584     782213.81246    620038.35662
  22543406.976     -584832.102 5    -56884.94421
  20039908.0774  -22156573.84347 -17085675.08362
 91  4 22 22 40 14.9950000  0  5G15G 2G19G13G 6
  22634806.874    -1635858.999 5  -1179839.45921
  19384311.694   -23063161.552 7 -17884122.38323
  21080136.7494     802933.95246    636183.86462
  22529518.351     -657803.182 4   -113745.16921
  20032345.171   -22196313.814 7 -17116641.25523
 91  4 22 22 40 29.9950000  0  5G15G 2G19G13G 6
  22627754.5464   -1672914.37045  -1208713.71061
  19381177.773   -23079631.643 7 -17896956.20123
  21084091.0934     823722.85046    652382.94662
  22515637.9214    -730741.33244   -170579.61461
  20024789.898   -22236013.540 7 -17147576.06623
 91  4 22 22 40 44.9950000  0  5G15G 2G19G13G 6
  22620719.835    -1709882.401 5  -1237519.88321
  19378053.804   -23096050.433 7 -17909750.04224
  21088059.5154     844572.86746    668629.65462
  22501763.4834    -803653.35545   -227393.74861
  20017241.7654  -22275680.47747 -17178485.32663
 91  4 22 22 40 59.9950000  0  5G15G 2G19G13G 6
  22613697.687    -1746759.005 5  -1266254.81321
  19374939.421   -23112414.575 7 -17922501.30123
  21092039.2104     865487.54146    684926.74762
  22487895.2184    -876535.43444   -284184.60961
  20009700.0694  -22315310.75247 -17209366.02563
 91  4 22 22 41 14.9950000  0  5G15G 2G19G13G 6
  22606699.983    -1783541.332 5  -1294916.28621
  19371835.835   -23128721.809 7 -17935208.21823
  21096033.3124     886469.12946    701275.96962
  22474030.140     -949385.027 4   -340950.03921
  20002166.8044  -22354901.78847 -17240216.14663
 91  4 22 22 41 29.9950000  0  5G15G 2G19G13G 6
  22599719.7804   -1820232.92145  -1323507.04561
  19368743.562   -23144975.995 7 -17947873.79723
  21100037.1244     907513.78546    717674.34362
  22460174.8824   -1022205.49944   -397692.86461
  19994640.3434  -22394457.11647 -17271038.44063
 91  4 22 22 41 44.9950000  0  5G15G 2G19G13G 6
  22592754.843    -1856826.894 5  -1352021.77621
  19365661.202   -23161170.533 7 -17960492.89823
  21104054.7184     928628.07646    734126.97062
  22446323.4294   -1094989.78444   -454407.48161
  19987120.3354  -22433969.92947 -17301827.61263
 91  4 22 22 41 59.9950000  0  5G15G 2G19G13G 6
  22585811.444    -1893327.556 5  -1380463.75421
  19362590.210   -23177310.007 7 -17973069.09223
  21108084.6874     949807.52446    750630.36762
  22432480.2734   -1167741.80445   -511096.92761
  19979607.8044  -22473444.49747 -17332586.97563
 91  4 22 22 42 14.9950000  0  5G15G 2G19G13G 6
  22578883.5304   -1929735.53345  -1408833.52961
  19359529.483   -23193395.635 7 -17985603.32923
  21112129.1944     971051.05246    767183.69862
  22418639.4374   -1240462.45944   -567762.02861
  19972103.4134  -22512881.75347 -17363317.27063
 91  4 22 22 42 29.9950000  0  5G15G 2G19G13G 6
  22571974.4764   -1966046.49045  -1437127.74061
  19356479.827   -23209423.293 7 -17998092.39324
  21116183.8584     992362.76246    783790.16261
  22404807.312    -1313147.178 5   -624399.00821
  19964605.8434  -22552277.20347 -17394014.98863
 91  4 22 22 42 44.9950000  0  5G15G 2G19G13G 6
  22565078.4294   -2002265.01345  -1465349.88161
  19353439.874   -23225398.044 7 -18010540.23324
  21120251.2494    1013737.61046    800445.82962
  22390982.7334   -1385800.77144   -681011.81261
  19957117.8044  -22591635.72747 -17424683.93263
 91  4 22 22 42 59.9950000  0  5G15G 2G19G13G 6
  22558206.155    -2038387.054 5  -1493496.85521
  19350410.210   -23241316.253 7 -18022944.01123
  21124330.2574    1035179.23646    817153.53062
  22377163.8744   -1458419.21744   -737597.22861
  19949636.2574  -22630953.45547 -17455321.08963
 91  4 22 22 43 14.9950000  0  5G15G 2G19G13G 6
  22551348.960    -2074416.271 5  -1521571.47821
  19347391.351   -23257181.885 7 -18035306.82323
  21128424.8904    1056683.67946    833910.17361
  22363351.8744   -1531005.75045   -794157.76361
  19942161.1014  -22670234.03747 -17485929.29563
 91  4 22 22 43 29.9950000  0  5G15G 2G19G13G 6
  22544509.7574   -2110347.17345  -1549569.52061
  19344383.030   -23272989.852 7 -18047624.70123
  21132528.8194    1078256.00846    850719.72062
  22349545.3984   -1603554.81344   -850689.10261
  19934693.8434  -22709472.13047 -17516504.40063
 91  4 22 22 43 44.9950000  0  5G15G 2G19G13G 6
  22537689.851    -2146182.497 5  -1577493.08021
  19341385.398   -23288743.306 7 -18059900.10023
  21136646.882     1099893.141 6    867579.76122
  22335746.194    -1676069.351 5   -907193.55621
  19927234.7414  -22748670.55147 -17547048.59063
 91  4 22 22 43 59.9950000  0  5G15G 2G19G13G 6
  22530892.140    -2181922.441 5  -1605342.31621
  19338397.265   -23304442.826 7 -18072133.47424
  21140776.0934    1121594.40646    884489.77661
  22321952.319    -1748549.347 4   -963671.10321
  19919782.3044  -22787829.71547 -17577562.18563
 91  4 22 22 44 14.9950000  0  5G15G 2G19G13G 6
  22524108.913    -2217566.753 5  -1633117.02321
  19335420.444   -23320088.400 7 -18084324.81324
  21144919.4214    1143359.80646    901449.76162
  22308168.671    -1820994.511 4  -1020121.44321
  19912339.1404  -22826949.19647 -17608044.86163
 91  4 22 22 44 29.9950000  0  5G15G 2G19G13G 6
  22517342.960    -2253111.343 5  -1660814.03821
  19332454.343   -23335676.222 7 -18096471.14823
  21149075.5854    1165193.15546    918462.69062
  22294387.0234   -1893400.57444  -1076541.39661
  19904902.1874  -22866025.18747 -17638493.64663
 91  4 22 22 44 44.9950000  0  5G15G 2G19G13G 6
  22510596.2104   -2288563.22045  -1688438.82061
  19329497.460   -23351213.824 7 -18108578.35123
  21153239.1634    1187087.06346    935522.81962
  22280616.2334   -1965774.55745  -1132936.35461
  19897472.9994  -22905064.76847 -17668914.06063
 91  4 22 22 44 59.9950000  0  5G15G 2G19G13G 6
  22503869.7334   -2323918.92745  -1715988.65561
  19326550.499   -23366698.325 7 -18120644.17123
  21157416.7264    1209044.25546    952632.25862
  22266849.2334   -2038113.14944  -1189303.71361
  19890051.8744  -22944064.66247 -17699303.54863
 91  4 22 22 45 14.9950000  0  5G15G 2G19G13G 6
  22497157.421    -2359175.580 5  -1743461.30021
  19323615.085   -23382127.119 7 -18132666.59423
  21161608.093     1231067.653 6    969793.29422
  22253092.241    -2110413.083 5  -1245640.95521
  19882639.0304  -22983022.05247 -17729659.92163
 91  4 22 22 45 29.9950000  0  5G15G 2G19G13G 6
  22490470.476    -2394329.146 5  -1770853.61521
  19320690.624   -23397496.563 7 -18144642.75823
  21165811.3584    1253160.81446    987008.68762
  22239340.7104   -2182670.27545  -1301944.93361
  19875233.9994  -23021932.92247 -17759980.03863
 91  4 22 22 45 44.9950000  0  5G15G 2G19G13G 6
  22483799.9134   -2429387.76445  -1798171.94561
  19317775.421   -23412815.123 7 -18156579.27423
  21170027.7884    1275315.33046   1004271.88762
  22225596.1014   -2254892.86145  -1358221.86561
  19867837.6874  -23060805.46347 -17790270.28663
 91  4 22 22 45 59.9950000  0  5G15G 2G19G13G 6
  22477147.405    -2464345.543 5  -1825411.71621
  19314870.757   -23428077.423 7 -18168471.95923
  21174256.3664    1297536.53046   1021587.04462
  22211860.046    -2327075.184 4  -1414467.56521
  19860448.2024  -23099634.02447 -17820526.27363
 91  4 22 22 46 14.9950000  0  5G15G 2G19G13G 6
  22470513.679    -2499203.152 5  -1852573.41921
  19311976.585   -23443284.477 7 -18180321.58923
  21178498.7024    1319823.34546   1038953.33461
  22198131.968    -2399217.888 5  -1470682.24121
  19853067.5384  -23138419.39447 -17850748.59863
 91  4 22 22 46 29.9950000  0  5G15G 2G19G13G 6
  22463899.8904   -2533965.21645  -1879660.68261
  19309093.530   -23458441.278 8 -18192132.06123
  21182753.2494    1342170.89046   1056366.94561
  22184410.8274   -2471325.37644  -1526869.57561
  19845694.2414  -23177166.27447 -17880940.93463
 91  4 22 22 46 44.9950000  0  5G15G 2G19G13G 6
  22457299.5544   -2568628.59145  -1906671.00761
  19306218.718   -23473545.118 7 -18203901.26323
  21187015.9684    1364581.85746   1073829.97762
  22170694.819    -2543394.350 5  -1583026.85721
  19838329.3514  -23215871.52547 -17911100.83063
 91  4 22 22 46 59.9950000  0  5G15G 2G19G13G 6
  22450726.405    -2603192.372 5  -1933603.76221
  19303354.601   -23488595.292 7 -18215628.65023
  21191291.9914    1387056.94746   1091342.97061
  22156988.468    -2615423.884 5  -1639153.44421
  19830971.476   -23254534.381 7 -17941227.68923
 91  4 22 22 47 14.9950000  0  5G15G 2G19G13G 6
  22444167.827    -2637651.682 5  -1960455.08721
  19300502.179   -23503587.267 7 -18227310.68724
  21195583.5624    1409600.73946   1108909.50962
  22143289.5694   -2687408.95844  -1695245.35961
  19823622.2654  -23293149.89647 -17971317.65963
 91  4 22 22 47 29.9950000  0  5G15G 2G19G13G 6
  22437627.7964   -2672010.63945  -1987228.23361
  19297658.460   -23518525.571 7 -18238950.90223
  21199884.4374    1432208.91046   1126526.20661
  22129599.0234   -2759353.45445  -1751305.68961
  19816283.413   -23331722.232 7 -18001373.98123
 91  4 22 22 47 44.9950000  0  5G15G 2G19G13G 6
  22431108.6324   -2706269.59445  -2013923.42761
  19294826.093   -23533411.000 7 -18250549.91723
  21204198.7334    1454880.57246   1144192.37461
  22115913.7654   -2831257.89644  -1807334.81461
  19808951.054   -23370252.030 7 -18031397.15823
 91  4 22 22 47 59.9950000  0  5G15G 2G19G13G 6
  22424610.1794   -2740426.13645  -2040538.86261
  19292004.499   -23548241.335 7 -18262106.00224
  21208528.3514    1477617.81746   1161909.64861
  22102242.0624   -2903119.59145  -1863330.57961
  19801627.3744  -23408736.74247 -18061385.20263
 91  4 22 22 48 14.9950000  0  5G15G 2G19G13G 6
  22418130.5694   -2774480.79245  -2067074.87461
  19289192.319   -23563017.664 7 -18273620.00023
  21212866.8824    1500419.56346   1179677.18261
  22088573.304    -2974939.330 4  -1919293.71921
  19794313.1794  -23447177.16347 -18091338.73863
 91  4 22 22 48 29.9950000  0  5G15G 2G19G13G 6
  22411670.569    -2808428.992 5  -2093527.93921
  19286391.999   -23577735.675 7 -18285088.55824
  21217218.257     1523290.239 6   1197498.43921
  22074916.4214   -3046712.21945  -1975220.29261
  19787005.562   -23485568.790 7 -18121254.24423
 91  4 22 22 48 44.9950000  0  5G15G 2G19G13G 6
  22405227.890    -2842273.324 5  -2119900.06121
  19283601.616   -23592398.237 7 -18296513.91224
  21221581.8044    1546226.80746   1215371.02761
  22061264.6874   -3118440.83945  -2031112.44861
  19779709.9444  -23523914.11147 -18151133.67763
 91  4 22 22 48 59.9950000  0  5G15G 2G19G13G 6
  22398811.7024   -2876013.63545  -2146191.13661
  19280822.085   -23607005.655 7 -18307896.29623
  21225958.3584    1569228.86446   1233294.64661
  22047624.0854   -3190124.96845  -2086969.87561
  19772422.429   -23562213.135 7 -18180977.02723
 91  4 22 22 49 14.9950000  0  5G15G 2G19G13G 6
  22392407.1874   -2909650.23545  -2172401.39461
  19278052.476   -23621558.655 7 -18319236.27623
  21230348.4214    1592295.86246   1251268.86761
  22033993.0074   -3261764.87545  -2142792.88061
  19765142.132   -23600466.234 7 -18210784.59123
 91  4 22 22 49 29.9950000  0  5G15G 2G19G13G 6
  22386030.999    -2943180.236 5  -2198528.59121
  19275294.069   -23636054.563 7 -18330531.77123
  21234752.6484    1615430.39845   1269295.70661
  22020367.9524   -3333357.32845  -2198578.90861
  19757872.569   -23638670.572 7 -18240554.16223
 91  4 22 22 49 44.9950000  0  5G15G 2G19G13G 6
  22379665.819    -2976608.093 5  -2224576.20121
  19272545.538   -23650498.371 7 -18341786.67224
  21239164.7734    1638627.73646   1287371.48661
  22006751.085    -3404907.030 5  -2254331.59721
  19750611.202   -23676830.754 7 -18270289.32223
 91  4 22 22 49 59.9950000  0  5G15G 2G19G13G 6
  22373324.671    -3009929.781 5  -2250541.06721
  19269808.429   -23664886.473 7 -18352998.16024
  21243591.3904    1661891.61546   1305499.11561
  21993145.866    -3476409.764 5  -2310047.67621
  19743359.218   -23714942.834 7 -18299987.00123
 91  4 22 22 50 14.9950000  0  5G15G 2G19G13G 6
  22367006.351    -3043142.367 5  -2276420.92921
  19267081.069   -23679216.115 7 -18364164.09924
  21248032.6164    1685224.52746   1323680.53861
  21979549.101    -3547862.316 5  -2365724.70821
  19736116.3744  -23753003.73747 -18329644.80663
 91  4 22 22 50 29.9950000  0  5G15G 2G19G13G 6
  22360703.632    -3076252.737 5  -2302221.14121
  19264363.835   -23693494.477 7 -18375290.07624
  21252482.6404    1708619.14046   1341910.04261
  21965958.593    -3619271.630 5  -2421368.01121
  19728881.5624  -23791020.62547 -18359268.31263
 91  4 22 22 50 44.9950000  0  5G15G 2G19G13G 6
  22354423.929    -3109256.353 5  -2327938.16821
  19261656.835   -23707717.348 7 -18386372.81624
  21256949.5154    1732079.63845   1360190.88961
  21952379.5304   -3690633.33945  -2476974.20261
  19721656.780   -23828988.910 7 -18388853.94623
 91  4 22 22 50 59.9950000  0  5G15G 2G19G13G 6
  22348164.749    -3142152.393 5  -2353571.37021
  19258960.577   -23721884.579 7 -18397412.20224
  21261425.0234    1755606.26745   1378523.26461
  21938809.413    -3761946.437 5  -2532542.55821
  19714440.077   -23866908.045 7 -18418401.27823
 91  4 22 22 51 14.9950000  0  5G15G 2G19G13G 6
  22341921.460    -3174945.693 5  -2379124.50121
  19256274.991   -23736001.134 7 -18408412.09624
  21265916.694     1779194.077 5   1396903.32221
  21925247.1714   -3833215.71245  -2588076.73561
  19707233.335   -23904782.889 7 -18447914.10823
 91  4 22 22 51 29.9950000  0  5G15G 2G19G13G 6
  22335704.280    -3207631.141 5  -2404593.61121
  19253599.437   -23750062.260 7 -18419368.80224
  21270417.7104    1802847.88645   1415334.80361
  21911692.3354   -3904435.60845  -2643572.45261
  19700035.3194  -23942608.24347 -18477388.36563
 91  4 22 22 51 44.9950000  0  5G15G 2G19G13G 6
  22329501.726    -3240211.736 5  -2429981.01321
  19250933.124   -23764071.254 7 -18430284.88724
  21274929.6244    1826564.25745   1433815.02661
  21898148.3664   -3975609.35945  -2699032.19861
  19692845.7334  -23980387.18747 -18506826.46863
 91  4 22 22 51 59.9950000  0  5G15G 2G19G13G 6
  22323321.0464   -3272684.30445  -2455284.21361
  19248277.983   -23778025.603 7 -18441158.39124
  21279453.9604    1850345.96345   1452346.16061
  21884613.913    -4046733.707 5  -2754453.48721
  19685666.0544  -24018116.80147 -18536226.13163
 91  4 22 22 52 14.9950000  0  5G15G 2G19G13G 6
  22317162.569    -3305047.958 5  -2480502.57421
  19245633.366   -23791924.486 7 -18451988.67624
  21283992.9214    1874193.67845   1470928.72361
  21871090.038    -4117807.575 5  -2809835.36721
  19678495.8514  -24055796.06947 -18565586.56063
 91  4 22 22 52 29.9950000  0  5G15G 2G19G13G 6
  22311024.327    -3337306.974 5  -2505639.39821
  19242997.499   -23805772.440 7 -18462779.27624
  21288542.9294    1898102.73945   1489559.09761
  21857572.608    -4188835.046 5  -2865181.16521
  19671334.4994  -24093429.16347 -18594911.01063
 91  4 22 22 52 44.9950000  0  5G15G 2G19G13G 6
  22304911.202    -3369457.392 5  -2530691.59021
  19240373.030   -23819565.952 7 -18473527.45124
  21293105.9914    1922076.91945   1508240.20761
  21844066.4914   -4259812.41045  -2920487.86261
  19664182.4604  -24131012.25447 -18624196.49763
 91  4 22 22 52 59.9950000  0  5G15G 2G19G13G 6
  22298807.9294   -3401497.33245  -2555657.69661
  19237758.640   -23833303.266 7 -18484231.84124
  21297680.296     1946117.740 5   1526973.23221
  21830569.2574   -4330737.32745  -2975753.75561
  19657042.2104  -24168543.52947 -18653441.61263
 91  4 22 22 53 14.9950000  0  5G15G 2G19G13G 6
  22292737.273    -3433430.308 5  -2580540.46321
  19235154.5154  -23846988.51347 -18494895.66064
  21302265.9134    1970221.23045   1545755.10961
  21817083.476    -4401613.461 5  -3030981.54821
  19649907.2884  -24206026.58847 -18682649.15463
 91  4 22 22 53 29.9950000  0  5G15G 2G19G13G 6
  22286678.968    -3465256.243 5  -2605339.80721
  19232559.9684  -23860622.10547 -18505519.22564
  21306864.8514    1994387.09545   1564585.59261
  21803605.5544   -4472440.48645  -3086171.17461
  19642784.1714  -24243461.54347 -18711819.21163
 91  4 22 22 53 44.9950000  0  5G15G 2G19G13G 6
  22280642.312    -3496974.023 5  -2630054.87521
  19229975.6244  -23874203.20247 -18516101.88664
  21311475.0774    2018615.79045   1583465.03061
  21790136.2104   -4543217.37545  -3141321.67361
  19635670.3584  -24280847.27447 -18740950.91663
 91  4 22 22 53 59.9950000  0  5G15G 2G19G13G 6
  22274629.233    -3528585.525 5  -2654687.14921
  19227401.3124  -23887733.98947 -18526645.33964
  21316096.4374    2042905.30545   1602391.85461
  21776676.827    -4613945.928 5  -3196434.52121
  19628564.7964  -24318185.74447 -18770045.79363
 91  4 22 22 54 14.9950000  0  5G15G 2G19G13G 6
  22268632.952    -3560084.496 5  -2679231.71721
  19224836.468   -23901208.469 7 -18537144.92924
  21320733.4214    2067261.78745   1621370.86161
  21763226.4054   -4684619.34545  -3251504.38661
  19621469.0384  -24355470.59347 -18799098.88963
 91  4 22 22 54 29.9950000  0  5G15G 2G19G13G 6
  22262661.663    -3591471.785 5  -2703689.27221
  19222282.5544  -23914627.76247 -18547601.51064
  21325379.194     2091683.934 5   1640401.02621
  21749788.2264   -4755238.62145  -3306532.11961
  19614385.1404  -24392702.61147 -18828110.81963
 91  4 22 22 54 44.9950000  0  5G15G 2G19G13G 6
  22256707.2334   -3622752.50545  -2728063.77961
  19219739.233   -23927997.419 7 -18558019.41324
  21330037.319     2116166.179 5   1659478.02121
  21736357.7574   -4825808.80645  -3361521.54661
  19607309.0074  -24429887.10947 -18857085.72163
 91  4 22 22 54 59.9950000  0  5G15G 2G19G13G 6
  22250776.7654   -3653924.25045  -2752353.36661
  19217204.905   -23941315.271 7 -18568396.94624
  21334710.148     2140710.714 5   1678603.54821
  21722941.913    -4896327.388 5  -3416470.78421
  19600241.6484  -24467021.62447 -18886021.67563
 91  4 22 22 55 14.9950000  0  5G15G 2G19G13G 6
  22244866.648    -3684984.027 5  -2776555.69921
  19214680.788   -23954578.957 7 -18578732.27424
  21339392.663     2165319.838 5   1697779.41621
  21709531.0624   -4966791.59745  -3471377.66761
  19593186.0234  -24504103.58447 -18914916.67663
 91  4 22 22 55 29.9950000  0  5G15G 2G19G13G 6
  22238976.3194   -3715932.51445  -2800671.32061
  19212166.452   -23967789.086 7 -18589025.87024
  21344087.218     2189992.806 5   1717005.02921
  21696129.7184   -5037202.06145  -3526242.66561
  19586138.5774  -24541133.32947 -18943770.99063
 91  4 22 22 55 44.9950000  0  5G15G 2G19G13G 6
  22233108.8824   -3746770.08545  -2824700.51861
  19209662.7104  -23980946.44947 -18599278.35264
  21348796.233     2214728.912 5   1736279.83521
  21682742.1244   -5107558.92045  -3581065.87461
  19579102.8354  -24578111.19147 -18972584.88163
 91  4 22 22 55 59.9950000  0  5G15G 2G19G13G 6
  22227261.444    -3777495.708 5  -2848642.48421
  19207169.069   -23994050.579 7 -18609489.35024
  21353513.3194    2239528.51445   1755604.13361
  21669364.5304   -5177861.09545  -3635846.54261
  19572075.2734  -24615036.51247 -19001357.82863
 91  4 22 22 56 14.9940000  0  5G15G 2G19G13G 6
  22221434.4404   -3808108.89445  -2872496.81761
  19204685.1274  -24007102.43847 -18619659.61964
  21358245.525     2264388.395 5   1774975.39221
  21655998.8614   -5248105.14345  -3690581.83361
  19565060.0494  -24651908.21947 -19030088.99863
 91  4 22 22 56 29.9940000  0  5G15G 2G19G13G 6
  22215630.1744   -3838610.43645  -2896264.16461
  19202212.1904  -24020100.91247 -18629788.28964
  21362987.580     2289314.649 5   1794398.37021
  21642639.627    -5318297.146 5  -3745276.63621
  19558051.9634  -24688728.09747 -19058779.78163
 91  4 22 22 56 44.9940000  0  5G15G 2G19G13G 6
  22209846.033    -3868999.901 5  -2919944.18121
  19199748.1044  -24033046.81447 -18639875.99564
  21367745.0884    2314303.84045   1813870.39661
  21629294.447    -5388433.750 5  -3799928.22021
  19551056.1744  -24725495.32047 -19087429.53563
 91  4 22 22 56 59.9940000  0  5G15G 2G19G13G 6
  22204085.1664   -3899274.33945  -2943534.56961
  19197295.8154  -24045937.71547 -18649920.84364
  21372513.752     2339358.390 5   1833393.34621
  21615958.9944   -5458511.97345  -3854534.37661
  19544069.6114  -24762206.93747 -19116035.95863
 91  4 22 22 57 14.9940000  0  5G15G 2G19G13G 6
  22198344.307    -3929437.840 5  -2967038.50321
  19194851.5184  -24058777.79147 -18659926.08564
  21377290.6584    2364474.07445   1852963.94461
  21602633.8694   -5528535.98645  -3909098.24661
  19537093.713   -24798866.926 7 -19144602.15823
 91  4 22 22 57 29.9940000  0  5G15G 2G19G13G 6
  22192626.291    -3959486.845 5  -2990453.23421
  19192418.830   -24071563.685 7 -18669889.10824
  21382081.8384    2389654.26845   1872584.81261
  21589318.908    -5598501.765 5  -3963616.77421
  19530128.0184  -24835471.58347 -19173125.23363
 91  4 22 22 57 44.9940000  0  5G15G 2G19G13G 6
  22186931.510    -3989419.817 5  -3013777.54321
  19189995.6044  -24084294.54047 -18679809.24664
  21386887.869     2414899.800 5   1892256.58221
  21576016.416    -5668407.904 5  -4018088.80721
  19523173.9244  -24872019.62047 -19201604.19763
 91  4 22 22 57 59.9940000  0  5G15G 2G19G13G 6
  22181257.736    -4019235.478 5  -3037010.44021
  19187584.7604  -24096969.34147 -18689685.70764
  21391702.424     2440211.623 5   1911980.01021
  21562723.783    -5738252.974 5  -4072513.25521
  19516229.1274  -24908509.87247 -19230038.13163
 91  4 22 22 58 14.9940000  0  5G15G 2G19G13G 6
  22175610.4004   -4048935.50445  -3060153.22861
  19185182.6504  -24109590.14947 -18699520.09364
  21396532.815     2465587.898 5   1931753.65321
  21549444.8544   -5808038.69345  -4126891.45661
  19509295.7604  -24944944.07147 -19258428.38563
 91  4 22 22 58 29.9940000  0  5G15G 2G19G13G 6
  22169978.635    -4078521.525 5  -3083207.18921
  19182790.3464  -24122158.65547 -18709313.72264
  21401370.768     2491026.654 5   1951575.99421
  21536175.315    -5877766.406 5  -4181224.48321
  19502373.2604  -24981323.49747 -19286775.96163
 91  4 22 22 58 44.9940000  0  5G15G 2G19G13G 6
  22164368.9944   -4107991.17445  -3106170.46461
  19180410.0574  -24134672.78747 -18719064.98364
  21406226.002     2516529.879 5   1971448.55521
  21522917.9714   -5947433.49645  -4235510.26861
  19495460.5184  -25017646.08247 -19315079.24363
 91  4 22 22 58 59.9940000  0  5G15G 2G19G13G 6
  22158776.635    -4137344.029 5  -3129042.73521
  19178039.369   -24147132.653 7 -18728773.95524
  21411093.752     2542097.519 5   1991371.32621
  21509672.5414   -6017039.73045  -4289748.61761
  19488560.7524  -25053911.56647 -19343338.02963
 91  4 22 22 59 14.9940000  0  5G15G 2G19G13G 6
  22153217.260    -4166584.521 5  -3151827.45521
  19175676.7524  -24159542.82847 -18738444.21064
  21415968.393     2567725.091 5   2011340.78221
  21496438.369    -6086589.135 5  -4343942.70421
  19481669.2364  -25090123.93847 -19371555.43263
 91  4 22 22 59 29.9940000  0  5G15G 2G19G13G 6
  22147675.3934   -4195710.06845  -3174522.59961
  19173325.190   -24171901.175 7 -18748074.07824
  21420858.096     2593414.528 5   2031358.44421
  21483212.8224   -6156079.36045  -4398090.65261
  19474789.6434  -25126281.05447 -19399729.77863
 91  4 22 22 59 44.9940000  0  5G15G 2G19G13G 6
  22142155.3384   -4224725.16845  -3197131.68261
  19170982.393   -24184212.423 7 -18757667.24424
  21425755.783     2619161.027 5   2051420.57021
  21470000.2684   -6225514.77045  -4452195.93161
  19467917.9554  -25162387.15147 -19427864.36863
 91  4 22 22 59 59.9940000  0  5G15G 2G19G13G 6
  22136656.182    -4253625.660 5  -3219651.46521
  19168648.893   -24196472.633 7 -18767220.64224
  21430666.705     2644968.527 5   2071530.23321
  21456799.385    -6294891.149 5  -4506255.18721
  19461056.9714  -25198438.20047 -19455956.06663
 91  4 22 23  0 14.9940000  0  5G15G 2G19G13G 6
  22131175.908    -4282411.240 5  -3242081.71621
  19166326.541   -24208681.925 7 -18776734.36124
  21435593.377     2670836.964 5   2091687.38121
  21443606.7444   -6364207.76345  -4560267.86061
  19454207.7054  -25234433.79247 -19484004.54863
 91  4 22 23  0 29.9940000  0  5G15G 2G19G13G 6
  22125722.791    -4311078.189 5  -3264419.51721
  19164012.736   -24220837.123 7 -18786205.92724
  21440528.533     2696769.719 5   2111894.64821
  21430427.877    -6433460.971 5  -4614231.16721
  19447369.6824  -25270370.52647 -19512007.17063
 91  4 22 23  0 44.9940000  0  5G15G 2G19G13G 6
  22120290.4634   -4339627.76645  -3286665.88361
  19161710.057   -24232939.611 7 -18795636.42324
  21445473.971     2722765.192 5   2132150.78421
  21417259.494    -6502651.990 5  -4668145.97521
  19440541.5724  -25306249.51747 -19539964.79563
 91  4 22 23  0 59.9940000  0  5G15G 2G19G13G 6
  22114875.9004   -4368066.96345  -3308826.21061
  19159415.869   -24244996.676 7 -18805031.52224
  21450430.9244    2748816.09645   2152450.12161
  21404103.6114   -6571787.67045  -4722017.70861
  19433723.6194  -25342077.74447 -19567882.86763
 91  4 22 23  1 14.9940000  0  5G15G 2G19G13G 6
  22109486.2054   -4396388.87945  -3330895.17761
  19157130.924   -24257001.464 7 -18814385.88824
  21455399.1824    2774929.20345   2172797.94061
  21390961.533    -6640860.719 5  -4775840.61521
  19426916.9554  -25377848.06047 -19595755.81163
 91  4 22 23  1 29.9940000  0  5G15G 2G19G13G 6
  22104119.549    -4424593.244 5  -3352872.52721
  19154856.666   -24268954.173 8 -18823699.66624
  21460378.3384    2801104.15745   2193193.93761
  21377829.572    -6709870.779 5  -4829614.45321
  19420120.8304  -25413560.30947 -19623583.50963
 91  4 22 23  1 44.9940000  0  5G15G 2G19G13G 6
  22098776.158    -4452682.237 5  -3374759.98421
  19152591.486   -24280857.461 8 -18832974.94324
  21465372.729     2827338.420 5   2213636.15221
  21364707.5724   -6778820.16545  -4883341.00561
  19413336.275   -25449216.933 7 -19651367.86523
 91  4 22 23  1 59.9940000  0  5G15G 2G19G13G 6
  22093451.924    -4480653.933 5  -3396556.04921
  19150336.838   -24292709.462 7 -18842210.25524
  21470378.0964    2853633.74945   2234125.91961
  21351599.400    -6847706.470 5  -4937018.41321
  19406561.3074  -25484815.81147 -19679107.22763
 91  4 22 23  2 14.9940000  0  5G15G 2G19G13G 6
  22088150.197    -4508507.581 5  -3418260.11921
  19148090.627   -24304509.612 7 -18851405.15924
  21475391.744     2879990.649 5   2254663.68421
  21338502.5964   -6916528.91645  -4990646.06261
  19399798.9004  -25520356.10147 -19706800.93163
 91  4 22 23  2 29.9940000  0  5G15G 2G19G13G 6
  22082874.0024   -4536243.25645  -3439872.27861
  19145854.432   -24316258.467 7 -18860560.09524
  21480418.8304    2906408.54545   2275248.96161
  21325417.6274   -6985287.66045  -5044224.07461
  19393046.6744  -25555837.85647 -19734449.02463
 91  4 22 23  2 44.9940000  0  5G15G 2G19G13G 6
  22077616.3854   -4563863.25445  -3461394.29361
  19143628.565   -24327958.846 7 -18869677.25824
  21485458.2054    2932884.66945   2295879.62261
  21312344.729    -7053985.003 5  -5097754.26721
  19386305.6824  -25591263.70547 -19762053.55763
 91  4 22 23  2 59.9940000  0  5G15G 2G19G13G 6
  22072385.1904   -4591363.66445  -3482823.12161
  19141411.611   -24339606.866 7 -18878753.62224
  21490505.986     2959422.939 5   2316558.70821
  21299284.5964   -7122616.58645  -5151233.15761
  19379576.2054  -25626629.36947 -19789611.18263
 91  4 22 23  3 14.9940000  0  5G15G 2G19G13G 6
  22067172.846    -4618740.509 5  -3504155.65321
  19139205.627   -24351198.931 8 -18887786.38224
  21495572.229     2986026.963 5   2337289.03021
  21286237.455    -7191178.456 5  -5204657.77421
  19372857.2604  -25661930.87447 -19817118.82863
 91  4 22 23  3 29.9940000  0  5G15G 2G19G13G 6
  22061991.0184   -4645998.49845  -3525395.58961
  19137009.783   -24362740.081 7 -18896779.47324
  21500643.9794    3012691.47845   2358066.48261
  21273204.119    -7259675.169 6  -5258031.61821
  19366151.494   -25697173.089 7 -19844580.26723
 91  4 22 23  3 44.9940000  0  5G15G 2G19G13G 6
  22056823.104    -4673141.041 5  -3546545.56221
  19134822.0574  -24374234.20048 -18905735.91964
  21505729.4004    3039412.83445   2378888.23161
  21260179.7134   -7328110.05545  -5311357.30161
  19359455.5724  -25732359.46747 -19871998.19663
 91  4 22 23  3 59.9940000  0  5G15G 2G19G13G 6
  22051681.252    -4700161.216 5  -3567600.18721
  19132646.104   -24385674.476 8 -18914650.40624
  21510827.9004    3066197.60245   2399759.38961
  21247171.1194   -7396476.27046  -5364629.43561
  19352771.9474  -25767483.05747 -19899367.19963
 91  4 22 23  4 14.9940000  0  5G15G 2G19G13G 6
  22046561.713    -4727059.187 5  -3588559.58921
  19130478.2364  -24397061.35348 -18923523.28464
  21515935.1584    3093045.22645   2420679.52461
  21234174.8774   -7464773.86846  -5417848.13861
  19346100.3304  -25802544.02347 -19926687.40263
 91  4 22 23  4 29.9940000  0  5G15G 2G19G13G 6
  22041468.0184   -4753836.68345  -3609425.10961
  19128321.4634  -24408396.54547 -18932355.88764
  21521055.830     3119953.855 5   2441647.18121
  21221189.869    -7533004.162 5  -5471014.36621
  19339438.5964  -25837543.88047 -19953959.99163
 91  4 22 23  4 44.9940000  0  5G15G 2G19G13G 6
  22036394.627    -4780491.818 5  -3630195.29421
  19126174.5804  -24419678.70147 -18941147.16964
  21526187.2834    3146924.83045   2462663.42461
  21208219.885    -7601165.477 6  -5524126.85721
  19332791.4794  -25872480.90447 -19981183.61863
 91  4 22 23  4 59.9940000  0  5G15G 2G19G13G 6
  22031344.9944   -4807027.93845  -3650872.72761
  19124036.3854  -24430911.41147 -18949899.92064
  21531332.2994    3173954.63745   2483725.51261
  21195260.627    -7669260.723 5  -5577187.87221
  19326154.4864  -25907358.29047 -20008360.77363
 91  4 22 23  5 14.9940000  0  5G15G 2G19G13G 6
  22026321.002    -4833437.757 5  -3671451.74821
  19121910.0964  -24442087.90547 -18958608.86764
  21536487.940     3201049.955 5   2504838.64821
  21182315.854    -7737282.591 6  -5630191.69921
  19319529.455   -25942169.049 7 -20035486.01023
 91  4 22 23  5 29.9940000  0  5G15G 2G19G13G 6
  22021312.7444   -4859728.57245  -3691938.04261
  19119792.5414  -24453215.41347 -18967279.64464
  21541655.5724    3228203.52445   2525997.18561
  21169384.940    -7805238.156 6  -5683143.87521
  19312917.0884  -25976920.10347 -20062564.72963
 91  4 22 23  5 44.9940000  0  5G15G 2G19G13G 6
  22016336.174    -4885894.511 5  -3712327.03721
  19117685.4244  -24464288.32647 -18975907.87864
  21546833.385     3255420.940 5   2547205.45321
  21156467.3384   -7873121.15945  -5736039.50661
  19306317.1584  -26011605.48447 -20089592.26463
 91  4 22 23  5 59.9940000  0  5G15G 2G19G13G 6
  22011382.4244   -4911932.96345  -3732616.68761
  19115589.9714  -24475304.52747 -18984491.92164
  21552026.8614    3282704.41945   2568465.21761
  21143562.783    -7940929.175 6  -5788876.69921
  19299728.9944  -26046222.71247 -20116566.70063
 91  4 22 23  6 14.9940000  0  5G15G 2G19G13G 6
  22006445.275    -4937863.363 5  -3752822.14021
  19113500.7214  -24486283.67047 -18993047.08864
  21557227.6664    3310034.13645   2589761.00561
  21130671.096    -8008681.586 5  -5841670.56321
  19293150.9404  -26080791.17547 -20143503.13663
 91  4 22 23  6 29.9940000  0  5G15G 2G19G13G 6
  22001537.275    -4963672.338 5  -3772932.98121
  19111420.0254  -24497212.69947 -19001563.20764
  21562439.2834    3337423.13545   2611102.98661
  21117790.2214   -8076364.91845  -5894410.59761
  19286585.6114  -26115297.57847 -20170391.21064
 91  4 22 23  6 44.9940000  0  5G15G 2G19G13G 6
  21996649.010    -4989353.952 5  -3792944.57721
  19109351.2684  -24508085.90647 -19010035.83064
  21567665.6274    3364876.91845   2632495.44961
  21104925.260    -8143972.962 5  -5947091.96921
  19280031.1824  -26149735.82447 -20197226.17964
 91  4 22 23  6 59.9940000  0  5G15G 2G19G13G 6
  21991786.650    -5014914.322 5  -3812861.70121
  19107291.9404  -24518909.63547 -19018469.89564
  21572899.9634    3392389.23645   2653933.53061
  21092070.0574   -8211511.57145  -5999719.24461
  19273490.4474  -26184112.05847 -20224012.82764
 91  4 22 23  7 14.9940000  0  5G15G 2G19G13G 6
  21986944.025    -5040349.693 5  -3832681.42121
  19105241.8854  -24529680.44347 -19026862.72764
  21578146.1904    3419963.38145   2675419.78661
  21079234.0414   -8278976.93846  -6052289.44461
  19266960.947   -26218422.439 7 -20250748.16124
 91  4 22 23  7 29.9940000  0  5G15G 2G19G13G 6
  21982129.104    -5065662.368 5  -3852405.53721
  19103202.0574  -24540400.65047 -19035216.12764
  21583405.2524    3447596.96345   2696952.34561
  21066408.690    -8346371.091 5  -6104804.14521
  19260444.2054  -26252669.06547 -20277433.81564
 91  4 22 23  7 44.9940000  0  5G15G 2G19G13G 6
  21977334.0414   -5090854.48645  -3872035.71761
  19101171.9004  -24551072.68947 -19043531.99264
  21588676.7294    3475287.44245   2718529.25261
  21053598.4864   -8413696.00646  -6157264.90961
  19253937.674   -26286854.160 7 -20304071.52724
 91  4 22 23  7 59.9940000  0  5G15G 2G19G13G 6
  21972565.330    -5115922.889 6  -3891569.50121
  19099151.0964  -24561693.69547 -19051808.09264
  21593953.9084    3503037.75045   2740152.76061
  21040799.369    -8480948.415 6  -6209669.15921
  19247445.572   -26320974.412 7 -20330658.71224
 91  4 22 23  8 14.9940000  0  5G15G 2G19G13G 6
  21967817.643    -5140865.999 6  -3911005.64221
  19097139.1904  -24572262.59047 -19060043.58564
  21599248.1354    3530848.90045   2761823.69261
  21028013.8694   -8548126.86445  -6262015.79061
  19240965.533   -26355028.395 7 -20357194.25624
 91  4 22 23  8 29.9940000  0  5G15G 2G19G13G 6
  21963092.9324   -5165690.53445  -3930349.39761
  19095136.1114  -24582786.41047 -19068243.95964
  21604549.3774    3558713.86245   2783536.55261
  21015245.8934   -8615238.04346  -6314309.99461
  19234496.830   -26389022.842 7 -20383683.41424
 91  4 22 23  8 44.9940000  0  5G15G 2G19G13G 6
  21958388.736    -5190393.845 5  -3949598.68921
  19093142.6974  -24593262.62447 -19076407.23264
  21609864.9084    3586635.19745   2805293.34161
  21002486.549    -8682279.017 6  -6366549.50721
  19228039.3384  -26422955.06647 -20410124.08264
 91  4 22 23  8 59.9940000  0  5G15G 2G19G13G 6
  21953714.658    -5214971.682 5  -3968750.21521
  19091159.4714  -24603687.57847 -19084530.56664
  21615188.541     3614616.673 5   2827096.98821
  20989743.033    -8749245.232 6  -6418730.75821
  19221594.861   -26456820.833 7 -20436512.96824
 91  4 22 23  9 14.9940000  0  5G15G 2G19G13G 6
  21949063.6504   -5239422.12945  -3987802.47761
  19089185.166   -24614059.145 7 -19092612.29324
  21620524.8384    3642660.03845   2848948.86161
  20977015.5254   -8816134.73146  -6470852.22061
  19215163.119   -26490617.959 7 -20462848.36524
 91  4 22 23  9 29.9940000  0  5G15G 2G19G13G 6
  21944433.0104   -5263748.19245  -4006757.80861
  19087221.346   -24624380.566 8 -19100654.95224
  21625875.3694    3670761.92545   2870846.34161
  20964300.018    -8882950.427 6  -6522916.18921
  19208744.893   -26524349.400 7 -20489132.58224
 91  4 22 23  9 44.9940000  0  5G15G 2G19G13G 6
  21939828.4864   -5287946.49445  -4025613.59061
  19085267.7444  -24634648.71348 -19108656.09464
  21631232.0884    3698925.55845   2892791.93561
  20951600.4244   -8949688.64146  -6574919.79561
  19202338.150   -26558011.589 7 -20515362.84024
 91  4 22 23  9 59.9940000  0  5G15G 2G19G13G 6
  21935249.4404   -5312021.15945  -4044373.03661
  19083322.9864  -24644868.18747 -19116619.31063
  21636600.447     3727146.038 5   2914781.81821
  20938913.9794   -9016353.67246  -6626866.34661
  19195944.494   -26591609.015 7 -20541542.62224
 91  4 22 23 10 14.9940000  0  5G15G 2G19G13G 6
  21930690.916    -5335974.651 5  -4063038.05021
  19081387.119   -24655041.634 7 -19124546.66224
  21641984.752     3755420.960 5   2936814.12121
  20926241.393    -9082947.448 6  -6678757.39121
  19189563.369   -26625143.877 7 -20567673.66624
 91  4 22 23 10 29.9940000  0  5G15G 2G19G13G 6
  21926156.291    -5359799.385 5  -4081602.73821
  19079460.9004  -24665161.72248 -19132432.43364
  21647375.1354    3783757.53445   2958894.47261
  20913583.6974   -9149462.47746  -6730587.07561
  19183195.8854  -26658608.57647 -20593750.02964
 91  4 22 23 10 44.9940000  0  5G15G 2G19G13G 6
  21921647.174    -5383498.610 5  -4100069.62421
  19077544.3774  -24675232.10847 -19140279.47964
  21652779.8854    3812152.04145   2981019.96761
  20900941.346    -9215901.976 6  -6782357.88821
  19176839.7444  -26692006.46447 -20619774.32964
 91  4 22 23 10 59.9940000  0  5G15G 2G19G13G 6
  21917159.3614   -5407071.21646  -4118437.85261
  19075637.5654  -24685251.69747 -19148086.94164
  21658193.6974    3840605.52245   3003191.42161
  20888312.3154   -9282264.36946  -6834068.63561
  19170497.6824  -26725336.09147 -20645745.44264
 91  4 22 23 11 14.9940000  0  5G15G 2G19G13G 6
  21912699.9404   -5430515.76845  -4136706.29561
  19073740.7294  -24695219.50848 -19155854.06064
  21663621.2524    3869119.03245   3025409.64661
  20875698.596    -9348548.319 6  -6885718.25021
  19164168.643   -26758596.107 7 -20671662.31324
 91  4 22 23 11 29.9940000  0  5G15G 2G19G13G 6
  21908263.3694   -5453832.95545  -4154875.49561
  19071854.1974  -24705136.27847 -19163581.40564
  21669059.432     3897691.465 5   3047673.76821
  20863100.4794   -9414754.41746  -6937307.21661
  19157852.7294  -26791787.09647 -20697525.39564
 91  4 22 23 11 44.9940000  0  5G15G 2G19G13G 6
  21903847.994    -5477022.602 5  -4172945.30721
  19069976.8304  -24715002.03548 -19171268.99664
  21674506.518     3926322.828 5   3069983.83121
  20850516.6274   -9480881.95046  -6988834.95861
  19151549.2684  -26824908.88247 -20723334.54764
 91  4 22 23 11 59.9940000  0  5G15G 2G19G13G 6
  21899459.9714   -5500083.18345  -4190914.55061
  19068108.6744  -24724815.26947 -19178915.66364
  21679964.9634    3955014.60745   3092340.95861
  20837947.9244   -9546929.38246  -7040300.26461
  19145260.0574  -26857959.62747 -20749088.34764
 91  4 22 23 12 14.9940000  0  5G15G 2G19G13G 6
  21895094.2914   -5523014.95945  -4208783.42761
  19066251.7524  -24734576.91347 -19186522.12864
  21685437.9164    3983765.85545   3114744.43661
  20825393.2294   -9612897.06546  -7091703.46261
  19138985.0254  -26890939.73347 -20774787.10064
 91  4 22 23 12 29.9940000  0  5G15G 2G19G13G 6
  21890755.5494   -5545818.77445  -4226552.59761
  19064403.5024  -24744287.67048 -19194088.94364
  21690917.4164    4012575.75645   3137193.61061
  20812857.4164   -9678785.18246  -7143044.64261
  19132721.4634  -26923849.67047 -20800431.18064
 91  4 22 23 12 44.9940000  0  5G15G 2G19G13G 6
  21886443.354    -5568494.134 5  -4244221.66421
  19062565.3154  -24753947.56548 -19201616.12664
  21696412.424     4041444.175 5   3159688.38521
  20800333.557    -9744593.269 6  -7194323.46821
  19126472.4084  -26956689.20047 -20826020.39464
 91  4 22 23 12 59.9940000  0  5G15G 2G19G13G 6
  21882151.2294   -5591045.58245  -4261794.17861
  19060737.0104  -24763561.49648 -19209107.49464
  21701917.393     4070366.190 5   3182224.89921
  20787825.6114   -9810325.94246  -7245543.52261
  19120235.9404  -26989462.83347 -20851558.26064
 91  4 22 23 13 14.9940000  0  5G15G 2G19G13G 6
  21877883.525    -5613468.851 5  -4279266.81421
  19058916.3464  -24773125.22548 -19216559.74164
  21707430.2294    4099345.93945   3204806.42061
  20775331.002    -9875978.816 6  -7296701.40621
  19114013.4634  -27022166.22847 -20877041.39664
 91  4 22 23 13 29.9940000  0  5G15G 2G19G13G 6
  21873640.744    -5635762.197 5  -4296638.21121
  19057106.6974  -24782637.24548 -19223971.69664
  21712956.072     4128384.857 5   3227434.03521
  20762853.1044   -9941549.76946  -7347795.45661
  19107803.2294  -27054797.42647 -20902468.27464
 91  4 22 23 13 44.9940000  0  5G15G 2G19G13G 6
  21869421.3464   -5657929.28245  -4313911.23461
  19055305.3934  -24792101.38048 -19231346.33564
  21718493.479     4157479.008 5   3250104.69421
  20750391.072   -10007042.260 6  -7398828.37421
  19101606.6744  -27087359.92747 -20927841.62264
 91  4 22 23 13 59.9940000  0  5G15G 2G19G13G 6
  21865228.486    -5679970.311 5  -4331086.01421
  19053512.9404  -24801518.18547 -19238684.09864
  21724038.744     4186627.839 5   3272817.95921
  20737941.791   -10072456.502 6  -7449800.30021
  19095423.5804  -27119854.09747 -20953161.72264
 91  4 22 23 14 14.9940000  0  5G15G 2G19G13G 6
  21861061.190    -5701883.189 5  -4348160.94021
  19051730.9004  -24810885.80748 -19245983.53264
  21729599.885     4215833.190 5   3295575.26021
  20725507.9324  -10137790.15846  -7500709.46661
  19089253.1044  -27152277.68647 -20978426.82664
 91  4 22 23 14 29.9940000  0  5G15G 2G19G13G 6
  21856913.1504   -5723663.83145  -4365132.84361
  19049957.6044  -24820200.27947 -19253241.55964
  21735166.6114    4245098.75645   3318379.48861
  20713093.0254  -10203039.24746  -7551552.71161
  19083097.361   -27184626.628 7 -21003633.77024
 91  4 22 23 14 44.9940000  0  5G15G 2G19G13G 6
  21852795.6044   -5745316.32845  -4382004.88261
  19048195.1434  -24829465.84947 -19260461.47664
  21740746.158     4274420.265 5   3341227.31421
  20700691.705   -10268207.529 6  -7602333.00621
  19076955.1114  -27216904.72747 -21028785.50864
 91  4 22 23 14 59.9940000  0  5G15G 2G19G13G 6
  21848698.6824   -5766839.88745  -4398776.45161
  19046441.5254  -24838682.05948 -19267642.92764
  21746334.6274    4303798.40545   3364119.27561
  20688304.815   -10333294.032 6  -7653049.57421
  19070825.1664  -27249111.19347 -21053881.42964
 91  4 22 23 15 14.9940000  0  5G15G 2G19G13G 6
  21844625.7134   -5788235.90545  -4415448.64761
  19044695.8774  -24847850.42348 -19274787.10264
  21751938.9404    4333231.32945   3387053.91861
  20675935.205   -10398299.975 6  -7703703.37321
  19064710.752   -27281247.290 7 -21078922.52023
 91  4 22 23 15 29.9940000  0  5G15G 2G19G13G 6
  21840581.8304   -5809498.61945  -4432016.95861
  19042961.8934  -24856965.38647 -19281889.65964
  21757549.854     4362724.434 5   3410035.45321
  20663580.7604  -10463219.29346  -7754289.66261
  19058609.510   -27313307.277 7 -21103904.30023
 91  4 22 23 15 44.9940000  0  5G15G 2G19G13G 6
  21836558.3154   -5830628.12345  -4448481.47861
  19041236.7684  -24866027.59748 -19288951.11564
  21763175.8464    4392277.09845   3433063.40961
  20651244.6044  -10528052.19046  -7804808.62661
  19052523.4084  -27345291.39547 -21128826.96464
 91  4 22 23 15 59.9940000  0  5G15G 2G19G13G 6
  21832562.0254   -5851624.85645  -4464842.53561
  19039522.6744  -24875037.33947 -19295971.68864
  21768809.799     4421888.946 5   3456137.46221
  20638923.3544  -10592798.63946  -7855260.21661
  19046451.6354  -27377199.61347 -21153690.48264
 91  4 22 23 16 14.9940000  0  5G15G 2G19G13G 6
  21828593.3774   -5872490.99845  -4481101.83861
  19037817.9794  -24883997.07347 -19302953.29064
  21774453.065     4451557.496 4   3479255.70721
  20626618.8934  -10657460.77346  -7905646.11861
  19040394.7524  -27409033.96747 -21178496.45863
 91  4 22 23 16 29.9940000  0  5G15G 2G19G13G 6
  21824645.8154   -5893228.81645  -4497261.14661
  19036122.0964  -24892909.26848 -19309897.85164
  21780112.2834    4481280.18144   3502416.12561
  20614329.0654  -10722040.78046  -7955968.02761
  19034349.9164  -27440796.82047 -21203246.69463
 91  4 22 23 16 44.9940000  0  5G15G 2G19G13G 6
  21820723.4164   -5913837.98145  -4513320.21261
  19034434.4164  -24901774.06647 -19316805.47864
  21785781.744     4511056.712 4   3525618.49621
  20602055.8154  -10786538.51546  -8006225.81961
  19028318.705   -27472487.894 7 -21227941.01224
 91  4 22 23 16 59.9940000  0  5G15G 2G19G13G 6
  21816825.455    -5934321.893 6  -4529281.68221
  19032756.3774  -24910594.70248 -19323678.69264
  21791453.541     4540883.816 4   3548860.28121
  20589797.3304  -10850956.52346  -8056421.49961
  19022300.674   -27504110.206 7 -21252581.75123
 91  4 22 23 17 14.9940000  0  5G15G 2G19G13G 6
  21812953.393    -5954674.900 6  -4545141.14221
  19031086.9864  -24919365.91347 -19330513.40064
  21797139.252     4570766.746 4   3572145.56121
  20577554.1974  -10915289.39446  -8106550.84261
  19016298.627   -27535658.085 7 -21277164.49323
 91  4 22 23 17 29.9940000  0  5G15G 2G19G13G 6
  21809107.5334   -5974896.74946  -4560898.39761
  19029427.0654  -24928087.63347 -19337309.54064
  21802840.0964    4600705.64944   3595474.46061
  20565328.861   -10979536.486 6  -8156613.34921
  19010309.361   -27567131.200 7 -21301688.97423
 91  4 22 23 17 44.9940000  0  5G15G 2G19G13G 6
  21805281.432    -5994987.778 6  -4576553.71521
  19027778.1274  -24936760.26248 -19344067.42564
  21808543.322     4630699.816 4   3618846.42421
  20553118.533   -11043697.958 6  -8206609.12921
  19004333.861   -27598529.728 7 -21326155.33823
 91  4 22 23 17 59.9940000  0  5G15G 2G19G13G 6
  21801486.5104   -6014945.13546  -4592104.87161
  19026136.9554  -24945381.35447 -19350785.14864
  21814264.8224    4660751.64944   3642263.32061
  20540925.604   -11107770.920 6  -8256535.95521
  18998373.861   -27629850.990 7 -21350561.49123
 91  4 22 23 18 14.9940000  0  5G15G 2G19G13G 6
  21797713.3544   -6034767.19346  -4607550.60661
  19024506.4554  -24953949.26547 -19357461.43964
  21819995.2364    4690862.64745   3665726.31561
  20528750.236   -11171753.455 6  -8306392.30921
  18992428.697   -27661092.982 7 -21374905.87923
 91  4 22 23 18 29.9940000  0  5G15G 2G19G13G 6
  21793965.5184   -6054459.35846  -4622895.12861
  19022884.5254  -24962469.58947 -19364100.64464
  21825731.5024    4721027.15444   3689231.00461
  20516591.2134  -11235650.86846  -8356182.34361
  18986497.900   -27692260.973 7 -21399192.60223
 91  4 22 23 18 44.9940000  0  5G15G 2G19G13G 6
  21790242.0184   -6074021.44145  -4638138.27261
  19021272.4864  -24970942.58447 -19370702.97064
  21831485.4474    4751244.96944   3712777.22461
  20504448.5964  -11299462.71946  -8405905.70461
  18980581.393   -27723354.736 7 -21423421.48523
 91  4 22 23 18 59.9940000  0  5G15G 2G19G13G 6
  21786543.7364   -6093454.74145  -4653281.07361
  19019669.2994  -24979369.59947 -19377269.46664
  21837245.0494    4781514.42245   3736363.68461
  20492321.775   -11363190.176 6  -8455563.29921
  18974677.940   -27754375.502 7 -21447593.48523
 91  4 22 23 19 14.9940000  0  5G15G 2G19G13G 6
  21782873.1974   -6112755.52645  -4668320.61161
  19018075.2294  -24987746.98148 -19383797.28964
  21843017.6354    4811838.90145   3759993.02761
  20480211.072   -11426829.462 6  -8505152.18521
  18968789.955   -27785319.504 7 -21471705.67323
 91  4 22 23 19 29.9940000  0  5G15G 2G19G13G 6
  21779225.5494   -6131921.97645  -4683255.46861
  19016490.3694  -24996073.34648 -19390285.36064
  21848796.5724    4842220.07144   3783666.54161
  20468117.6824  -11490378.42846  -8554670.71461
  18962915.682   -27816184.748 7 -21495756.49123
 91  4 22 23 19 44.9940000  0  5G15G 2G19G13G 6
  21775601.8074   -6150959.13346  -4698089.58261
  19014914.2754  -25004353.78147 -19396737.64064
  21854589.252     4872652.753 5   3807380.19021
  20456039.6744  -11553842.05046  -8604122.72761
  18957055.971   -27846976.116 7 -21519749.74223
 91  4 22 23 19 59.9940000  0  5G15G 2G19G13G 6
  21772005.2364   -6169857.41946  -4712815.48761
  19013349.1664  -25012578.87947 -19403146.79764
  21860391.5334    4903146.18144   3831141.17961
  20443982.3934  -11617210.32246  -8653500.42861
  18951213.4084  -27877684.06147 -21543677.98563
 91  4 22 23 20 14.9940000  0  5G15G 2G19G13G 6
  21768434.400    -6188623.533 6  -4727438.37821
  19011793.7604  -25020755.70347 -19409518.33964
  21866204.6434    4933693.19644   3854943.91761
  20431941.416   -11680489.964 6  -8702809.08121
  18945384.088   -27908315.175 7 -21567546.35824
 91  4 22 23 20 29.9940000  0  5G15G 2G19G13G 6
  21764887.869    -6207255.792 6  -4741956.98021
  19010247.0884  -25028882.70748 -19415851.06164
  21872027.736     4964295.277 5   3878789.56221
  20419916.018   -11743679.171 6  -8752047.28221
  18939570.221   -27938867.595 7 -21591353.41723
 91  4 22 23 20 44.9940000  0  5G15G 2G19G13G 6
  21761368.104    -6225754.223 6  -4756371.29821
  19008710.1274  -25036960.18647 -19422145.19264
  21877862.5494    4994952.03444   3902677.81761
  20407908.1434  -11806777.90246  -8801214.95761
  18933770.674   -27969341.346 7 -21615099.17423
 91  4 22 23 20 59.9940000  0  5G15G 2G19G13G 6
  21757873.1354   -6244120.78446  -4770682.87061
  19007181.9404  -25044990.02947 -19428402.20364
  21883702.8154    5025661.36944   3926607.02761
  20395918.3154  -11869787.94446  -8850313.54061
  18927986.533   -27999738.143 7 -21638784.96623
 91  4 22 23 21 14.9940000  0  5G15G 2G19G13G 6
  21754403.4474   -6262353.52646  -4784890.15861
  19005663.5724  -25052970.67947 -19434620.88464
  21889559.494     5056424.911 4   3950578.49921
  20383943.315   -11932707.210 6  -8899341.38121
  18922216.744   -28030056.086 7 -21662409.31423
 91  4 22 23 21 29.9940000  0  5G15G 2G19G13G 6
  21750960.057    -6280452.253 6  -4798993.01121
  19004153.7914  -25060901.60348 -19440800.81664
  21895421.518     5087243.105 4   3974592.53321
  20371988.150   -11995534.885 6  -8948297.87621
  18916463.408   -28060294.365 7 -21685971.58423
 91  4 22 23 21 44.9940000  0  5G15G 2G19G13G 6
  21747541.986    -6298418.492 6  -4812992.63121
  19002653.9634  -25068784.78647 -19446943.55064
  21901299.822     5118113.798 4   3998647.48421
  20360050.315   -12058272.472 6  -8997184.14621
  18910723.416   -28090454.612 7 -21709473.05523
 91  4 22 23 21 59.9940000  0  5G15G 2G19G13G 6
  21744146.986    -6316254.568 6  -4826890.81621
  19001162.0804  -25076623.06147 -19453051.28764
  21907185.815     5149034.069 4   4022741.06221
  20348129.4404  -12120922.37246  -9046002.08961
  18904999.393   -28120539.207 7 -21732915.57123
 91  4 22 23 22 14.9940000  0  5G15G 2G19G13G 6
  21740778.643    -6333956.921 6  -4840684.80521
  18999680.2914  -25084412.77747 -19459121.18764
  21913077.783     5180007.546 4   4046876.09421
  20336224.1904  -12183480.51446  -9094748.55561
  18899289.049   -28150544.323 7 -21756296.16123
 91  4 22 23 22 29.9940000  0  5G15G 2G19G13G 6
  21737436.174    -6351527.910 6  -4854376.44021
  18998206.6664  -25092156.50347 -19465155.25164
  21918976.580     5211031.512 4   4071050.48021
  20324334.8544  -12245949.25346  -9143425.34161
  18893593.9944  -28180472.35347 -21779616.67863
 91  4 22 23 22 44.9940000  0  5G15G 2G19G13G 6
  21734115.2214   -6368963.90946  -4867962.87461
  18996741.4794  -25099850.63647 -19471150.67664
  21924892.994     5242109.462 4   4095266.91721
  20312466.400   -12308324.656 6  -9192029.40221
  18887914.221   -28210319.308 7 -21802874.02424
 91  4 22 23 22 59.9940000  0  5G15G 2G19G13G 6
  21730823.5104   -6386266.14346  -4881445.08361
  18995287.4864  -25107496.56047 -19477108.52964
  21930817.557     5273239.871 4   4119524.22821
  20300614.6744  -12370607.73746  -9240561.51961
  18882249.018   -28240086.325 7 -21826069.07523
 91  4 22 23 23 14.9940000  0  5G15G 2G19G13G 6
  21727556.283    -6403437.177 6  -4894825.05621
  18993841.1194  -25115097.12247 -19483031.03764
  21936752.682     5304419.727 4   4143820.07621
  20288779.9404  -12432801.10946  -9289023.74361
  18876599.799   -28269776.054 7 -21849203.90623
 91  4 22 23 23 29.9940000  0  5G15G 2G19G13G 6
  21724315.5254   -6420473.87946  -4908100.35361
  18992403.3224  -25122649.24847 -19488915.80564
  21942693.9864    5335652.21644   4168156.93561
  20276960.5334  -12494900.97546  -9337413.10561
  18870965.143   -28299384.896 7 -21872275.70823
 91  4 22 23 23 44.9940000  0  5G15G 2G19G13G 6
  21721097.768    -6437375.248 6  -4921270.19821
  18990976.1044  -25130152.04047 -19494762.13064
  21948648.729     5366938.121 4   4192535.42521
  20265161.783   -12556906.248 6  -9385728.75921
  18865346.229   -28328911.785 7 -21895283.65223
 91  4 22 23 23 59.9940000  0  5G15G 2G19G13G 6
  21717910.502    -6454138.455 6  -4934332.38921
  18989558.0654  -25137602.77847 -19500567.88964
  21954613.924     5398279.846 4   4216957.39621
  20253382.5964  -12618814.03146  -9433968.43361
  18859744.729   -28358353.870 7 -21918225.51323
 91  4 22 23 24 14.9940000  0  5G15G 2G19G13G 6
  21714745.291    -6470772.307 6  -4947293.78721
  18988147.9634  -25145010.59747 -19506340.21264
  21960588.041     5429668.271 4   4241415.76921
  20241618.0334  -12680633.09546  -9482138.98561
  18854156.268   -28387719.887 7 -21941108.10623
 91  4 22 23 24 29.9940000  0  5G15G 2G19G13G 6
  21711602.9324   -6487272.31945  -4960150.88261
  18986747.7134  -25152371.10347 -19512075.66564
  21966566.8544    5461107.67445   4265913.84761
  20229872.1904  -12742358.47946  -9530236.53961
  18848583.900   -28417005.041 7 -21963927.68323
 91  4 22 23 24 44.9940000  0  5G15G 2G19G13G 6
  21708490.799    -6503638.093 5  -4972903.38321
  18985356.0654  -25159683.95547 -19517773.98264
  21972564.033     5492598.291 5   4290451.85521
  20218143.408   -12803989.554 6  -9578260.61621
  18843024.658   -28446208.793 7 -21986683.83023
 91  4 22 23 24 59.9940000  0  5G15G 2G19G13G 6
  21705398.893    -6519867.614 5  -4985549.71221
  18983973.5804  -25166947.51047 -19523433.89064
  21978565.4324    5524141.64745   4315030.93061
  20206433.8694  -12865524.51946  -9626209.78761
  18837483.354   -28475329.151 7 -22009374.99723
 91  4 22 23 25 14.9940000  0  5G15G 2G19G13G 6
  21702335.6824   -6535961.91445  -4998090.69361
  18982600.9864  -25174162.81447 -19529056.20364
  21984574.7294    5555736.65844   4339650.27861
  20194743.6504  -12926963.98146  -9674084.54561
  18831958.299   -28504366.816 7 -22032001.72723
 91  4 22 23 25 29.9940000  0  5G15G 2G19G13G 6
  21699300.072    -6551922.374 6  -5010527.36721
  18981236.5024  -25181331.48047 -19534642.17164
  21990602.682     5587381.332 4   4364308.32321
  20183068.9084  -12988309.06246  -9721885.76361
  18826448.127   -28533323.276 7 -22054565.18623
 91  4 22 23 25 44.9940000  0  5G15G 2G19G13G 6
  21696290.729    -6567745.620 5  -5022857.12421
  18979881.8544  -25188450.48747 -19540189.44264
  21996631.2364    5619078.93844   4389007.60961
  20171414.2294  -13049556.54446  -9769610.92661
  18820955.205   -28562195.015 7 -22077062.62323
 91  4 22 23 25 59.9930000  0  5G15G 2G19G13G 6
  21693302.3414   -6583430.85745  -5035079.34261
  18978536.5754  -25195519.82147 -19545698.00964
  22002673.3414    5650826.83644   4413746.06361
  20159777.544   -13110702.361 6  -9817256.87421
  18815476.638   -28590980.324 7 -22099492.71523
 91  4 22 23 26 14.9930000  0  5G15G 2G19G13G 6
  21690345.0524   -6598982.76445  -5047197.67161
  18977200.0914  -25202542.80247 -19551170.46464
  22008726.192     5682626.557 4   4438524.93021
  20148159.833   -13171756.737 6  -9864831.56621
  18810013.599   -28619685.274 7 -22121860.18623
 91  4 22 23 26 29.9930000  0  5G15G 2G19G13G 6
  21687410.107    -6614399.216 5  -5059210.45121
  18975873.7784  -25209518.12247 -19556605.77164
  22014783.9744    5714476.82244   4463343.17561
  20136560.1854  -13232714.37546  -9912330.87861
  18804567.036   -28648306.614 7 -22144162.51223
 91  4 22 23 26 44.9930000  0  5G15G 2G19G13G 6
  21684504.310    -6629681.163 5  -5071118.41421
  18974554.8334  -25216446.57147 -19562004.55564
  22020856.7244    5746376.59244   4488199.98461
  20124978.0994  -13293576.07446  -9959755.43461
  18799136.435   -28676845.037 7 -22166400.22323
 91  4 22 23 26 59.9930000  0  5G15G 2G19G13G 6
  21681618.4584   -6644831.21045  -5082923.60861
  18973244.5754  -25223331.17648 -19567369.17864
  22026935.1614    5778322.83244   4513093.02761
  20113413.0214  -13354344.54846 -10007107.35161
  18793720.919   -28705303.280 7 -22188575.45823
 91  4 22 23 27 14.9930000  0  5G15G 2G19G13G 6
  21678760.778    -6659848.020 5  -5094624.97221
  18971943.3804  -25230170.73847 -19572698.70764
  22033025.1694    5810316.64944   4538023.12061
  20101867.107   -13415017.840 6 -10054385.10021
  18788320.646   -28733679.868 7 -22210687.06823
 91  4 22 23 27 29.9930000  0  5G15G 2G19G13G 6
  21675930.864    -6674727.910 5  -5106219.64721
  18970650.3884  -25236961.70648 -19577990.36264
  22039121.091     5842361.521 4   4562992.99921
  20090340.857   -13475592.182 6 -10101585.73721
  18782937.778   -28761970.881 7 -22232731.98923
 91  4 22 23 27 44.9930000  0  5G15G 2G19G13G 6
  21673128.060    -6689474.092 5  -5117710.12121
  18969366.8724  -25243707.03447 -19583246.45564
  22045227.458     5874454.233 3   4588000.16921
  20078833.013   -13536070.353 6 -10148711.43921
  18777569.669   -28790179.040 7 -22254712.35623
 91  4 22 23 27 59.9930000  0  5G15G 2G19G13G 6
  21670344.5834   -6704082.98445  -5129093.63761
  18968092.1464  -25250403.75547 -19588464.67564
  22051342.7164    5906597.74744   4613046.90061
  20067342.247   -13596448.899 6 -10195759.52121
  18772219.036   -28818300.894 7 -22276625.46923
 91  4 22 23 28 14.9930000  0  5G15G 2G19G13G 6
  21667589.7864   -6718559.79345  -5140374.23861
  18966825.7554  -25257056.88847 -19593648.93564
  22057470.7634    5938786.87344   4638129.19261
  20055869.146   -13656732.684 6 -10242733.76121
  18766883.200   -28846341.405 7 -22298475.20023
 91  4 22 23 28 29.9930000  0  5G15G 2G19G13G 6
  21664860.716    -6732897.844 5  -5151546.69521
  18965569.6854  -25263660.20147 -19598794.36564
  22063602.357     5971027.755 4   4663251.79021
  20044418.427   -13716915.142 6 -10289629.03421
  18761564.372   -28874293.963 7 -22320256.39023
 91  4 22 23 28 44.9930000  0  5G15G 2G19G13G 6
  21662158.3254   -6747099.01345  -5162612.49961
  18964322.4894  -25270215.64747 -19603902.50664
  22069752.7474    6003318.16044   4688413.00361
  20032984.544   -13776997.949 6 -10336446.66421
  18756261.052   -28902160.414 7 -22341970.48923
 91  4 22 23 28 59.9930000  0  5G15G 2G19G13G 6
  21659483.1384   -6761167.32445  -5173574.78161
  18963083.2864  -25276726.94448 -19608976.24064
  22075905.3964    6035654.46543   4713609.96061
  20021570.1534  -13836984.35346 -10383189.16761
  18750973.708   -28929944.083 7 -22363620.08223
 91  4 22 23 29 14.9930000  0  5G15G 2G19G13G 6
  21656831.278    -6775100.172 5  -5184431.50921
  18961853.2004  -25283191.72548 -19614013.73064
  22082067.9504    6068038.70144   4738844.28961
  20010174.036   -13896871.684 6 -10429854.48921
  18745702.380   -28957642.382 7 -22385203.15623
 91  4 22 23 29 29.9930000  0  5G15G 2G19G13G 6
  21654204.2394   -6788897.39845  -5195182.56161
  18960632.0674  -25289610.19148 -19619015.12764
  22088239.739     6100470.775 4   4764115.86821
  19998796.083   -13956659.656 6 -10476442.37621
  18740447.638   -28985255.092 7 -22406719.53523
 91  4 22 23 29 44.9930000  0  5G15G 2G19G13G 6
  21651603.6144   -6802556.38845  -5205825.88961
  18959419.8804  -25295979.96648 -19623978.58464
  22094420.7394    6132952.84344   4789426.43661
  19987437.2394  -14016345.75346 -10522950.89461
  18735210.794   -29012779.514 7 -22428167.11323
 91  4 22 23 29 59.9930000  0  5G15G 2G19G13G 6
  21649031.739    -6816077.487 5  -5216361.76921
  18958216.9664  -25302301.21048 -19628904.22564
  22100609.966     6165484.687 3   4814775.75521
  19976098.841   -14075929.821 6 -10569379.89921
  18729988.638   -29040215.595 7 -22449545.85723
 91  4 22 23 30 14.9930000  0  5G15G 2G19G13G 6
  21646487.685    -6829463.487 5  -5226792.37821
  18957022.5364  -25308576.63048 -19633794.15364
  22106811.7164    6198063.46943   4840161.68161
  19964779.310   -14135414.217 6 -10615731.23121
  18724784.544   -29067565.713 7 -22470857.61923
 91  4 22 23 30 29.9930000  0  5G15G 2G19G13G 6
  21643962.2004   -6842710.97045  -5237115.05761
  18955837.9894  -25314803.40048 -19638646.17964
  22113016.958     6230691.932 3   4865586.29421
  19953480.122   -14194795.580 6 -10662002.29421
  18719598.130   -29094826.809 7 -22492100.01323
 91  4 22 23 30 44.9930000  0  5G15G 2G19G13G 6
  21641471.1464   -6855818.97245  -5247329.05561
  18954662.7324  -25320980.48348 -19643459.49164
  22119237.989     6263370.960 4   4891050.30021
  19942199.896   -14254072.632 6 -10708192.07321
  18714426.677   -29121997.641 7 -22513272.07123
 91  4 22 23 30 59.9930000  0  5G15G 2G19G13G 6
  21639000.021    -6868791.265 5  -5257437.29521
  18953495.5674  -25327111.78448 -19648237.12464
  22125465.911     6296096.309 3   4916550.43921
  19930939.528   -14313249.176 6 -10754303.52521
  18709273.677   -29149081.761 7 -22534376.56023
 91  4 22 23 31 14.9930000  0  5G15G 2G19G13G 6
  21636557.349    -6881626.098 5  -5267438.41521
  18952338.1144  -25333195.66848 -19652977.80864
  22131703.6854    6328869.71443   4942087.99261
  19919696.6464  -14372323.14946 -10800335.06461
  18704135.802   -29176077.301 7 -22555412.02723
 91  4 22 23 31 29.9930000  0  5G15G 2G19G13G 6
  21634144.2004   -6894321.63845  -5277331.01461
  18951188.5284  -25339230.37648 -19657680.17564
  22137946.8174    6361692.66343   4967664.16661
  19908475.4664  -14431292.71046 -10846285.23961
  18699015.130   -29202982.138 7 -22576376.81023
 91  4 22 23 31 44.9930000  0  5G15G 2G19G13G 6
  21631752.4034   -6906886.58245  -5287121.83861
  18950049.0674  -25345224.57248 -19662350.97264
  22144201.341     6394556.496 3   4993272.16921
  19897273.607   -14490166.081 6 -10892160.46321
  18693911.833   -29229804.749 7 -22597277.52723
 91  4 22 23 31 59.9930000  0  5G15G 2G19G13G 6
  21629386.4424   -6919308.93645  -5296801.55861
  18948918.8414  -25351166.53348 -19666981.06864
  22150465.247     6427472.889 3   5018921.14621
  19886089.2004  -14548930.96546 -10937951.16061
  18688825.153   -29256533.002 7 -22618104.71923
 91  4 22 23 32 14.9930000  0  5G15G 2G19G13G 6
  21627048.9824   -6931594.32845  -5306374.55161
  18947796.5134  -25357061.91248 -19671574.86364
  22156738.6924    6460435.94843   5044606.48461
  19874925.817   -14607592.697 6 -10983661.47021
  18683755.974   -29283172.191 7 -22638862.51223
 91  4 22 23 32 29.9930000  0  5G15G 2G19G13G 6
  21624739.4424   -6943739.37345  -5315838.19561
  18946683.4824  -25362907.41448 -19676129.79364
  22163017.9034    6493448.73143   5070330.57361
  19863782.6304  -14666148.06746 -11029288.90461
  18678704.872   -29309719.053 7 -22659548.35423
 91  4 22 23 32 44.9930000  0  5G15G 2G19G13G 6
  21622452.6774   -6955748.31345  -5325195.76561
  18945580.1854  -25368707.53748 -19680649.36464
  22169312.982     6526506.763 3   5096089.92021
  19852659.7554  -14724601.01946 -11074836.53061
  18673667.935   -29336177.632 7 -22680165.40823
 91  4 22 23 32 59.9930000  0  5G15G 2G19G13G 6
  21620196.364    -6967621.154 5  -5334447.29121
  18944484.4584  -25374462.12548 -19685133.45764
  22175609.5834    6559610.00043   5121884.47061
  19841556.5214  -14782950.92846 -11120303.86861
  18668652.013   -29362547.484 7 -22700713.32423
 91  4 22 23 33 14.9930000  0  5G15G 2G19G13G 6
  21617961.3024   -6979353.01745  -5343588.96461
  18943400.2634  -25380166.41648 -19689578.34964
  22181919.6614    6592762.98343   5147717.82661
  19830473.2324  -14841192.97846 -11165687.16061
  18663650.567   -29388823.653 7 -22721188.24123
 91  4 22 23 33 29.9930000  0  5G15G 2G19G13G 6
  21615755.0834   -6990945.22145  -5352621.81261
  18942323.6534  -25385822.00248 -19693985.29564
  22188238.919     6625964.005 3   5173588.55721
  19819410.1384  -14899328.45746 -11210987.40061
  18658668.396   -29415007.413 7 -22741591.15123
 91  4 22 23 33 44.9930000  0  5G15G 2G19G13G 6
  21613573.466    -7002398.451 5  -5361546.37321
  18941255.6694  -25391429.64848 -19698354.88364
  22194567.364     6659212.355 3   5199496.22321
  19808366.497   -14957357.667 6 -11256204.83321
  18653704.888   -29441099.186 7 -22761922.38423
 91  4 22 23 33 59.9930000  0  5G15G 2G19G13G 6
  21611422.9034   -7013715.27845  -5370364.64861
  18940197.5754  -25396991.65048 -19702688.90464
  22200904.849     6692505.516 3   5225438.78821
  19797344.3174  -15015282.91346 -11301341.27061
  18648755.505   -29467101.128 7 -22782183.62223
 91  4 22 23 34 14.9930000  0  5G15G 2G19G13G 6
  21609294.4824   -7024895.18545  -5379076.22961
  18939148.0444  -25402507.79347 -19706987.19164
  22207248.442     6725843.693 3   5251416.40721
  19786341.6924  -15073103.35346 -11346396.03061
  18643824.622   -29493012.667 7 -22802374.41223
 91  4 22 23 34 29.9930000  0  5G15G 2G19G13G 6
  21607191.9584   -7035936.82045  -5387680.06961
  18938106.9744  -25407976.86447 -19711248.79764
  22213599.9504    6759227.75843   5277429.79861
  19775358.9824  -15130817.61446 -11391368.05561
  18638911.427   -29518832.303 7 -22822493.59023
 91  4 22 23 34 44.9930000  0  5G15G 2G19G13G 6
  21605121.7714   -7046840.17346  -5396176.15161
  18937074.9114  -25413398.99147 -19715473.82664
  22219961.5364    6792657.54643   5303478.80561
  19764396.7084  -15188425.51346 -11436257.20361
  18634016.614   -29544559.971 7 -22842541.10423
 91  4 22 23 34 59.9930000  0  5G15G 2G19G13G 6
  21603067.8724   -7057604.78245  -5404564.13161
  18936051.6694  -25418773.77147 -19719661.96164
  22226329.5994    6826133.17443   5329563.54861
  19753454.0444  -15245926.39746 -11481062.96261
  18629138.536   -29570195.030 7 -22862516.45323
 91  4 22 23 35 14.9930000  0  5G15G 2G19G13G 6
  21601050.849    -7068233.016 6  -5412845.83721
  18935037.4974  -25424103.49947 -19723814.98764
  22232709.435     6859652.451 3   5355682.27921
  19742532.4424  -15303322.20446 -11525786.84161
  18624276.419   -29595739.467 7 -22882421.19123
 91  4 22 23 35 29.9930000  0  5G15G 2G19G13G 6
  21599050.2004   -7078726.23745  -5421022.33561
  18934032.6304  -25429389.63247 -19727934.04464
  22239096.8174    6893213.74743   5381833.79361
  19731630.3964  -15360614.16846 -11570429.80461
  18619432.810   -29621194.417 7 -22902256.19423
 91  4 22 23 35 44.9930000  0  5G15G 2G19G13G 6
  21597079.8574   -7089077.60345  -5429088.30761
  18933036.7554  -25434625.45547 -19732013.89864
  22245491.833     6926823.737 3   5408023.21221
  19720748.7554  -15417795.23846 -11614986.36761
  18614606.653   -29646552.796 7 -22922015.95023
 91  4 22 23 35 59.9930000  0  5G15G 2G19G13G 6
  21595139.224    -7099288.565 5  -5437044.88521
  18932049.2004  -25439812.58747 -19736055.81264
  22251894.8644    6960480.43044   5434249.01161
  19709888.0994  -15474866.84346 -11659457.62961
  18609799.958   -29671816.033 7 -22941701.56823
 91  4 22 23 36 14.9930000  0  5G15G 2G19G13G 6
  21593223.067    -7109358.190 5  -5444891.32021
  18931071.4194  -25444950.02547 -19740059.00364
  22258307.317     6994184.777 3   5460511.99821
  19699049.1464  -15531827.56246 -11703842.48761
  18605010.130   -29696982.915 7 -22961312.10623
 91  4 22 23 36 29.9930000  0  5G15G 2G19G13G 6
  21591333.278    -7119286.342 5  -5452627.51621
  18930103.2324  -25450037.57747 -19744023.32564
  22264735.8334    7027936.78243   5486812.10261
  19688230.5134  -15588676.74946 -11748140.43761
  18600239.864   -29722052.999 7 -22980847.21123
 91  4 22 23 36 44.9930000  0  5G15G 2G19G13G 6
  21589470.122    -7129071.999 5  -5460252.68021
  18929145.2004  -25455074.55947 -19747948.23764
  22271163.4424    7061737.00443   5513149.74761
  19677433.2394  -15645413.53346 -11792350.80261
  18595487.325   -29747025.210 7 -23000306.06223
 91  4 22 23 36 59.9930000  0  5G15G 2G19G13G 6
  21587633.8254   -7138718.47746  -5467769.38661
  18928194.9664  -25460064.24647 -19751836.30064
  22277603.067     7095582.143 3   5539522.43821
  19666658.739   -15702040.918 6 -11836475.91921
  18590753.482   -29771902.643 7 -23019691.05723
 91  4 22 23 37 14.9930000  0  5G15G 2G19G13G 6
  21585825.021    -7148227.479 6  -5475178.98021
  18927253.6304  -25465008.43147 -19755688.90864
  22284053.763     7129470.064 3   5565928.43621
  19655902.7244  -15758560.46546 -11880517.01061
  18586037.638   -29796686.842 7 -23039003.40023
 91  4 22 23 37 29.9930000  0  5G15G 2G19G13G 6
  21584042.0524   -7157594.79345  -5482478.16961
  18926322.2084  -25469902.93347 -19759502.80264
  22290514.700     7163404.778 3   5592370.89021
  19645168.067   -15814967.654 6 -11924470.54921
  18581340.403   -29821373.298 7 -23058239.58023
 91  4 22 23 37 44.9930000  0  5G15G 2G19G13G 6
  21582288.083    -7166823.055 5  -5489669.00421
  18925399.9664  -25474750.45747 -19763280.09264
  22296979.8884    7197383.65142   5618847.73961
  19634454.9194  -15871264.80246 -11968338.34261
  18576660.841   -29845964.354 7 -23077401.42823
 91  4 22 23 37 59.9930000  0  4G15G 2G13G 6
  21580557.716    -7175910.224 5  -5496749.88721
  18924488.2474  -25479548.86847 -19767019.10964
  19623763.9824  -15927449.42846 -12012118.45761
  18571998.810   -29870457.706 7 -23096487.13923
 91  4 22 23 38 14.9930000  0  4G15G 2G13G 6
  21578854.325    -7184859.363 6  -5503723.22521
  18923583.6144  -25484301.22547 -19770722.24264
  19613092.8804  -15983524.60646 -12055813.28261
  18567356.692   -29894856.201 7 -23115498.93523
 91  4 22 23 38 29.9930000  0  4G15G 2G13G 6
  21577180.239    -7193668.175 6  -5510587.21621
  18922686.7864  -25489005.29147 -19774387.74664
  19602442.9744  -16039487.99146 -12099421.00361
  18562732.653   -29919157.345 7 -23134434.88023
 91  4 22 23 38 44.9930000  0  4G15G 2G13G 6
  21575528.9194   -7202334.04846  -5517339.82761
  18921802.9974  -25493658.69347 -19778013.77264
  19591816.153   -16095336.744 6 -12142939.39921
  18558126.786   -29943358.514 7 -23153292.91623
 91  4 22 23 38 59.9930000  0  4G15G 2G13G 6
  21573905.599    -7210862.473 6  -5523985.33021
  18920925.4354  -25498266.80247 -19781604.50064
  19581207.864   -16151075.856 6 -12186372.36121
  18553538.583   -29967464.890 7 -23172077.08923
 91  4 22 23 39 14.9930000  0  4G15G 2G13G 6
  21572310.2784   -7219254.56445  -5530524.61561
  18920056.2634  -25502831.36347 -19785161.29964
  19570621.919   -16206706.672 6 -12229720.93821
  18548969.857   -29991477.710 7 -23190788.36223
 91  4 22 23 39 29.9930000  0  4G15G 2G13G 6
  21570738.4034   -7227506.47545  -5536954.66161
  18919197.5604  -25507347.94347 -19788680.71264
  19560057.482   -16262224.831 6 -12272981.72921
  18544418.903   -30015392.415 7 -23209423.17923
 91  4 22 23 39 44.9930000  0  4G15G 2G13G 6
  21569193.7084   -7235617.45245  -5543274.88861
  18918347.3254  -25511815.91947 -19792162.24564
  19549514.896   -16317629.261 6 -12316153.90321
  18539886.935   -30039208.222 7 -23227980.94123
 91  4 22 23 39 59.9930000  0  4G15G 2G13G 6
  21567680.2084   -7243586.45645  -5549484.50361
  18917505.8574  -25516234.24547 -19795605.09764
  19538992.388   -16372918.788 6 -12359236.53821
  18535374.646   -30062923.837 7 -23246460.63023
 91  4 22 23 40 14.9930000  0  4G15G 2G13G 6
  21566190.216    -7251419.229 6  -5555587.94621
  18916673.7084  -25520608.49847 -19799013.60364
  19528492.4194  -16428098.61747 -12402233.70361
  18530879.294   -30086544.620 7 -23264866.41423
 91  4 22 23 40 29.9930000  0  4G15G 2G13G 6
  21564723.075    -7259113.055 5  -5561583.12321
  18915851.2004  -25524936.19547 -19802385.83464
  19518012.677   -16483166.136 7 -12445143.34421
  18526402.802   -30110067.614 7 -23283196.00423
 91  4 22 23 40 44.9930000  0  4G15G 2G13G 6
  21563284.8174   -7266664.54145  -5567467.37661
  18915036.1144  -25529214.10147 -19805719.26564
  19507556.036   -16538117.545 7 -12487962.51321
  18521945.716   -30133489.283 7 -23301446.64123
 91  4 22 23 40 59.9930000  0  4G15G 2G13G 6
  21561875.3724   -7274073.40745  -5573240.51161
  18914232.6924  -25533442.12247 -19809013.82964
  19497121.278   -16592952.383 7 -12530690.85221
  18517507.716   -30156809.207 7 -23319617.99623
 91  4 22 23 41 14.9930000  0  4G15G 2G13G 6
  21560493.450    -7281343.972 6  -5578905.86721
  18913435.8414  -25537624.43547 -19812272.77164
  19486708.653   -16647674.694 7 -12573331.50521
  18513089.263   -30180031.506 7 -23337713.28023
 91  4 22 23 41 29.9930000  0  4G15G 2G13G 6
  21559133.8964   -7288479.86545  -5584466.28161
  18912647.7554  -25541764.50547 -19815498.80064
  19476315.661   -16702287.688 7 -12615886.97921
  18508688.778   -30203159.430 7 -23355735.02723
 91  4 22 23 41 44.9930000  0  4G15G 2G13G 6
  21557803.630    -7295476.019 5  -5589917.81721
  18911869.2554  -25545857.75647 -19818688.35164
  19465946.2634  -16756786.45847 -12658353.43861
  18504305.614   -30226188.114 7 -23373679.44223
 91  4 22 23 41 59.9930000  0  4G15G 2G13G 6
  21556499.6924   -7302329.79845  -5595258.43061
  18911099.5054  -25549901.36547 -19821839.21564
  19455595.911   -16811167.976 7 -12700728.54121
  18499943.216   -30249114.308 7 -23391543.99423
 91  4 22 23 42 14.9930000  0  4G15G 2G13G 6
  21555225.7634   -7309046.96845  -5600492.57761
  18910337.5994  -25553901.18947 -19824955.96364
  19445269.403   -16865437.694 7 -12743016.53521
  18495599.3804  -30271943.70547 -23409333.12363
 91  4 22 23 42 29.9930000  0  4G15G 2G13G 6
  21553968.8174   -7315625.01245  -5605618.31461
  18909586.6384  -25557854.48547 -19828036.45164
  19434964.857   -16919592.937 7 -12785215.31321
  18491274.083   -30294673.298 7 -23427044.48223
 91  4 22 23 42 44.9930000  0  4G15G 2G13G 6
  21552744.630    -7322065.735 5  -5610637.05321
  18908842.8644  -25561763.39147 -19831082.35364
  19424679.310   -16973635.473 7 -12827326.27521
  18486966.724   -30317305.108 7 -23444679.64723
 91  4 22 23 42 59.9930000  0  4G15G 2G13G 6
  21551549.8104   -7328363.55845  -5615544.43361
  18908107.4974  -25565621.99947 -19834089.06064
  19414418.3104  -17027559.38347 -12869344.80961
  18482679.224   -30339832.939 7 -23462233.78823
 91  4 22 23 43 14.9930000  0  4G15G 2G13G 6
  21550371.685    -7334523.599 5  -5620344.45221
  18907383.0754  -25569435.45947 -19837060.59064
  19404177.942   -17081369.475 7 -12911274.64621
  18478411.271   -30362261.642 7 -23479710.68923
 91  4 22 23 43 29.9930000  0  4G15G 2G13G 6
  21549230.052    -7340541.249 5  -5625033.51421
  18906666.3254  -25573199.18747 -19839993.36664
  19393960.942   -17135060.708 7 -12953111.87021
  18474164.0994  -30384586.37547 -23497106.57463
 91  4 22 23 43 44.9930000  0  4G15G 2G13G 6
  21548110.8884   -7346420.78245  -5629614.94861
  18905959.3804  -25576917.77647 -19842890.96964
  19383766.450   -17188637.152 7 -12994859.64221
  18469933.888   -30406811.511 7 -23514424.85123
 91  4 22 23 43 59.9930000  0  4G15G 2G13G 6
  21547016.950    -7352158.619 5  -5634085.97521
  18905261.2084  -25580587.51947 -19845750.51064
  19373592.7324  -17242095.08747 -13036515.07761
  18465724.958   -30428932.972 7 -23531662.34023
 91  4 22 23 44 14.9930000  0  4G15G 2G13G 6
  21545952.7164   -7357758.81245  -5638449.75561
  18904570.3804  -25584212.23147 -19848574.96564
  19363442.403   -17295438.352 7 -13078081.16021
  18461533.997   -30450954.460 7 -23548821.92523
 91  4 22 23 44 29.9930000  0  4G15G 2G13G 6
  21544913.9584   -7363219.31745  -5642704.68961
  18903890.2164  -25587790.09347 -19851362.91064
  19353313.669   -17348664.756 7 -13119556.17721
  18457361.8724  -30472873.85947 -23565901.96863
 91  4 22 23 44 44.9930000  0  4G15G 2G13G 6
  21543901.7944   -7368539.83845  -5646850.54661
  18903217.5754  -25591320.73747 -19854114.06164
  19343206.653   -17401773.766 7 -13160939.72221
  18453210.778   -30494690.605 7 -23582902.01723
 91  4 22 23 44 59.9930000  0  4G15G 2G13G 6
  21542911.6854   -7373724.45445  -5650890.51061
  18902554.1694  -25594808.14847 -19856831.52364
  19333122.075   -17454768.738 7 -13202234.40021
  18449079.489   -30516408.412 7 -23599824.96923
 91  4 22 23 45 14.9930000  0  4G15G 2G13G 6
  21541951.1074   -7378769.03345  -5654821.33661
  18901899.0914  -25598248.52847 -19859512.33964
  19323059.9894  -17507645.89547 -13243437.28361
  18444965.786   -30538023.205 7 -23616667.65223
 91  4 22 23 45 29.9930000  0  4G15G 2G13G 6
  21541020.4034   -7383671.01345  -5658641.06261
  18901254.8104  -25601639.05547 -19862154.30664
  19313021.216   -17560402.318 7 -13284546.08721
  18440872.8414  -30559532.07847 -23633427.80463
 91  4 22 23 45 44.9930000  0  4G15G 2G13G 6
  21540111.1224   -7388432.24245  -5662351.09361
  18900619.0214  -25604981.63847 -19864758.91764
  19303003.911   -17613039.650 7 -13325562.09021
  18436798.692   -30580936.510 7 -23650106.56823
 91  4 22 23 45 59.9930000  0  4G15G 2G13G 6
  21539236.1144   -7393054.17745  -5665952.59561
  18899990.2324  -25608277.80547 -19867327.35964
  19293010.7164  -17665559.05747 -13366486.20761
  18432745.810   -30602237.834 7 -23666704.98623
 91  4 22 23 46 14.9930000  0  4G15G 2G13G 6
  21538381.771    -7397531.523 5  -5669441.42621
  18899372.7864  -25611521.97647 -19869855.28364
  19283040.317   -17717954.735 7 -13407313.90421
  18428713.036   -30623430.438 7 -23683218.68923
 91  4 22 23 46 29.9930000  0  4G15G 2G13G 6
  21537556.8644   -7401871.64845  -5672823.33861
  18898765.1304  -25614721.65047 -19872348.53264
  19273090.4194  -17770233.81047 -13448050.75461
  18424699.247   -30644521.354 7 -23699653.15423
 91  4 22 23 46 44.9930000  0  4G15G 2G13G 6
  21536754.708    -7406070.812 5  -5676095.40821
  18898164.9974  -25617873.22747 -19874804.30664
  19263165.3884  -17822392.21847 -13488693.57461
  18420707.349   -30665506.568 7 -23716005.25823
 91  4 22 23 46 59.9930000  0  4G15G 2G13G 6
  21535994.7944   -7410129.91145  -5679258.34661
  18897574.0524  -25620977.47647 -19877223.20364
  19253262.9194  -17874430.65447 -13529242.91461
  18416731.7474  -30686386.79347 -23732275.55063
 91  4 22 23 47 14.9930000  0  4G15G 2G13G 6
  21535240.9194   -7414048.13145  -5682311.51561
  18896992.6534  -25624033.52247 -19879604.53664
  19243384.0674  -17926348.37847 -13569698.18661
  18412780.419   -30707160.965 7 -23748463.20023
 91  4 22 23 47 29.9930000  0  4G15G 2G13G 6
  21534519.263    -7417824.092 5  -5685253.79921
  18896420.7944  -25627039.96448 -19881947.22164
  19233526.9424  -17978143.74247 -13610058.11861
  18408845.778   -30727827.450 7 -23764566.94023
 91  4 22 23 47 44.9930000  0  4G15G 2G13G 6
  21533828.2244   -7421461.06345  -5688087.80861
  18895856.8104  -25630000.17547 -19884253.88264
  19223692.8884  -18029819.74947 -13650325.03761
  18404935.122   -30748389.283 7 -23780589.13223
 91  4 22 23 47 59.9930000  0  4G15G 2G13G 6
  21533165.857    -7424958.287 5  -5690812.91021
  18895302.4584  -25632913.27647 -19886523.83464
  19213881.5604  -18081374.94347 -13690497.82561
  18401040.802   -30768845.428 7 -23796528.97223
 91  4 22 23 48 14.9930000  0  4G15G 2G13G 6
  21532528.8574   -7428316.92245  -5693430.03161
  18894757.5524  -25635780.41847 -19888757.97164
  19204094.4824  -18132810.63847 -13730577.49161
  18397168.1144  -30789196.86647 -23812387.22463
 91  4 22 23 48 29.9930000  0  4G15G 2G13G 6
  21531909.427    -7431535.389 5  -5695937.90321
  18894221.9194  -25638599.96147 -19890955.02064
  19194329.3494  -18184124.81447 -13770562.46961
  18393316.646   -30809441.676 7 -23828162.38323
 91  4 22 23 48 44.9930000  0  4G15G 2G13G 6
  21531327.3104   -7434611.46945  -5698334.84761
  18893694.1144  -25641369.83747 -19893113.36864
  19184589.2004  -18235315.26847 -13810451.03861
  18389483.896   -30829577.446 7 -23843852.58323
 91  4 22 23 48 59.9930000  0  4G15G 2G13G 6
  21530768.560    -7437551.134 5  -5700625.48121
  18893175.7714  -25644095.72647 -19895237.43964
  19174869.7634  -18286387.59447 -13850247.55961
  18385671.989   -30849609.821 7 -23859462.20623
 91  4 22 23 49 14.9930000  0  4G15G 2G13G 6
  21530241.8494   -7440354.15546
  18892664.5914  -25646777.40447
  19165172.794   -18337341.175 7 -13889951.55321
  18381880.614   -30869538.364 7 -23874990.92123
 91  4 22 23 49 29.9930000  0  4G15G 2G13G 6
  21529734.216    -7443008.046 6
  18892164.8174  -25649402.38947
  19155502.3254  -18388163.19547 -13929553.04261
  18378110.075   -30889350.144 7 -23890428.65623
 91  4 22 23 49 44.9930000  0  4G15G 2G13G 6
  21529253.7244   -7445526.28545  -5706839.84961
  18891673.0054  -25651984.13047 -19901384.24664
  19145852.6614  -18438867.08747 -13969062.47461
  18374360.271   -30909058.439 7 -23905785.75023
 91  4 22 23 49 59.9930000  0  4G15G 2G13G 6
  21528800.5994   -7447904.50545  -5708693.02161
  18891191.6384  -25654518.45647 -19903359.04264
  19136227.2004  -18489448.35947 -14008476.36461
  18370629.724   -30928658.841 7 -23921058.77623
 91  4 22 23 50 14.9930000  0  4G15G 2G13G 6
  21528372.333    -7450144.649 5  -5710438.59121
  18890718.0754  -25657007.12648 -19905298.26764
  19126626.0994  -18539908.53547 -14047795.88961
  18366921.099   -30948152.804 7 -23936248.85923
 91  4 22 23 50 29.9930000  0  4G15G 2G13G 6
  21527967.7474   -7452238.85345  -5712070.43661
  18890255.0754  -25659442.13948 -19907195.67864
  19117048.0444  -18590239.47047 -14087014.71261
  18363232.427   -30967532.149 7 -23951349.63123
 91  4 22 23 50 44.9930000  0  4G15G 2G13G 6
  21527601.005    -7454191.557 5  -5713592.01321
  18889799.5994  -25661827.94847 -19909054.75064
  19107493.8494  -18640445.63347 -14126136.30961
  18359565.192   -30986801.197 7 -23966364.45923
 91  4 22 23 50 59.9930000  0  4G15G 2G13G 6
  21527262.5364   -7456008.00246  -5715007.40861
  18889354.9504  -25664169.68547 -19910879.48064
  19097963.7164  -18690531.71747 -14165164.33661
  18355919.888   -31005964.951 7 -23981297.24123
 91  4 22 23 51 14.9930000  0  4G15G 2G13G 6
  21526937.560    -7457680.519 6  -5716310.65321
  18888919.1384  -25666459.93247 -19912664.08764
  19088457.5214  -18740490.06147 -14204092.83061
  18352293.911   -31025015.698 7 -23996141.96523
 91  4 22 23 51 29.9930000  0  4G15G 2G13G 6
  21526648.5524   -7459212.97045  -5717504.76761
  18888492.3884  -25668702.24547 -19914411.34564
  19078973.1074  -18790323.95047 -14242924.33861
  18348689.310   -31043956.700 7 -24010901.17523
 91  4 22 23 51 44.9930000  0  4G15G 2G13G 6
  21526380.6074   -7460610.26645  -5718593.56761
  18888073.6854  -25670901.30247 -19916124.89364
  19069512.9274  -18840038.12947 -14281662.57261
  18345103.802   -31062792.437 7 -24025578.35123
 91  4 22 23 51 59.9930000  0  4G15G 2G13G 6
  21526143.935    -7461867.376 5  -5719573.13221
  18887665.7244  -25673052.38748 -19917801.05864
  19060076.6074  -18889627.31347 -14320303.40861
  18341541.232   -31081517.734 7 -24040169.48023
 91  4 22 23 52 14.9930000  0  4G15G 2G13G 6
  21525928.4894   -7462987.94345  -5720446.29361
  18887263.3724  -25675159.08048 -19919442.63564
  19050661.9664  -18939095.23147 -14358849.75161
  18337998.739   -31100136.241 7 -24054677.39223
 91  4 22 23 52 29.9930000  0  4G15G 2G13G 6
  21525738.0754   -7463966.57145  -5721208.86361
  18886873.7244  -25677215.78548 -19921045.26064
  19041273.6304  -18988435.79447 -14397296.85261
  18334476.349   -31118642.114 7 -24069097.53723
 91  4 22 23 52 44.9930000  0  4G15G 2G13G 6
  21525584.4194   -7464807.85445  -5721864.39961
  18886490.8174  -25679226.80348 -19922612.28764
  19031906.8414  -19037653.18547 -14435647.98061
  18330976.403   -31137039.327 7 -24083433.01523
 91  4 22 23 52 59.9930000  0  4G15G 2G13G 6
  21525451.950    -7465510.747 5  -5722412.09921
  18886115.7784  -25681191.09848 -19924142.90264
  19022564.7004  -19086746.31847 -14473902.28561
  18327496.607   -31155326.857 7 -24097683.02723
 91  4 22 23 53 14.9930000  0  4G15G 2G13G 6
  21525341.9894   -7466073.99645  -5722850.97961
  18885752.2164  -25683107.60748 -19925636.28464
  19013246.8804  -19135713.73947 -14512058.62561
  18324036.9894  -31173503.22647 -24111846.42063
 91  4 22 23 53 29.9930000  0  4G15G 2G13G 6
  21525262.3104   -7466499.72545  -5723182.70861
  18885395.8644  -25684978.44848 -19927094.07664
  19003952.692   -19184557.461 7 -14550118.58321
  18320599.1144  -31191570.31947 -24125924.66463
 91  4 22 23 53 44.9930000  0  4G15G 2G13G 6
  21525210.817    -7466782.846 5  -5723403.34121
  18885049.4504  -25686798.38748 -19928512.20764
  18994681.0994  -19233272.08747 -14588077.94361
  18317181.7864  -31209522.80647 -24139913.60863
 91  4 22 23 53 59.9930000  0  4G15G 2G13G 6
  21525185.6534   -7466925.10945
  18884710.9274  -25688569.09748 -19929891.98064
  18985436.200   -19281859.206 7 -14625937.95521
  18313788.5524  -31227362.00747 -24153814.27363
 91  4 22 23 54 14.9930000  0  4G15G 2G13G 6
  21525179.2164   -7466931.61845
  18884384.4194  -25690295.46748 -19931237.20364
  18976212.7084  -19330323.39447 -14663702.17261
  18310413.7714  -31245092.66347 -24167630.36163
 91  4 22 23 54 29.9930000  0  4G15G 2G13G 6
  21525201.802    -7466798.086 5
  18884064.3024  -25691973.28848 -19932544.59064
  18967015.3724  -19378660.40047 -14701367.28761
  18307061.2944  -31262710.49647 -24181358.53763
 91  4 22 23 54 44.9930000  0  4G15G 2G13G 6
  21525255.294    -7466527.766 5
  18883754.2714  -25693605.80448 -19933816.67564
  18957840.732   -19426872.911 7 -14738935.39421
  18303730.5284  -31280218.29747 -24195000.97663
 91  4 22 23 54 59.9930000  0  4G15G 2G13G 6
  21525333.3884   -7466116.44645  -5722884.01961
  18883452.8494  -25695188.62348 -19935050.03564
  18948690.482   -19474956.505 7 -14776403.04222
  18300420.1224  -31297611.46247 -24208554.08563
 91  4 22 23 55 14.9930000  0  4G15G 2G13G 6
  21525443.8024   -7465567.59745  -5722456.34661
  18883160.2474  -25696725.34948 -19936247.48064
  18939564.8024  -19522914.74647 -14813773.01361
  18297130.3964  -31314893.54747 -24222020.64363
 91  4 22 23 55 29.9930000  0  4G15G 2G13G 6
  21525563.161    -7464876.716 5  -5721917.98721
  18882878.8334  -25698211.21448 -19937405.29264
  18930462.536   -19570742.543 7 -14851041.34621
  18293864.3414  -31332059.51647 -24235396.71863
 91  4 22 23 55 44.9920000  0  4G15G 2G13G 6
  21525727.1564   -7464046.06145  -5721270.71961
  18882603.2114  -25699648.24948 -19938525.05264
  18921386.258   -19618438.757 7 -14888207.14421
  18290620.7424  -31349110.16747 -24248682.93863
 91  4 22 23 55 59.9920000  0  4G15G 2G13G 6
  21525911.6564   -7463076.22545  -5720514.98261
  18882339.6254  -25701037.07348 -19939607.25264
  18912334.797   -19666010.060 7 -14925275.61221
  18287397.1564  -31366048.17347 -24261881.38063
 91  4 22 23 56 14.9920000  0  4G15G 2G13G 6
  21526123.500    -7461967.266 5  -5719650.84121
  18882083.4384  -25702377.54048 -19940651.76964
  18903305.336   -19713452.873 7 -14962243.95521
  18284195.9064  -31382872.02047 -24274990.86263
 91  4 22 23 56 29.9920000  0  4G15G 2G13G 6
  21526365.266    -7460720.284 5  -5718679.15221
  18881838.4844  -25703670.65648 -19941659.39264
  18894301.734   -19760768.095 7 -14999112.88322
  18281016.8914  -31399582.44347 -24288011.96663
 91  4 22 23 56 44.9920000  0  4G15G 2G13G 6
  21526627.5004   -7459335.58245  -5717600.14661
  18881600.9454  -25704916.93948 -19942630.51864
  18885321.531   -19807956.099 7 -15035882.67022
  18277857.7194  -31416179.75047 -24300944.92763
 91  4 22 23 56 59.9920000  0  4G15G 2G13G 6
  21526910.1024   -7457813.17845  -5716413.85561
  18881374.1724  -25706116.23448 -19943565.03364
  18876366.133   -19855016.490 7 -15072553.02121
  18274720.9534  -31432663.45847 -24313789.37063
 91  4 22 23 57 14.9920000  0  4G15G 2G13G 6
  21527228.3364   -7456155.08045  -5715121.81661
  18881154.6724  -25707270.51548 -19944464.47064
  18867435.992   -19901951.206 7 -15109125.45622
  18271604.7424  -31449035.49847 -24326546.80063
 91  4 22 23 57 29.9920000  0  4G15G 2G13G 6
  21527571.102    -7454357.325 5  -5713720.96421
  18880943.3524  -25708375.53148 -19945325.52564
  18858530.070   -19948755.806 7 -15145596.49321
  18268511.5244  -31465291.39047 -24339213.72463
 91  4 22 23 57 44.9920000  0  4G15G 2G13G 6
  21527943.8204   -7452421.55845  -5712212.57461
  18880741.8834  -25709432.89848 -19946149.44564
  18849647.031   -19995431.816 7 -15181967.33222
  18265439.4304  -31481432.62347 -24351791.30363
 91  4 22 23 57 59.9920000  0  4G15G 2G13G 6
  21528334.602    -7450344.670 5  -5710594.20921
  18880549.2664  -25710439.51048 -19946933.82064
  18840789.578   -20041975.809 7 -15218235.29922
  18262391.4064  -31497455.80547 -24364276.89363
 91  4 22 23 58 14.9920000  0  4G15G 2G13G 6
  21528764.586    -7448132.064 5  -5708870.07821
  18880365.2974  -25711400.54648 -19947682.67964
  18831956.719   -20088392.827 7 -15254404.32522
  18259362.5004  -31513366.01547 -24376674.45063
 91  4 22 23 58 29.9920000  0  4G15G 2G13G 6
  21529202.6954   -7445780.03045  -5707037.31261
  18880194.6564  -25712312.37748 -19948393.19764
  18823148.914   -20134679.046 7 -15290471.42622
  18256357.2974  -31529159.33047 -24388980.92163
 91  4 22 23 58 44.9920000  0  4G15G 2G13G 6
  21529675.649    -7443295.492 5  -5705101.30321
  18880028.2894  -25713181.62148 -19949070.53464
  18814364.563   -20180841.116 7 -15326441.79621
  18253373.8674  -31544842.15947 -24401201.30263
 91  4 22 23 58 59.9920000  0  4G15G 2G13G 6
  21530170.3364   -7440672.50545  -5703057.39161
  18879873.5004  -25714002.42748 -19949710.12264
  18805603.766   -20226872.955 7 -15362310.68522
  18250412.0084  -31560408.54547 -24413330.94863
 91  4 22 23 59 14.9920000  0  4G15G 2G13G 6
  21530700.234    -7437913.178 5  -5700907.25821
  18879725.6024  -25714776.47248 -19950313.27764
  18796868.703   -20272775.905 7 -15398079.14222
  18247470.8444  -31575860.06047 -24425371.08763
 91  4 22 23 59 29.9920000  0  4G15G 2G13G 6
  21531253.320    -7435017.853 5  -5698651.14821
  18879587.0784  -25715504.30048 -19950880.42364
  18788159.242   -20318550.288 7 -15433747.42222
  18244551.9694  -31591196.75847 -24437321.74863
 91  4 22 23 59 44.9920000  0  4G15G 2G13G 6
  21531824.852    -7431986.091 5  -5696288.71021
  18879455.6414  -25716185.17147 -19951410.97564
  18779473.594   -20364195.434 7 -15469314.99622
  18241656.7034  -31606417.98847 -24449182.43863
 91  4 22 23 59 59.9920000  0  4G15G 2G13G 6
  21532425.727    -7428816.271 5  -5693818.70321
  18879335.9064  -25716817.73148 -19951903.88464
  18770811.149   -20409709.637 7 -15504780.53322
  18238781.6494  -31621522.05647 -24460951.83463
 91  4 23  0  0 14.9920000  0  4G15G 2G13G 6
  21533062.6334   -7425504.73945  -5691238.28961
  18879225.4614  -25717397.78447 -19952355.87964
  18762176.274   -20455088.667 7 -15540140.74322
  18235930.4614  -31636504.60247 -24472626.54163
 91  4 23  0  0 29.9920000  0  4G15G 2G13G 6
  21533714.664    -7422056.075 5  -5688551.00321
  18879122.3594  -25717930.04248 -19952770.63164
  18753566.016   -20500337.093 7 -15575399.18522
  18233101.7814  -31651370.14547 -24484210.07263
 91  4 23  0  0 44.9920000  0  4G15G 2G13G 6
  21534406.2814   -7418466.98145  -5685754.28661
  18879035.7814  -25718410.61448 -19953145.11364
  18744979.742   -20545450.959 7 -15610552.77122
  18230295.609   -31666114.734 7 -24495699.35123
 91  4 23  0  0 59.9920000  0  4G15G 2G13G 6
  21535113.461    -7414739.277 5  -5682849.55521
  18878952.9384  -25718841.56848 -19953480.92764
  18736421.945   -20590431.777 7 -15645602.68522
  18227513.7034  -31680740.08747 -24507095.72363
 91  4 23  0  1 14.9920000  0  4G15G 2G13G 6
  21535842.016    -7410876.488 5  -5679839.57821
  18878879.2194  -25719226.42248 -19953780.82364
  18727885.805   -20635283.124 7 -15680551.71622
  18224752.0704  -31695249.55047 -24518401.78863
 91  4 23  0  1 29.9920000  0  4G15G 2G13G 6
  21536609.359    -7406882.275 5  -5676727.19821
  18878815.4144  -25719568.65548 -19954047.50164
  18719375.578   -20680008.443 7 -15715402.53722
  18222011.6564  -31709646.35647 -24529620.06663
 91  4 23  0  1 44.9920000  0  4G15G 2G13G 6
  21537396.1644   -7402745.97645  -5673504.09561
  18878756.0784  -25719857.64547 -19954272.69264
  18710890.859   -20724597.147 7 -15750146.90822
  18219295.9144  -31723919.96347 -24540742.34763
 91  4 23  0  1 59.9920000  0  4G15G 2G13G 6
  21538194.3364   -7398472.29145  -5670173.93061
  18878712.2114  -25720097.87648 -19954459.89064
  18702430.524   -20769053.273 7 -15784787.97322
  18216603.313   -31738074.429 7 -24551771.79023
 91  4 23  0  2 14.9920000  0  4G15G 2G13G 6
  21539052.2894   -7394062.75245  -5666737.92261
  18878675.7974  -25720290.60048 -19954610.07263
  18693996.242   -20813378.138 7 -15819326.75522
  18213931.313   -31752111.071 7 -24562709.42323
 91  4 23  0  2 29.9920000  0  4G15G 2G13G 6
  21539915.3914   -7389519.18845  -5663197.46761
  18878645.8914  -25720437.64147
  18685586.3914  -20857573.34647 -15853764.51062
  18211282.9694  -31766031.41747 -24573556.43563
 91  4 23  0  2 44.9920000  0  4G15G 2G13G 6
  21540794.016    -7384834.750 5  -5659547.24721
  18878630.0634  -25720532.18647
  18677201.914   -20901631.876 7 -15888095.75822
  18208657.359   -31779828.230 7 -24584307.18623
 91  4 23  0  2 59.9920000  0  4G15G 2G13G 6
  21541726.9534   -7380017.88845  -5655793.86061
  18878621.1564  -25720582.45647
  18668842.649   -20945561.868 7 -15922326.85422
  18206053.4774  -31793509.82647 -24594968.16363
 91  4 23  0  3 14.9920000  0  4G15G 2G13G 6
  21542661.7034   -7375064.62145  -5651934.14861
  18878619.1644  -25720584.51147
  18660507.625   -20989359.395 7 -15956454.72222
  18203473.117   -31807072.045 7 -24605536.11523
 91  4 23  0  3 29.9920000  0  4G15G 2G13G 6
  21543619.3134   -7369974.83345  -5647968.05461
  18878630.5394  -25720537.57347
  18652199.055   -21033023.382 7 -15990478.54222
  18200914.7504  -31820513.91147 -24616010.28763
 91  4 23  0  3 44.9920000  0  4G15G 2G13G 6
  21544625.3204   -7364747.42045  -5643894.71961
  18878647.7344  -25720440.62947
  18643914.9064  -21076552.86547 -16024397.54462
  18198380.2194  -31833834.34447 -24626389.83663
 91  4 23  0  3 59.9920000  0  4G15G 2G13G 6
  21545644.7424   -7359385.04845  -5639716.24261
  18878673.578   -25720296.227 7
  18635657.000   -21119950.015 7 -16058213.43422
  18195868.1724  -31847035.58247 -24636676.50763
 91  4 23  0  4 14.9920000  0  4G15G 2G13G 6
  21546689.1564   -7353890.06045  -5635434.41561
  18878709.0784  -25720106.55947
  18627422.8364  -21163216.97947 -16091927.88062
  18193378.4304  -31860119.68747 -24646871.90563
 91  4 23  0  4 29.9920000  0  4G15G 2G13G 6
  21547759.8914   -7348255.92145  -5631044.16661
  18878755.7424  -25719864.94647 -19954278.44263
  18619216.5634  -21206346.84947 -16125535.50062
  18190911.6094  -31873079.93747 -24656970.79663
 91  4 23  0  4 44.9920000  0  4G15G 2G13G 6
  21548860.9694   -7342482.19445  -5626545.15761
  18878814.5164  -25719570.87447 -19954049.30263
  18611034.578   -21249339.174 7 -16159035.94222
  18188469.3204  -31885915.46147 -24666972.49863
 91  4 23  0  4 59.9920000  0  4G15G 2G13G 6
  21549981.680    -7336578.803 5  -5621945.10321
  18878879.0554  -25719234.06547 -19953786.85763
  18602876.867   -21292203.670 7 -16192436.77822
  18186048.9224  -31898635.89847 -24676884.52363
 91  4 23  0  5 14.9920000  0  4G15G 2G13G 6
  21551132.5004   -7330539.38345  -5617239.02861
  18878952.4384  -25718847.91647 -19953485.96863
  18594745.719   -21334933.437 7 -16225732.63022
  18183651.4774  -31911234.51547 -24686701.61863
 91  4 23  0  5 29.9920000  0  4G15G 2G13G 6
  21552310.1884   -7324365.61745  -5612428.29161
  18879034.2424  -25718414.11347 -19953147.94563
  18586640.719   -21377530.031 7 -16258924.70422
  18181276.3364  -31923712.72447 -24696424.89463
 91  4 23  0  5 44.9920000  0  4G15G 2G13G 6
  21553505.680    -7318052.788 5  -5607509.17921
  18879124.1334  -25717927.64447 -19952768.88563
  18578560.2344  -21419988.44047 -16292009.11462
  18178925.7744  -31936065.45747 -24706050.39863
 91  4 23  0  5 59.9920000  0  4G15G 2G13G 6
  21554735.5554   -7311605.65045  -5602485.41461
  18879225.9774  -25717393.16947 -19952352.41863
  18570507.195   -21462313.059 7 -16324989.26222
  18176598.1724  -31948297.23347 -24715581.64763
 91  4 23  0  6 14.9920000  0  4G15G 2G13G 6
  21555986.7194   -7305020.46845  -5597354.09761
  18879337.5004  -25716806.85147 -19951895.55463
  18562479.0634  -21504500.02447 -16357862.15662
  18174294.1094  -31960403.96347 -24725015.46163
 91  4 23  0  6 29.9920000  0  4G15G 2G13G 6
  21557267.1724   -7298305.81845  -5592121.90161
  18879458.2344  -25716177.26147 -19951404.96963
  18554475.9454  -21546557.78047 -16390634.36462
  18172012.6174  -31972394.08547 -24734358.40763
 91  4 23  0  6 44.9920000  0  4G15G 2G13G 6
  21558569.3284   -7291454.93045  -5586783.53361
  18879588.8204  -25715497.47247 -19950875.26963
  18546497.7894  -21588479.26747 -16423300.39362
  18169754.6954  -31984260.48447 -24743604.94963
 91  4 23  0  6 59.9920000  0  4G15G 2G13G 6
  21559896.352    -7284465.098 5  -5581336.89821
  18879729.3754  -25714764.56047 -19950304.17763
  18538547.2894  -21630261.41547 -16455857.84662
  18167521.4694  -31996000.12447 -24752752.72363
 91  4 23  0  7 14.9920000  0  4G15G 2G13G 6
  21561253.289    -7277342.472 5  -5575786.78821
  18879876.9774  -25713984.55447 -19949696.38663
  18530620.8284  -21671910.03147 -16488311.24462
  18165310.1024  -32007618.80447 -24761806.23863
 91  4 23  0  7 29.9920000  0  4G15G 2G13G 6
  21562634.2814   -7270086.97045  -5570133.14761
  18880031.2114  -25713157.26947 -19949051.75163
  18522720.1884  -21713424.99547 -16520660.49562
  18163123.3754  -32019116.15447 -24770765.21263
 91  4 23  0  7 44.9920000  0  4G15G 2G13G 6
  21564042.7274   -7262700.03045  -5564377.06961
  18880199.9844  -25712284.07547 -19948371.34763
  18514846.4614  -21754807.49547 -16552906.53662
  18160956.6564  -32030493.39347 -24779630.59563
 91  4 23  0  7 59.9920000  0  4G15G 2G13G 6
  21565473.9774   -7255180.66845  -5558517.83661
  18880375.1024  -25711363.36147 -19947653.91564
  18506998.4064  -21796056.01747 -16585048.17462
  18158814.0004  -32041748.93047 -24788401.14663
 91  4 23  0  8 14.9920000  0  4G15G 2G13G 6
  21566925.7194   -7247529.83645  -5552556.13361
  18880558.6564  -25710396.05847 -19946900.17563
  18499172.8284  -21837171.35847 -16617086.03562
  18156696.4844  -32052883.60647 -24797077.51763
 91  4 23  0  8 29.9920000  0  4G15G 2G13G 6
  21568410.1804   -7239743.41345  -5546488.79461
  18880753.1414  -25709377.92447 -19946106.83063
  18491375.9304  -21878149.14547 -16649016.70862
  18154602.0864  -32063892.82147 -24805656.12763
 91  4 23  0  8 44.9920000  0  4G15G 2G13G 6
  21569914.6254   -7231822.19045  -5540316.42361
  18880954.7584  -25708309.49547 -19945274.29663
  18483604.2034  -21918989.83247 -16680840.55562
  18152530.7664  -32074777.02447 -24814137.32563
 91  4 23  0  8 59.9920000  0  4G15G 2G13G 6
  21571452.4844   -7223765.34345  -5534038.37161
  18881168.9224  -25707189.77547 -19944401.79863
  18475857.7744  -21959692.26147 -16712556.66362
  18150482.1174  -32085534.99847 -24822520.16463
 91  4 23  0  9 14.9920000  0  4G15G 2G13G 6
  21573007.7034   -7215571.05945  -5527653.21661
  18881391.6094  -25706017.15447 -19943488.07863
  18468139.3754  -22000254.73547 -16744163.72162
  18148460.2114  -32096165.07647 -24830803.34063
 91  4 23  0  9 29.9920000  0  4G15G 2G13G 6
  21574591.2664   -7207242.24345  -5521163.23961
  18881623.9384  -25704794.55247 -19942535.40563
  18460446.1644  -22040680.00247 -16775663.86362
  18146461.5244  -32106669.92047 -24838988.93363
 91  4 23  0  9 44.9920000  0  4G15G 2G13G 6
  21576206.6724   -7198779.57345  -5514568.94461
  18881866.9844  -25703521.99447 -19941543.80763
  18452779.2584  -22080968.05147 -16807057.08362
  18144485.0474  -32117049.54847 -24847076.95663
 91  4 23  0  9 59.9920000  0  4G15G 2G13G 6
  21577841.0864   -7190184.24645  -5507871.28861
  18882118.1414  -25702200.61947 -19940514.17263
  18445139.6024  -22121119.87347 -16838344.14862
  18142534.7034  -32127304.79947 -24855068.06063
 91  4 23  0 10 14.9920000  0  4G15G 2G13G 6
  21579500.852    -7181457.461 5  -5501071.18321
  18882379.2194  -25700831.51247 -19939447.34463
  18437523.8834  -22161136.53047 -16869525.89362
  18140605.8594  -32137436.63247 -24862962.99063
 91  4 23  0 10 29.9920000  0  4G15G 2G13G 6
  21581188.9304   -7172597.96645  -5494167.66861
  18882647.5244  -25699413.01447 -19938342.02963
  18429935.6724  -22201016.46147 -16900601.09662
  18138702.9144  -32147443.43947 -24870760.50063
 91  4 23  0 10 44.9920000  0  4G15G 2G13G 6
  21582899.2664   -7163603.53345  -5487159.01661
  18882929.0704  -25697942.88447 -19937196.48363
  18422373.4614  -22240757.14747 -16931567.80062
  18136822.1414  -32157322.67647 -24878458.60563
 91  4 23  0 10 59.9920000  0  4G15G 2G13G 6
  21584629.4924   -7154482.06345  -5480051.37661
  18883216.3914  -25696428.59547 -19936016.52463
  18414835.1644  -22280365.80847 -16962431.62962
  18134964.7814  -32167081.76747 -24886063.09263
 91  4 23  0 11 14.9920000  0  4G15G 2G13G 6
  21586397.4304   -7145228.27145  -5472840.64461
  18883514.5704  -25694864.85947 -19934798.03963
  18407323.6024  -22319837.24147 -16993188.52762
  18133132.6644  -32176715.28247 -24893569.72463
 91  4 23  0 11 29.9920000  0  4G15G 2G13G 6
  21588184.508    -7135840.075 5  -5465525.13921
  18883821.2744  -25693249.40947 -19933539.25163
  18399841.1724  -22359169.15647 -17023836.70462
  18131322.8834  -32186220.85247 -24900976.66063
 91  4 23  0 11 44.9920000  0  4G15G 2G13G 6
  21589993.656    -7126320.139 5  -5458106.99821
  18884139.2664  -25691584.86547 -19932242.21564
  18392380.4924  -22398364.13447 -17054378.18662
  18129538.9304  -32195600.84347 -24908285.74363
 91  4 23  0 11 59.9920000  0  4G15G 2G13G 6
  21591833.0554   -7116669.41945  -5450586.95561
  18884465.2584  -25689871.91247 -19930907.45663
  18384948.2894  -22437422.80747 -17084813.45062
  18127776.7034  -32204855.77847 -24915497.37763
 91  4 23  0 12 14.9920000  0  4G15G 2G13G 6
  21593692.8204   -7106883.46945  -5442961.55161
  18884801.5704  -25688106.01147 -19929531.44063
  18377542.3594  -22476340.60547 -17115138.94862
  18126039.2504  -32213981.17947 -24922608.07763
 91  4 23  0 12 29.9920000  0  4G15G 2G13G 6
  21595584.3284   -7096966.10045  -5435233.72961
  18885146.1024  -25686290.47547 -19928116.74563
  18370161.8054  -22515120.66147 -17145357.11362
  18124327.7274  -32222980.07447 -24929620.20263
 91  4 23  0 12 44.9920000  0  4G15G 2G13G 6
  21597497.008    -7086917.407 5  -5427403.58321
  18885502.4774  -25684425.29948 -19926663.37363
  18362809.8914  -22553762.77447 -17175467.79062
  18122639.0704  -32231852.51647 -24936533.78963
 91  4 23  0 12 59.9920000  0  4G15G 2G13G 6
  21599427.2194   -7076737.56045  -5419471.21561
  18885866.6804  -25682510.85648 -19925171.60564
  18355482.4534  -22592267.50847 -17205471.41962
  18120974.5784  -32240598.39047 -24943348.75963
 91  4 23  0 13 14.9920000  0  4G15G 2G13G 6
  21601388.2584   -7066429.75745  -5411439.16561
  18886238.5554  -25680549.78547 -19923643.51064
  18348180.3994  -22630637.35247 -17235369.93762
  18119335.0394  -32249220.57947 -24950067.34463
 91  4 23  0 13 29.9920000  0  4G15G 2G13G 6
  21603377.063    -7055992.973 5  -5403306.62421
  18886621.1254  -25678540.91547 -19922078.16463
  18340904.8134  -22668870.87747 -17265162.23562
  18117718.8834  -32257717.51047 -24956688.33063
 91  4 23  0 13 44.9920000  0  4G15G 2G13G 6
  21605386.0244   -7045425.54445  -5395072.25961
  18887012.2194  -25676482.50247 -19920474.21764
  18333655.961   -22706966.227 7 -17294846.86722
  18116125.0394  -32266087.40647 -24963210.32763
 91  4 23  0 13 59.9920000  0  4G15G 2G13G 6
  21607428.1644   -7034727.14845  -5386735.84261
  18887414.3674  -25674373.91347 -19918831.16964
  18326432.5784  -22744922.89547 -17324423.43462
  18114556.1334  -32274329.46647 -24969632.71463
 91  4 23  0 14 14.9920000  0  4G15G 2G13G 6
  21609482.0474   -7023897.81145  -5378297.39061
  18887823.6254  -25672214.96047 -19917148.87764
  18319235.399   -22782740.517 7 -17353891.65922
  18113013.8284  -32282443.44647 -24975955.29463
 91  4 23  0 14 29.9920000  0  4G15G 2G13G 6
  21611570.7664   -7012941.11245  -5369759.71061
  18888244.6414  -25670009.20747 -19915430.11764
  18312065.4614  -22820422.60447 -17383254.26662
  18111492.3444  -32290432.88247 -24982180.83063
 91  4 23  0 14 44.9920000  0  4G15G 2G13G 6
  21613678.6564   -7001854.38145  -5361120.71761
  18888674.6174  -25667753.68047 -19913672.56864
  18304920.2274  -22857966.20247 -17412508.96162
  18109995.0864  -32298294.53247 -24988306.79763
 91  4 23  0 14 59.9920000  0  4G15G 2G13G 6
  21615812.4304   -6990639.46645  -5352381.82761
  18889111.9774  -25665449.83047 -19911877.36763
  18297803.016   -22895372.787 7 -17441656.90022
  18108524.9454  -32306029.99147 -24994334.42363
 91  4 23  0 15 14.9920000  0  4G15G 2G13G 6
  21617970.3914   -6979296.39145  -5343543.06661
  18889560.1804  -25663097.83747 -19910044.65664
  18290710.117   -22932642.500 7 -17470698.17822
  18107075.4384  -32313639.09047 -25000263.59763
 91  4 23  0 15 29.9920000  0  4G15G 2G13G 6
  21620154.664    -6967827.470 5  -5334606.24321
  18890015.5244  -25660699.65947 -19908175.95363
  18283644.1724  -22969777.20947 -17499634.25762
  18105651.4384  -32321123.60247 -25006095.68963
 91  4 23  0 15 44.9920000  0  4G15G 2G13G 6
  21622361.508    -6956231.397 5  -5325570.32021
  18890481.1954  -25658253.42347 -19906269.80263
  18276604.1024  -23006775.03647 -17528463.67762
  18104251.8994  -32328481.86847 -25011829.40363
 91  4 23  0 15 59.9920000  0  4G15G 2G13G 6
  21624596.0704   -6944504.73845  -5316432.65561
  18890957.5634  -25655755.77147 -19904323.58963
  18269589.531   -23043632.672 7 -17557183.85922
  18102875.4384  -32335710.27647 -25017461.93763
 91  4 23  0 16 14.9920000  0  4G15G 2G13G 6
  21626850.1254   -6932649.34145  -5307194.67461
  18891441.5314  -25653208.47147 -19902338.68663
  18262602.578   -23080351.495 7 -17585795.88322
  18101526.3834  -32342810.32847 -25022994.44763
 91  4 23  0 16 29.9920000  0  4G15G 2G13G 6
  21629126.641    -6920662.663 5  -5297854.42121
  18891936.3204  -25650608.81547 -19900312.98563
  18255641.8754  -23116928.97647 -17614297.76062
  18100199.9144  -32349779.26047 -25028424.79063
 91  4 23  0 16 44.9920000  0  4G15G 2G13G 6
  21631434.219    -6908551.086 5  -5288416.84621
  18892439.3444  -25647962.72147 -19898251.09963
  18248707.469   -23153371.082 7 -17642694.15522
  18098896.9534  -32356622.86947 -25033757.47963
 91  4 23  0 16 59.9920000  0  4G15G 2G13G 6
  21633762.0314   -6896315.29745  -5278882.45361
  18892951.8834  -25645270.72647 -19896153.44963
  18241798.094   -23189677.997 7 -17670985.20422
  18097618.1644  -32363341.56847 -25038992.83463
 91  4 23  0 17 14.9920000  0  4G15G 2G13G 6
  21636111.922    -6883952.804 5  -5269249.32321
  18893472.7424  -25642529.90947 -19894017.75363
  18234915.297   -23225846.763 7 -17699168.60922
  18096363.6804  -32369932.39747 -25044128.55163
 91  4 23  0 17 29.9920000  0  4G15G 2G13G 6
  21638486.6414   -6871465.86945  -5259519.24361
  18894003.9304  -25639742.72347 -19891845.92663
  18228059.008   -23261879.987 7 -17727246.39422
  18095133.1024  -32376397.70147 -25049166.45863
 91  4 23  0 17 44.9920000  0  4G15G 2G13G 6
  21640891.9534   -6858849.22845  -5249688.10861
  18894544.3994  -25636903.64247 -19889633.66163
  18221229.461   -23297772.166 7 -17755214.27722
  18093928.2504  -32382731.92547 -25054102.22163
 91  4 23  0 17 59.9920000  0  4G15G 2G13G 6
  21643316.6804   -6846104.95445  -5239757.53861
  18895093.9304  -25634014.28047 -19887382.21863
  18214424.539   -23333524.717 7 -17783073.36122
  18092747.6414  -32388936.40347 -25058936.89063
 91  4 23  0 18 14.9920000  0  4G15G 2G13G 6
  21645765.9844   -6833233.97345  -5229728.20961
  18895652.7664  -25631075.29647 -19885092.10663
  18207647.899   -23369138.217 7 -17810824.08522
  18091592.8754  -32395011.92147 -25063671.06463
 91  4 23  0 18 29.9920000  0  4G15G 2G13G 6
  21648237.2114   -6820232.82745  -5219597.45061
  18896222.6644  -25628083.10647 -19882760.53763
  18200898.328   -23404609.160 7 -17838463.73422
  18090461.3674  -32400954.66147 -25068301.77863
 91  4 23  0 18 44.9920000  0  4G15G 2G13G 6
  21650741.477    -6807105.291 5  -5209368.19321
  18896802.7814  -25625041.61547 -19880390.55363
  18194174.320   -23439941.340 7 -17865995.25422
  18089353.8524  -32406768.29047 -25072831.88663
 91  4 23  0 18 59.9920000  0  4G15G 2G13G 6
  21653264.7894   -6793850.11145  -5199039.48661
  18897390.0314  -25621949.07447 -19877980.78763
  18187477.750   -23475133.186 7 -17893417.41922
  18088272.6414  -32412451.09347 -25077260.04963
 91  4 23  0 19 14.9920000  0  4G15G 2G13G 6
  21655805.828    -6780465.800 5  -5188610.16721
  18897987.8364  -25618803.69647 -19875529.84863
  18180808.320   -23510182.830 7 -17920728.78122
  18087218.1724  -32418001.34347 -25081584.92563
 91  4 23  0 19 29.9920000  0  4G15G 2G13G 6
  21658380.1644   -6766958.35545  -5178084.88561
  18898596.3054  -25615611.20947 -19873042.20463
  18174164.289   -23545096.032 7 -17947933.83022
  18086183.3524  -32423424.48747 -25085810.75963
 91  4 23  0 19 44.9920000  0  4G15G 2G13G 6
  21660972.063    -6753323.693 5  -5167460.47821
  18899212.7814  -25612367.38147 -19870514.55663
  18167546.406   -23579868.512 7 -17975029.21722
  18085178.3204  -32428716.18747 -25089934.16663
 91  4 23  0 19 59.9920000  0  3G 2G13G 6
  18899841.1644  -25609073.12047 -19867947.60363
  18160956.305   -23614500.932 7 -18002015.46922
  18084195.0314  -32433877.28147 -25093955.80463
 91  4 23  0 20 14.9920000  0  3G 2G13G 6
  18900476.8524  -25605726.72947 -19865340.03163
  18154393.789   -23648991.771 7 -18028891.40222
  18083240.8054  -32438906.00547 -25097874.30063
 91  4 23  0 20 29.9920000  0  3G 2G13G 6
  18901123.4774  -25602330.13147 -19862693.33863
  18147856.109   -23683342.743 7 -18055658.34322
  18082305.7274  -32443804.13647 -25101691.03363
 91  4 23  0 20 44.9920000  0  3G 2G13G 6
  18901778.0394  -25598893.02247 -19860015.08163
  18141344.508   -23717563.611 7 -18082323.90722
  18081398.1414  -32448581.32947 -25105413.52963
 91  4 23  0 20 59.9920000  0  3G 2G13G 6
  18902440.3444  -25595401.71047 -19857294.58663
  18134859.570   -23751640.843 7 -18108877.54822
  18080515.2114  -32453223.79847 -25109031.04263
 91  4 23  0 21 14.9920000  0  3G 2G13G 6
  18903114.5394  -25591859.55747 -19854534.47463
  18128402.211   -23785577.706 7 -18135321.80722
  18079656.3364  -32457734.97147 -25112546.24863
 91  4 23  0 21 29.9920000  0  3G 2G13G 6
  18903801.0944  -25588266.90147 -19851735.01163
  18121970.820   -23819374.351 7 -18161656.80922
  18078821.4304  -32462114.94647 -25115959.22263
 91  4 23  0 21 44.9920000  0  3G 2G13G 6
  18904494.0864  -25584621.44547 -19848894.40363
  18115565.703   -23853028.436 7 -18187880.72222
  18078013.2034  -32466361.30047 -25119268.07563
 91  4 23  0 21 59.9920000  0  3G 2G13G 6
  18905197.3054  -25580925.51547 -19846014.46663
  18109188.609   -23886542.489 7 -18213995.52122
  18077229.8754  -32470476.29147 -25122474.56563
 91  4 23  0 22 14.9920000  0  3G 2G13G 6
  18905909.4384  -25577182.25347 -19843097.64663
  18102836.836   -23919919.517 7 -18240003.54322
  18076471.2424  -32474463.07747 -25125581.15963
 91  4 23  0 22 29.9920000  0  3G 2G13G 6
  18906630.4844  -25573392.18647 -19840144.35863
  18096511.180   -23953160.302 7 -18265905.41122
  18075736.7974  -32478322.24047 -25128588.30563
 91  4 23  0 22 44.9920000  0  3G 2G13G 6
  18907360.7424  -25569554.03647 -19837153.59763
  18090211.555   -23986263.508 7 -18291700.06822
  18075026.7814  -32482052.29547 -25131494.85163
 91  4 23  0 22 59.9920000  0  3G 2G13G 6
  18908100.3594  -25565664.53447 -19834122.83063
  18083939.274   -24019225.758 7 -18317384.89122
  18074343.7344  -32485649.98647 -25134298.25163
 91  4 23  0 23 14.9920000  0  3G 2G13G 6
  18908849.0004  -25561726.31547 -19831054.09963
  18077693.008   -24052049.668 7 -18342961.91422
  18073684.7114  -32489117.61647 -25137000.30763
 91  4 23  0 23 29.9920000  0  3G 2G13G 6
  18909608.336   -25557738.324 7 -19827946.58823
  18071473.641   -24084734.250 7 -18368430.37122
  18073050.7344  -32492454.27647 -25139600.30663
 91  4 23  0 23 44.9920000  0  3G 2G13G 6
  18910378.359   -25553700.435 7 -19824800.19523
  18065280.383   -24117279.270 7 -18393790.07722
  18072437.7504  -32495659.70047 -25142098.04663
 91  4 23  0 23 59.9920000  0  3G 2G13G 6
  18911155.3914  -25549614.09647 -19821616.04263
  18059113.742   -24149686.426 7 -18419042.35822
  18071853.4694  -32498735.30147 -25144494.61763
 91  4 23  0 24 14.9920000  0  3G 2G13G 6
  18911941.2114  -25545482.42847 -19818396.57463
  18052971.914   -24181958.621 7 -18444189.47922
  18071293.9384  -32501684.15147 -25146792.43363
 91  4 23  0 24 29.9920000  0  3G 2G13G 6
  18912738.195   -25541298.822 7 -19815136.63823
  18046858.399   -24214089.155 7 -18469226.21122
  18070754.8524  -32504499.42347 -25148986.16263
 91  4 23  0 24 44.9920000  0  3G 2G13G 6
  18913541.789   -25537068.057 7 -19811839.95123
  18040769.609   -24246082.897 7 -18494156.35022
  18070246.5864  -32507185.75347 -25151079.40962
 91  4 23  0 24 59.9920000  0  3G 2G13G 6
  18914357.820   -25532782.454 7 -19808500.53523
  18034709.578   -24277932.198 7 -18518973.93522
  18069759.5554  -32509735.50247 -25153066.23362
 91  4 23  0 25 14.9920000  0  3G 2G13G 6
  18915184.086   -25528446.728 7 -19805122.06523
  18028674.266   -24309641.848 7 -18543682.70522
  18069299.3524  -32512153.51147 -25154950.40363
 91  4 23  0 25 29.9920000  0  3G 2G13G 6
  18916016.320   -25524062.735 7 -19801705.97823
  18022666.836   -24341213.584 7 -18568284.00722
  18068866.8054  -32514441.38147 -25156733.16263
 91  4 23  0 25 44.9910000  0  3G 2G13G 6
  18916859.269   -25519636.055 7 -19798256.63423
  18016685.331   -24372650.611 7 -18592780.34222
  18068452.3164  -32516604.35747 -25158418.60262
 91  4 23  0 25 59.9910000  0  3G 2G13G 6
  18917712.167   -25515162.206 7 -19794770.53523
  18010727.323   -24403953.414 7 -18617172.08822
  18068065.2694  -32518638.69247 -25160003.80863
 91  4 23  0 26 14.9910000  0  3G 2G13G 6
  18918573.323   -25510637.938 7 -19791245.14623
  18004797.698   -24435116.285 7 -18641454.79622
  18067703.7454  -32520540.59947 -25161485.81663
 91  4 23  0 26 29.9910000  0  3G 2G13G 6
  18919442.784   -25506061.512 7 -19787679.12023
  17998894.191   -24466137.411 7 -18665627.05422
  18067369.0664  -32522308.23447 -25162863.20162
